GFSSW_prec_cthk_000.txt.gz
RH
22 18 19 20 24 27 27 28 28 31 37 37 41 46 46 46 46 44 43 43 40 37 33 29 29 34 36 35 41 44 50 46 40 37 38 43 43 41 38 35 33 29 29 34 39
27 22 21 22 25 27 29 30 30 30 37 40 50 46 49 51 52 47 48 49 45 44 42 39 33 34 38 38 40 47 49 42 35 33 33 43 48 44 40 38 35 33 30 32 35
30 26 21 22 25 28 30 31 31 32 32 35 42 49 57 61 60 53 53 46 48 50 46 43 40 41 42 40 43 45 46 41 35 33 34 36 43 45 41 39 37 36 36 35 33
33 28 24 20 23 27 30 34 36 38 38 35 35 38 50 56 59 50 49 48 49 52 51 50 44 44 47 46 42 46 40 44 40 37 36 38 39 40 41 39 40 38 36 40 37
36 30 27 21 21 25 28 34 37 41 44 43 43 43 42 46 48 51 52 51 48 49 48 50 53 50 47 46 45 49 42 40 41 39 40 40 39 40 39 41 44 40 37 35 38
37 35 31 26 20 23 25 31 38 43 43 43 42 45 46 48 42 42 51 56 58 54 52 50 48 51 53 50 49 47 49 46 44 41 41 41 37 42 37 38 44 42 38 35 34
37 39 36 31 23 22 24 29 38 46 44 42 43 44 46 45 43 43 46 51 54 56 53 54 51 60 61 56 51 52 52 52 47 46 47 49 44 41 37 38 40 42 38 35 36
42 40 42 35 29 23 23 30 35 47 47 49 46 49 47 45 43 46 48 51 54 57 57 62 60 66 66 64 63 60 57 60 50 54 51 54 43 41 41 37 39 41 39 38 38
46 45 45 41 35 28 30 29 34 41 47 50 51 51 48 45 45 46 48 50 51 54 55 64 65 64 65 70 72 70 67 60 56 53 58 56 45 42 44 42 40 42 42 41 39
51 49 48 46 38 33 36 34 38 43 45 49 51 54 46 44 44 45 47 51 55 56 54 62 66 67 70 71 70 65 66 58 57 59 59 56 48 51 48 41 41 42 42 42 39
54 53 54 51 44 37 39 39 42 43 45 41 42 43 42 44 44 46 48 54 59 61 64 64 68 66 62 65 70 70 71 66 65 64 64 63 59 57 53 43 40 40 41 41 40
58 55 58 54 53 45 39 41 40 41 40 39 41 44 47 52 51 49 50 57 62 67 70 75 73 66 64 61 66 69 72 67 65 68 67 66 62 60 52 48 46 41 44 44 41
61 61 60 60 57 51 44 45 43 45 46 42 40 46 48 53 57 56 58 62 68 71 73 79 67 62 67 68 69 65 67 68 72 68 65 61 54 60 50 47 51 47 46 45 44
68 64 64 63 59 52 49 53 52 50 52 43 47 51 53 58 61 61 66 70 76 77 82 83 73 70 70 72 73 70 64 64 63 71 74 81 76 58 53 50 49 48 48 46 48
85 80 74 59 57 51 52 57 55 54 52 44 52 57 59 60 63 67 72 78 82 82 85 80 76 77 74 71 74 68 67 66 69 71 79 66 84 59 54 51 45 43 44 46 50
99 96 82 71 59 56 58 62 64 66 62 54 56 60 65 67 72 75 81 84 84 84 81 81 83 82 76 72 70 80 80 78 75 77 83 59 80 61 55 42 44 42 47 47 51
99 96 86 78 62 61 67 68 66 68 49 58 61 64 68 74 79 87 85 81 87 90 89 95 91 86 86 87 83 82 86 95 96 88 76 63 73 52 46 45 41 46 44 47 49
97 97 92 78 67 69 71 69 69 48 52 56 61 68 74 77 87 77 76 82 85 91 97 95 92 93 80 76 84 82 80 90 93 91 67 65 68 55 41 51 49 48 46 49 49
98 90 88 90 72 72 71 75 57 49 52 61 70 76 83 88 76 76 85 85 79 85 95 96 93 80 79 81 83 81 92 64 88 82 86 70 62 48 40 51 49 47 45 43 46
97 98 90 94 79 78 77 66 59 56 63 64 74 79 88 78 73 82 83 73 80 81 90 84 83 72 79 84 82 73 65 83 89 93 85 72 67 48 41 41 50 48 49 48 49
97 98 99 90 88 82 77 72 66 64 63 67 78 89 85 70 71 72 70 64 69 71 78 79 85 84 85 82 85 85 85 75 63 73 90 77 64 34 41 49 53 56 52 49 48
98 98 95 89 85 84 82 76 70 67 65 74 83 93 82 70 77 78 69 60 65 71 76 74 91 93 83 82 81 76 72 69 69 58 68 95 74 43 52 50 55 60 53 48 46
97 98 98 95 82 84 83 77 73 70 73 81 92 90 75 73 79 75 68 63 68 77 83 85 94 98 95 91 88 93 71 65 58 59 94 97 75 63 60 60 55 52 46 44 45
97 98 99 91 92 86 79 74 78 71 78 86 94 88 77 74 72 78 81 74 75 80 85 92 97 97 93 99 84 81 72 68 81 68 74 81 87 68 62 55 53 49 46 46 46
97 96 85 90 89 88 77 73 78 75 86 90 96 90 81 75 69 75 78 76 81 88 93 95 97 97 95 97 98 85 79 83 89 78 73 66 79 68 64 50 47 44 45 46 47
97 96 89 88 91 91 76 75 78 80 88 94 96 90 81 70 60 64 70 78 82 92 97 97 97 98 98 93 88 90 90 90 90 94 86 90 87 69 56 49 47 48 46 46 48
98 96 87 90 92 87 79 79 79 78 79 90 95 92 84 76 68 73 72 75 81 90 96 97 98 98 98 93 90 94 85 88 94 95 94 95 77 59 53 53 54 53 50 43 42

GFSSW_prec_cthk_003.txt.gz
RH
33 29 23 21 22 25 28 28 29 30 36 36 38 43 44 42 39 40 38 39 38 37 34 30 29 32 35 35 37 43 49 44 37 35 30 36 40 40 37 35 35 35 33 30 34
38 33 29 23 23 26 29 31 32 32 38 44 42 47 50 49 47 45 41 43 43 41 40 39 36 31 34 38 39 47 49 40 36 34 31 35 39 45 42 40 37 36 35 32 29
40 35 34 29 25 26 30 33 35 35 36 44 47 50 50 49 50 49 54 49 46 44 42 41 42 40 38 38 41 44 45 41 38 37 35 35 36 39 43 42 39 38 38 37 33
45 38 36 32 25 26 29 33 36 39 40 39 41 48 50 55 53 47 48 49 49 49 48 47 45 43 46 45 41 46 40 42 42 41 41 38 37 38 39 39 43 41 41 38 38
42 43 38 34 28 24 27 31 36 41 45 46 44 43 44 54 55 49 46 45 47 48 48 53 54 52 49 47 45 49 43 43 43 43 43 43 39 39 38 38 41 44 43 41 39
33 46 40 39 35 24 26 27 34 37 46 48 48 50 48 46 39 44 47 47 47 48 48 50 49 51 54 53 50 48 47 45 45 44 43 45 41 39 33 35 35 39 44 44 42
37 39 45 41 40 34 26 29 33 37 42 46 46 45 46 44 39 37 43 48 47 49 48 48 51 56 62 58 54 54 50 46 47 44 45 44 42 39 35 33 34 36 39 44 43
44 43 49 48 44 39 29 30 36 37 45 49 48 48 46 43 40 40 40 45 47 49 47 49 55 53 63 66 64 63 60 58 43 47 49 49 41 40 38 36 33 34 34 38 43
55 50 55 53 49 46 36 34 36 34 42 49 52 49 48 45 43 41 43 44 46 46 49 49 55 58 58 66 69 65 63 62 58 50 53 55 44 42 42 43 36 34 33 34 39
62 55 63 57 53 49 40 44 40 38 40 46 48 50 45 44 43 41 40 44 47 47 50 50 54 61 63 66 65 68 75 66 65 57 59 52 48 51 49 47 39 37 33 35 36
71 64 67 69 54 54 45 48 45 47 45 40 43 43 43 44 44 43 41 44 47 49 53 53 59 61 60 65 65 70 74 74 66 65 60 56 53 48 49 47 44 40 38 36 36
73 74 74 73 71 56 54 48 42 43 45 43 44 43 43 44 43 46 46 49 53 56 57 60 59 56 60 64 67 69 72 73 66 64 65 61 54 51 48 43 43 43 38 34 35
73 77 76 81 68 66 55 51 50 48 45 38 37 41 41 46 50 49 49 51 55 59 61 60 54 55 61 64 69 70 73 70 70 67 63 63 48 45 43 41 39 38 36 34 36
65 78 83 83 79 64 59 56 54 57 57 42 44 44 43 50 51 47 52 52 59 63 67 65 59 65 68 66 72 74 71 71 69 70 71 60 56 46 46 40 34 34 37 37 36
89 89 86 87 77 75 57 59 61 61 62 48 52 51 52 51 54 56 57 60 65 71 73 67 68 71 70 67 72 73 73 75 76 79 78 64 71 48 44 41 38 39 36 39 39
84 94 97 95 85 74 69 58 67 67 66 59 57 57 58 56 57 60 64 67 72 78 80 74 72 73 68 66 71 75 81 82 82 82 82 66 71 43 42 44 41 40 41 40 38
87 96 99 96 87 74 65 68 75 72 52 60 56 59 57 62 63 66 73 77 81 86 81 80 74 74 74 74 76 78 87 97 98 95 80 67 68 43 40 41 40 38 40 40 38
88 92 92 97 97 90 69 72 71 50 56 55 57 63 59 61 66 72 79 76 69 77 88 88 85 80 75 78 84 88 85 92 89 94 81 61 57 46 40 32 31 35 39 42 40
82 95 98 97 97 90 74 74 59 48 51 57 61 64 67 68 70 78 71 56 61 72 89 92 89 77 77 82 88 95 96 69 80 82 98 74 59 48 35 33 31 37 38 41 41
90 98 98 99 94 92 80 64 55 52 54 56 62 61 65 70 77 72 58 55 64 64 79 88 88 79 83 88 83 82 82 97 97 95 95 71 74 65 41 33 28 39 39 43 43
97 97 98 98 95 95 78 62 58 57 60 65 65 67 68 73 77 63 60 54 60 63 72 87 93 88 88 80 78 90 89 87 80 82 84 78 57 51 49 42 40 47 45 46 47
95 97 99 95 96 92 82 63 60 64 67 68 64 71 73 80 81 70 69 62 62 70 81 83 89 86 77 84 82 85 83 84 92 76 63 78 65 60 54 43 42 43 49 55 56
98 98 98 98 88 88 73 69 75 77 74 68 71 77 81 84 75 70 73 68 73 78 85 90 95 95 95 95 94 91 84 70 64 76 64 60 47 69 58 61 57 54 57 62 59
97 98 98 97 93 84 75 82 83 77 71 72 80 84 88 82 67 68 74 71 74 83 89 95 98 96 89 95 94 93 80 63 66 73 63 61 62 60 72 74 70 68 64 62 57
94 90 84 87 88 77 86 85 83 85 79 81 86 90 90 79 70 71 72 81 85 89 95 98 97 98 94 93 98 86 76 64 61 51 63 60 75 72 74 70 69 67 65 58 54
98 90 89 88 88 84 86 82 79 84 90 85 90 89 91 81 63 59 68 76 83 93 96 97 97 98 98 97 96 83 77 74 66 62 68 78 74 68 69 68 62 56 58 57 54
98 97 89 86 89 89 83 81 83 84 88 82 88 91 89 80 65 60 68 77 87 95 98 98 98 98 95 96 88 86 74 76 71 73 77 85 71 73 69 59 53 51 53 53 55

GFSSW_prec_cthk_006.txt.gz
RH
44 39 35 30 22 23 25 28 29 30 33 37 39 41 41 40 36 34 31 31 32 32 32 30 28 29 31 34 35 43 49 46 40 37 31 32 35 36 42 39 38 37 37 35 36
44 45 39 33 30 22 26 29 32 33 35 44 45 49 50 52 49 44 40 39 39 38 38 41 38 33 30 34 39 45 50 41 36 34 33 34 37 39 42 43 41 39 38 38 37
41 47 45 38 34 27 26 30 34 35 38 41 51 50 56 56 54 46 45 44 46 44 45 44 42 40 39 38 37 42 43 39 37 36 36 36 36 39 39 41 45 44 43 41 38
38 44 48 44 37 33 25 30 34 40 44 43 48 54 57 58 54 49 48 48 52 56 55 51 48 44 44 43 41 44 38 38 38 38 40 40 39 38 37 36 43 47 45 41 38
47 39 50 49 41 38 26 28 32 39 46 48 49 49 55 57 57 51 49 47 48 55 59 58 55 50 47 46 45 49 43 41 39 39 39 40 41 41 38 37 38 42 47 45 41
56 53 46 51 48 41 33 26 29 37 44 47 52 55 51 53 50 57 53 53 52 55 55 54 54 52 54 53 50 48 48 46 43 41 41 41 37 39 31 35 35 37 41 46 45
71 59 49 54 55 45 40 28 30 34 40 44 49 52 53 50 46 43 50 51 49 51 50 49 49 51 54 53 51 51 51 48 44 43 43 40 37 35 30 33 33 33 38 39 42
75 67 58 58 61 51 45 39 34 37 44 45 46 53 50 46 44 45 45 49 49 49 50 50 50 49 52 53 56 58 58 59 47 44 43 47 40 33 33 32 31 31 32 35 36
67 75 67 62 70 57 51 45 39 42 40 46 49 52 49 47 46 44 44 44 46 49 50 49 50 50 52 54 55 56 60 61 58 54 51 50 43 37 36 34 33 32 31 32 32
49 79 73 68 76 74 59 53 49 45 41 42 42 49 45 44 45 47 46 47 47 48 50 50 51 52 54 56 57 55 61 57 57 57 55 55 54 46 44 42 39 37 34 33 31
31 59 76 75 72 79 67 60 56 53 45 37 40 39 39 44 45 45 45 46 48 49 52 50 54 52 49 51 51 57 62 64 61 58 60 58 52 47 45 41 39 36 35 35 33
28 40 73 83 81 81 74 57 54 46 46 42 39 39 41 43 45 46 45 45 49 53 54 55 53 48 50 54 60 62 64 63 60 58 58 54 47 46 43 40 38 37 33 35 35
26 39 71 86 85 85 74 67 56 51 46 38 38 41 42 45 45 44 44 48 51 56 58 56 48 46 52 58 62 65 66 66 63 56 51 55 41 40 34 34 34 33 32 31 33
33 25 64 87 91 90 85 71 60 55 55 43 44 40 39 44 45 42 45 48 54 56 58 59 52 55 59 63 68 68 64 66 67 70 73 58 54 36 34 34 32 30 30 30 32
44 28 51 85 98 95 83 79 61 54 67 49 54 52 51 43 46 48 50 52 57 58 60 56 57 62 66 66 72 70 68 73 75 79 80 70 75 45 36 33 30 31 35 32 30
51 30 71 98 99 95 92 84 65 62 65 59 59 62 59 53 56 59 57 56 58 60 62 62 64 68 71 74 78 82 83 83 84 85 83 67 75 42 39 32 31 31 29 33 30
54 34 67 98 99 94 96 82 77 69 54 61 58 59 60 60 61 60 62 66 66 74 71 65 57 58 66 77 84 86 91 94 95 94 79 66 72 42 39 37 37 35 31 33 32
59 49 69 83 97 97 95 88 80 56 57 56 55 58 60 61 60 64 65 70 74 73 70 68 63 59 66 76 85 89 90 94 87 90 83 63 63 49 44 41 38 30 31 37 37
58 78 96 94 97 91 95 88 66 50 55 58 58 60 63 63 62 68 71 70 64 67 69 71 72 65 66 77 88 98 97 75 87 80 94 76 56 43 40 36 33 30 31 32 36
83 87 94 97 99 97 92 80 64 51 54 55 57 56 61 61 68 74 69 57 64 56 62 74 81 67 73 76 80 90 92 97 97 96 92 70 58 54 42 49 49 38 29 31 35
83 91 96 96 98 98 93 80 66 57 54 57 57 60 56 62 69 69 61 60 56 58 64 80 81 77 83 76 80 93 91 96 90 92 86 75 50 42 40 50 49 41 36 34 36
80 81 94 96 98 98 94 78 72 63 60 62 61 57 61 68 74 74 75 60 64 72 78 81 87 87 80 77 75 71 73 79 83 74 78 78 46 42 60 60 57 51 43 40 43
96 95 97 97 97 89 85 81 73 66 65 62 63 63 65 70 75 80 69 60 70 74 81 86 94 96 94 93 92 91 85 81 80 86 78 75 47 40 52 69 67 62 54 53 51
97 98 98 98 93 87 83 82 67 66 70 71 72 68 72 76 82 75 70 69 74 78 84 91 98 96 90 95 97 98 94 91 88 88 65 60 54 51 62 73 71 73 70 68 65
97 97 89 89 92 89 84 78 73 79 78 77 77 73 80 87 85 78 71 74 82 86 94 97 94 97 96 93 98 98 97 83 82 71 71 46 58 60 65 75 83 75 72 74 70
98 96 89 86 91 90 86 84 86 86 89 82 78 82 84 92 83 71 71 75 80 86 95 97 96 98 97 98 96 90 85 80 71 65 66 64 65 64 77 79 82 76 72 72 70
97 95 85 93 92 84 74 82 89 85 82 83 82 85 90 91 87 79 73 73 80 92 97 98 98 98 94 96 89 81 73 74 72 71 66 74 68 75 86 88 83 76 73 72 70

GFSSW_prec_cthk_009.txt.gz
RH
53 41 50 45 40 34 24 23 27 30 30 32 36 37 30 27 34 34 29 24 27 28 28 28 27 28 28 30 32 37 45 42 35 34 30 30 33 34 34 38 40 38 37 36 36
40 47 46 53 46 37 33 23 28 32 33 36 41 45 48 51 48 44 41 37 35 37 36 36 34 31 28 32 35 41 45 38 32 31 31 31 32 34 35 35 39 41 40 39 38
55 38 43 59 50 44 36 26 27 32 35 37 44 51 54 57 57 53 49 44 43 46 44 42 42 40 37 35 36 42 38 36 35 33 33 33 32 35 34 36 37 40 42 40 39
68 55 41 50 55 48 40 32 26 32 38 40 43 52 55 61 60 51 50 48 48 54 52 49 45 42 42 41 42 43 36 37 34 36 37 36 35 37 34 30 36 37 41 44 42
63 74 61 44 62 50 47 38 26 31 39 43 44 52 59 61 60 56 54 52 52 59 61 60 55 49 47 44 44 48 41 39 38 37 35 35 34 33 33 31 34 37 39 42 44
45 64 66 62 55 61 49 42 29 31 39 45 46 51 54 60 59 58 57 55 53 55 58 60 58 55 52 51 50 47 48 45 43 40 38 37 31 36 25 27 29 32 34 37 39
28 49 68 69 58 70 55 48 37 31 36 43 43 49 55 56 51 49 56 58 57 59 57 59 58 54 53 54 53 52 52 47 43 41 43 41 39 36 26 27 26 27 28 31 34
22 46 66 71 67 67 71 53 44 36 39 43 41 44 48 51 50 51 53 55 56 54 52 52 53 53 54 54 54 55 55 55 46 45 42 42 36 32 32 32 30 27 27 28 29
26 30 63 76 75 67 77 62 49 45 47 49 46 43 43 50 51 49 48 52 53 54 54 53 53 52 53 54 54 53 52 55 50 48 49 50 45 37 36 33 31 29 28 28 29
26 24 48 75 72 76 82 75 59 51 53 49 46 43 40 46 48 50 48 48 49 52 55 54 54 53 53 54 52 52 57 53 51 48 49 49 46 41 39 39 35 34 31 30 31
35 28 25 55 85 81 85 80 73 57 51 41 40 40 39 43 45 50 51 52 52 51 53 53 54 52 49 48 48 53 56 58 55 51 53 47 41 40 38 39 36 35 33 32 31
38 37 26 55 86 89 85 81 68 52 47 46 44 44 43 41 43 48 49 50 53 53 53 53 52 49 50 51 53 55 58 55 50 52 53 48 37 36 34 32 34 33 34 32 30
56 49 40 44 81 91 84 82 76 63 51 42 43 42 42 42 43 45 47 49 49 52 51 51 47 47 49 53 56 54 57 56 55 58 52 48 34 27 24 24 26 29 30 30 30
65 61 47 32 64 85 88 87 89 68 57 43 42 42 44 46 47 45 46 45 49 49 51 51 47 50 54 55 57 58 56 60 62 69 64 53 48 29 28 27 28 28 30 29 30
69 64 50 36 59 97 95 91 81 67 56 47 53 51 48 46 44 47 47 48 52 51 52 48 51 53 57 57 62 59 56 61 69 76 76 62 72 35 34 31 30 30 28 27 30
73 67 53 41 73 98 99 97 91 81 63 58 58 60 57 52 54 55 54 54 54 55 57 54 55 57 60 57 56 57 64 68 70 81 86 62 73 38 34 32 29 30 31 29 28
77 58 49 46 71 97 99 98 96 85 59 60 58 64 60 60 62 59 62 63 62 66 64 59 60 61 56 54 54 61 75 79 86 89 79 68 78 43 37 37 34 31 32 34 32
93 56 42 51 74 98 99 98 95 73 68 53 51 61 61 57 59 61 62 64 61 64 68 70 61 56 55 55 60 65 74 79 92 88 80 79 78 47 42 37 34 33 33 34 34
86 58 43 46 91 99 98 97 82 72 64 58 59 61 62 58 58 59 62 62 60 66 71 67 61 56 57 63 62 76 75 65 95 93 97 80 59 45 39 35 43 42 40 37 32
95 71 54 64 91 98 99 93 80 75 62 56 57 57 61 61 64 63 64 60 62 58 61 66 68 59 65 70 69 73 77 82 86 96 94 73 63 49 38 40 41 47 43 41 37
91 71 68 83 94 98 98 91 79 75 64 59 57 60 59 62 64 67 62 55 57 60 67 68 75 69 74 76 69 79 84 90 93 95 92 77 54 42 39 39 42 45 43 44 42
87 82 82 96 98 98 97 81 76 78 72 62 53 54 57 58 65 64 66 62 60 63 74 75 83 80 72 68 73 78 80 88 95 88 87 83 53 44 42 51 56 44 47 47 45
96 93 91 92 93 95 90 82 84 82 70 60 56 55 57 60 68 69 68 68 66 68 75 79 86 86 78 81 83 94 91 90 89 90 87 87 55 45 43 47 48 54 61 55 52
96 99 98 91 94 92 88 87 86 83 73 59 59 58 62 68 66 70 76 70 70 72 75 82 87 86 79 84 98 98 95 96 98 92 78 69 58 52 50 49 50 66 67 66 58
99 95 91 94 97 87 88 87 88 87 70 65 67 69 69 75 77 78 76 74 74 72 83 88 90 92 91 91 96 98 93 91 91 81 79 57 60 56 57 59 68 69 72 70 64
98 94 89 92 96 89 85 82 82 76 70 76 77 76 75 83 76 76 73 71 71 78 90 94 94 95 92 94 96 94 88 80 78 76 73 71 68 63 67 68 73 91 82 75 75
97 95 88 88 94 88 84 81 75 76 83 85 80 81 84 80 78 80 78 77 81 81 86 94 96 95 87 89 98 97 86 84 80 76 78 87 77 80 84 92 96 91 85 79 80

GFSSW_prec_cthk_012.txt.gz
RH
71 52 48 51 53 47 40 34 24 24 27 29 33 35 37 27 24 33 33 26 25 29 28 27 29 30 29 31 32 34 34 30 29 29 26 27 26 28 28 29 32 34 35 33 33
64 70 54 47 51 61 48 38 32 25 29 32 38 42 41 38 40 41 36 33 28 29 30 28 30 29 31 33 34 34 35 27 27 30 29 28 29 29 29 29 31 33 35 35 34
48 56 69 56 43 64 54 45 35 25 31 35 40 45 50 56 56 49 51 44 39 38 38 35 36 36 34 34 35 36 34 30 33 32 30 29 29 30 29 30 29 32 35 35 38
33 45 59 65 62 64 63 50 40 27 30 36 40 49 53 58 59 52 53 48 45 53 49 45 44 43 41 40 39 36 32 34 33 35 37 34 33 30 29 26 31 33 34 34 36
18 40 54 65 65 60 65 59 46 31 30 37 41 48 54 60 61 53 53 52 50 59 58 54 51 47 44 43 43 44 36 37 37 35 33 35 32 33 32 29 31 32 35 33 35
17 18 40 50 66 64 64 69 52 38 31 38 43 45 52 57 58 63 61 54 54 60 65 64 62 60 53 49 47 43 42 40 38 37 37 36 31 34 27 27 29 29 30 33 34
22 23 25 39 64 65 70 73 63 42 34 39 45 47 51 53 54 59 64 64 60 64 68 64 61 58 55 53 52 47 45 39 38 38 38 40 35 32 25 27 26 25 26 27 30
26 27 25 30 50 72 69 82 71 51 39 39 40 43 47 49 54 57 60 65 67 65 66 64 65 60 57 53 51 49 48 45 41 41 40 39 32 32 32 30 30 28 26 26 25
29 27 23 27 48 78 73 84 80 62 47 46 43 42 43 43 50 55 62 67 66 62 60 59 57 56 55 52 51 49 43 47 45 42 43 43 39 38 35 35 32 30 30 29 26
32 30 27 22 46 79 79 88 90 74 56 53 50 47 40 41 48 54 58 65 67 64 62 59 57 53 52 53 45 42 48 43 40 40 41 39 37 35 38 37 35 34 33 31 30
45 39 35 34 28 86 96 83 89 83 68 43 41 42 41 42 50 53 56 59 65 62 60 59 58 52 46 46 44 44 43 43 41 40 40 33 30 31 31 31 32 33 33 33 31
69 57 52 43 37 79 96 90 82 84 76 50 46 45 44 46 49 53 55 55 57 56 58 57 55 46 45 45 46 45 47 44 41 41 40 36 26 27 28 25 27 28 29 31 32
81 74 69 47 40 73 93 86 86 83 79 65 48 48 47 44 45 48 52 55 57 58 56 50 45 42 47 48 49 49 49 46 46 45 45 43 30 22 21 20 21 23 23 24 28
88 75 70 55 35 47 91 98 93 93 90 71 55 46 45 45 45 45 50 51 52 52 52 49 46 48 50 49 48 49 45 47 51 53 51 43 37 22 23 23 22 23 23 24 26
94 83 68 60 52 51 95 98 98 98 95 70 61 52 49 46 44 50 50 50 49 46 46 46 49 51 52 48 49 51 50 52 52 55 55 42 66 24 25 25 26 24 25 25 26
92 96 75 53 56 65 88 99 99 95 92 75 64 59 54 50 50 52 55 52 50 50 49 47 47 47 48 50 55 55 55 55 54 58 65 33 44 29 22 26 28 27 27 28 28
97 98 73 56 53 65 93 98 98 95 76 76 60 63 56 56 56 52 55 58 53 60 58 53 52 51 53 57 56 56 58 59 66 72 51 37 41 28 26 31 34 35 32 32 31
96 82 48 47 51 79 92 99 97 72 68 64 61 60 59 58 63 59 58 60 56 56 58 58 54 53 52 50 50 56 56 56 59 48 49 50 50 25 25 34 39 45 39 40 36
98 86 54 45 62 85 96 98 92 76 75 70 68 62 64 58 58 59 60 58 56 58 62 64 58 50 51 52 54 63 74 63 73 60 78 59 45 42 27 38 42 48 51 45 40
98 80 65 52 58 93 98 98 85 83 76 72 65 55 56 58 56 57 58 53 56 55 53 58 64 50 54 61 63 69 72 83 91 85 78 57 62 50 34 45 55 59 62 52 45
97 76 83 71 81 88 98 95 90 84 75 71 67 57 53 55 54 56 55 52 53 53 58 61 59 61 68 70 64 76 84 90 87 87 83 78 52 50 43 43 51 50 47 45 46
91 81 71 83 92 98 98 89 88 83 76 67 63 56 50 52 56 57 56 52 50 57 66 64 68 71 67 61 64 69 77 85 96 88 93 87 53 57 54 54 54 54 52 54 50
88 70 77 84 97 96 97 91 85 83 78 71 67 59 55 55 57 54 56 56 57 62 62 70 78 78 67 71 77 83 80 84 93 92 82 92 52 59 59 59 54 50 49 48 49
84 75 84 87 93 88 89 89 88 85 79 71 68 62 55 55 54 58 61 61 64 62 68 69 72 76 69 75 80 94 88 85 91 85 73 74 62 64 69 64 54 51 50 46 51
88 79 81 88 93 88 85 86 86 84 76 67 61 57 54 57 60 62 65 68 66 70 71 77 84 83 81 82 87 92 90 92 87 74 80 53 68 61 72 64 58 51 51 53 62
87 86 77 75 83 80 85 86 85 86 80 69 63 64 64 63 64 70 72 70 69 72 79 81 83 89 89 88 89 95 92 85 85 80 73 73 76 74 81 75 68 69 79 76 68
85 83 85 84 84 85 84 85 85 77 76 72 71 72 75 73 73 77 75 74 75 79 79 85 91 95 87 82 85 93 94 87 86 79 79 84 75 82 93 96 96 94 83 76 69

GFSSW_prec_cthk_015.txt.gz
RH
46 58 69 65 51 62 64 52 42 33 24 26 27 31 35 38 41 32 23 28 32 28 27 33 30 31 30 29 31 36 40 34 30 26 25 28 29 27 25 26 29 30 31 37 36
28 32 46 61 63 58 57 60 51 38 28 26 29 34 42 40 39 33 31 30 26 24 29 32 33 33 32 31 34 36 32 29 26 27 30 31 31 29 29 26 26 30 32 32 34
16 21 30 45 60 62 67 65 63 49 36 28 31 39 46 47 56 49 45 37 31 26 31 34 35 33 30 29 34 36 32 28 30 32 33 34 32 30 30 30 29 29 33 34 32
17 16 18 31 48 62 64 75 72 61 42 30 32 42 51 62 64 57 51 46 41 44 40 39 37 36 36 33 30 34 31 30 34 37 34 34 31 30 28 27 32 32 35 37 33
19 18 17 19 43 58 61 69 79 66 47 33 33 42 53 65 65 55 56 52 48 52 55 48 44 43 42 38 39 40 35 31 32 33 34 36 33 34 35 31 29 30 32 33 32
24 22 18 17 22 50 62 61 78 73 58 34 36 41 54 63 66 65 59 55 55 59 64 62 56 52 49 46 43 43 41 39 37 34 37 36 29 33 29 25 26 27 30 30 32
27 24 22 18 17 36 55 64 67 78 59 40 39 45 53 60 60 61 68 62 58 59 72 71 66 61 59 52 49 45 43 38 33 33 37 36 33 30 26 27 25 24 24 24 27
32 30 24 22 19 25 35 62 64 80 69 46 43 51 54 53 60 56 65 70 65 64 76 78 72 69 63 57 50 46 44 40 34 35 36 37 33 28 29 29 29 27 26 25 23
43 37 31 24 25 23 36 63 71 78 78 59 47 49 51 46 54 60 65 69 69 70 75 75 74 67 60 55 49 46 44 43 42 40 41 40 36 31 33 30 30 30 30 29 27
51 42 38 35 29 25 40 69 73 84 83 79 57 52 45 44 50 57 61 71 69 67 68 70 70 65 60 56 51 48 49 44 40 38 41 38 34 32 32 33 34 32 30 30 30
59 59 63 49 49 38 46 66 99 89 98 83 54 46 49 45 47 52 58 70 72 71 65 69 68 62 56 52 48 47 44 42 38 36 35 32 29 27 27 26 26 26 28 29 30
76 78 76 67 53 48 49 89 99 83 98 93 63 52 50 47 51 53 59 63 69 71 70 73 68 59 53 49 48 46 43 40 36 34 34 32 24 25 21 19 19 20 21 22 24
81 84 82 73 60 43 49 93 98 93 97 93 82 53 50 51 49 54 58 60 67 65 65 64 57 50 51 49 47 43 42 41 42 39 36 35 26 21 20 19 18 18 19 20 21
81 85 92 75 56 53 67 92 98 91 92 96 83 56 51 50 50 52 56 62 62 62 62 61 54 50 45 46 44 43 40 41 42 45 45 38 32 20 16 16 16 17 18 17 18
79 83 91 81 64 59 77 90 97 97 97 93 90 68 53 48 50 51 53 57 58 57 59 56 50 48 47 41 44 45 44 45 45 50 48 37 51 23 18 16 17 19 20 21 22
91 98 96 85 61 52 75 98 99 99 94 92 85 75 53 51 51 54 54 52 53 52 52 48 48 44 44 43 44 46 47 50 52 59 60 36 43 24 20 18 20 20 19 21 24
94 95 82 78 62 67 89 96 98 98 81 90 80 76 60 53 56 54 57 56 52 61 56 49 46 44 43 47 49 53 59 59 67 71 51 33 43 29 20 26 26 26 26 28 28
91 96 72 62 55 72 92 90 97 83 73 76 83 72 64 55 54 55 56 56 50 48 50 56 58 48 51 51 51 53 54 52 50 42 38 39 44 31 30 27 32 33 30 28 29
91 90 66 52 53 72 87 90 98 80 71 77 73 69 69 61 58 54 52 52 47 49 56 54 55 48 50 46 49 60 62 53 64 57 65 44 40 36 33 37 41 39 37 34 37
91 88 73 58 55 70 76 97 93 80 71 73 71 63 65 60 62 58 55 51 52 51 51 55 59 48 50 53 53 55 60 76 83 78 64 44 44 45 47 47 52 42 43 48 47
84 98 75 66 77 87 92 98 89 84 82 74 65 61 56 56 58 59 57 54 52 53 53 53 53 57 57 56 53 67 72 82 77 83 82 70 41 48 49 52 51 50 52 61 65
88 89 68 53 95 96 98 98 88 87 84 81 72 58 53 52 54 53 55 50 49 51 54 55 58 62 57 56 61 63 68 75 90 80 86 81 54 48 52 61 63 55 57 50 54
78 63 64 82 88 88 97 95 90 91 88 81 72 64 53 52 55 51 51 51 48 52 56 62 64 69 71 68 65 67 71 76 85 91 84 93 56 57 59 61 60 60 53 48 53
67 67 71 87 87 84 96 88 92 90 85 78 70 64 57 55 52 53 54 54 53 56 64 63 65 71 65 70 71 88 84 86 94 96 79 67 63 54 70 73 77 72 64 55 54
65 75 79 84 86 92 90 87 90 87 82 74 71 67 62 56 54 54 55 57 61 64 63 67 83 76 75 76 82 87 87 88 96 92 90 60 73 64 74 79 86 79 66 54 54
71 75 76 75 74 80 83 85 87 86 77 70 64 60 62 60 61 61 59 62 63 64 69 79 83 84 86 80 84 87 82 85 88 86 85 87 87 84 83 82 79 77 69 61 61
72 70 77 78 76 76 78 80 83 78 76 69 64 62 63 64 64 63 65 67 69 71 78 83 89 93 85 77 79 87 90 90 87 86 88 93 90 85 89 92 89 87 88 80 74

GFSSW_prec_cthk_018.txt.gz
RH
19 21 29 36 47 58 58 73 65 55 44 32 25 29 31 33 34 32 30 23 25 33 27 31 29 28 28 28 29 31 39 36 30 30 25 25 29 35 31 28 26 28 28 35 42
18 18 17 25 28 42 51 65 71 63 55 38 27 29 34 41 42 42 36 30 32 30 28 32 31 32 33 29 32 35 38 34 28 29 28 30 32 32 32 29 25 28 29 32 34
20 20 19 19 24 32 43 52 69 70 69 52 29 31 40 46 50 39 37 33 34 29 24 32 35 35 35 34 36 34 33 28 23 28 28 31 33 31 34 33 28 25 28 31 31
25 24 21 19 19 23 30 50 52 74 76 63 35 33 47 51 61 53 50 47 41 34 31 33 37 38 35 35 36 36 34 30 25 29 35 32 33 34 31 32 30 32 29 36 33
29 30 26 23 20 19 24 42 48 57 90 66 42 36 48 58 61 57 57 55 54 55 42 40 37 36 37 34 34 36 34 31 29 27 32 33 33 32 31 32 26 26 29 31 36
32 32 32 31 26 20 19 38 59 55 75 78 49 41 47 59 63 65 65 58 60 64 59 54 47 43 45 43 45 43 39 38 33 31 30 30 28 29 27 22 28 28 27 27 30
41 39 35 34 34 31 22 33 51 63 71 82 65 46 49 53 59 62 65 63 64 69 65 66 63 53 48 49 49 47 46 42 36 30 31 32 33 32 25 24 24 24 24 23 24
50 52 52 37 32 27 25 27 48 70 68 87 78 57 53 48 54 58 65 68 61 73 75 80 72 67 60 55 52 47 47 46 31 30 30 35 35 27 29 28 26 25 25 23 22
62 59 60 47 39 33 29 26 42 64 74 83 83 59 57 45 50 56 59 67 73 73 86 88 80 72 65 58 56 51 50 47 42 37 35 36 36 31 34 29 29 30 29 26 23
61 63 62 59 51 44 40 35 40 63 79 98 81 71 50 44 43 52 59 70 75 78 81 85 79 72 64 63 60 52 54 49 45 44 39 38 37 34 33 32 31 30 29 28 27
77 73 75 79 70 57 56 39 43 64 85 76 70 70 47 43 43 49 59 70 75 81 78 76 74 69 63 60 57 54 54 52 48 42 39 36 33 31 28 26 23 25 25 26 26
80 82 83 85 75 66 58 48 72 80 89 86 89 76 56 46 46 49 56 63 72 79 76 76 74 66 62 58 56 55 55 54 47 40 37 34 29 26 21 18 19 19 20 20 21
79 80 80 90 81 65 55 54 75 92 84 90 86 83 60 48 48 49 53 60 70 77 80 76 70 64 62 59 55 54 52 49 45 40 35 32 27 22 18 18 18 17 17 16 17
77 82 86 92 84 77 53 84 98 93 89 93 97 88 63 54 51 56 59 61 71 76 76 77 69 62 57 58 50 50 45 45 43 43 45 36 45 22 17 15 16 15 16 16 16
76 79 93 98 81 67 54 97 98 98 99 89 96 89 66 56 53 58 61 65 67 68 70 68 64 62 60 49 45 46 45 44 44 46 48 39 48 23 16 17 15 18 18 19 19
75 85 91 99 87 56 58 90 98 98 97 94 95 91 74 57 56 56 61 61 63 65 65 65 57 53 50 44 43 46 46 46 47 50 59 42 38 20 19 19 19 22 22 22 21
87 94 87 83 77 58 76 94 98 98 90 92 87 81 72 56 58 57 58 58 59 69 68 59 53 48 44 44 45 49 52 65 69 68 56 35 38 22 20 23 26 29 27 26 28
97 90 78 74 71 63 75 98 96 96 88 75 79 87 74 56 58 59 58 58 54 51 56 58 57 46 44 44 49 54 57 63 61 61 50 40 42 28 25 25 29 31 31 30 30
97 87 73 78 63 63 78 90 98 96 82 80 84 88 81 63 54 59 59 56 51 48 57 58 57 48 49 49 53 60 63 49 61 50 60 44 32 28 31 31 28 30 33 32 33
88 85 74 79 64 77 89 92 99 86 80 74 80 76 76 66 57 59 58 51 49 47 48 55 60 50 53 51 51 55 50 66 70 76 65 44 41 43 42 43 41 37 39 42 38
83 88 67 67 82 86 92 98 97 87 82 79 65 68 60 59 59 58 53 50 50 50 51 54 55 60 59 58 54 58 61 64 71 75 81 68 52 44 49 50 48 43 41 46 52
81 66 74 82 83 90 96 98 94 87 78 72 67 60 60 56 62 61 59 58 53 56 57 58 60 68 62 52 54 59 66 68 79 75 79 80 59 49 55 56 56 56 55 51 58
49 60 81 85 93 91 98 91 85 83 82 72 66 60 53 57 62 59 59 54 55 55 55 56 64 70 72 65 64 66 66 69 77 81 84 89 59 53 58 66 70 71 69 67 64
56 72 80 88 91 92 96 92 96 89 84 78 73 64 57 58 58 58 57 56 51 53 54 57 63 66 71 73 71 83 77 77 81 90 80 75 63 64 70 79 83 82 82 80 80
69 72 74 78 80 84 90 94 89 82 80 75 73 68 60 60 57 57 56 57 55 56 60 63 73 71 73 68 70 75 80 84 91 89 91 76 84 81 89 92 92 91 90 88 86
61 69 66 65 69 74 77 87 86 80 79 72 68 68 68 62 61 58 55 57 59 64 63 63 81 82 81 77 77 84 82 79 82 88 87 92 91 92 86 84 88 89 85 78 72
60 64 68 60 65 68 69 73 77 75 75 70 66 63 68 69 67 64 62 62 64 67 69 80 86 92 88 75 77 85 82 88 87 86 87 92 93 92 82 79 79 87 89 73 69

GFSSW_prec_cthk_021.txt.gz
RH
23 22 22 26 27 37 42 50 55 74 70 57 48 26 27 29 32 32 30 22 22 27 29 31 28 26 27 27 30 31 41 38 30 27 23 21 27 31 32 31 28 28 27 36 42
31 30 29 24 21 21 29 41 46 54 75 68 56 34 27 33 39 36 29 31 28 24 30 34 30 29 30 26 30 34 39 36 28 25 25 26 28 32 32 29 27 30 29 33 35
31 32 31 32 31 22 24 31 42 49 63 76 63 42 30 40 42 34 35 37 34 31 29 32 36 35 33 29 30 32 36 31 28 28 31 31 29 31 33 31 26 27 29 30 31
37 41 37 34 32 32 28 26 35 49 53 82 78 51 36 45 45 46 43 38 36 34 32 33 39 41 38 36 31 34 32 31 27 27 33 32 29 31 32 31 29 25 29 31 32
49 46 40 40 36 33 33 29 28 42 60 68 84 67 48 47 43 54 57 52 51 41 31 32 39 40 40 34 34 36 34 35 31 29 32 30 29 28 29 31 26 25 27 30 32
63 59 50 43 41 39 35 28 29 42 64 68 82 79 52 56 46 54 56 62 66 56 46 41 37 37 39 38 39 37 36 36 34 32 31 32 29 28 25 25 26 25 25 27 31
67 69 64 58 51 48 35 29 23 35 61 71 79 85 63 45 55 55 66 60 61 64 59 57 57 47 44 43 44 44 43 40 34 29 30 29 29 28 22 18 19 19 21 23 28
71 70 63 61 56 48 39 33 24 30 67 76 80 83 69 44 51 56 61 62 65 65 70 73 68 57 52 49 45 45 46 48 32 31 30 33 33 26 24 26 25 23 21 19 20
72 65 71 67 65 54 44 34 29 29 71 83 84 73 74 54 48 55 60 67 65 65 81 77 82 73 66 59 55 50 52 48 43 35 36 37 36 28 28 28 27 26 24 22 20
63 71 70 68 73 70 53 47 33 31 67 85 86 85 75 60 56 53 58 65 73 74 76 89 91 84 78 68 65 55 54 47 45 41 43 42 41 33 31 30 27 26 25 25 25
68 77 77 75 77 72 62 51 37 39 83 89 72 73 68 58 57 55 58 66 74 74 76 89 85 94 86 75 64 59 55 51 47 43 40 37 36 32 28 27 26 25 25 24 24
68 79 85 81 80 78 67 60 48 59 96 93 89 80 76 60 58 57 61 65 68 76 72 75 82 87 76 70 67 62 57 54 49 46 43 39 33 29 26 21 20 19 19 19 19
57 66 73 84 88 84 75 62 55 68 98 97 88 91 75 62 52 60 57 60 68 73 71 76 70 69 73 70 66 64 61 58 54 46 41 37 28 22 19 19 19 18 16 16 16
60 71 78 82 96 85 71 59 73 87 97 85 85 79 80 67 57 59 62 60 64 69 73 74 71 69 71 70 68 65 56 52 49 47 48 38 48 26 19 18 17 16 15 15 14
71 88 93 91 91 92 63 84 89 94 98 99 83 87 82 71 55 62 63 58 61 63 67 73 72 73 73 68 65 62 53 49 47 47 47 40 45 28 20 17 15 16 17 17 17
78 89 92 89 91 78 65 91 94 97 97 98 86 85 79 72 58 63 66 57 58 61 67 68 68 74 73 66 59 54 51 47 45 48 56 40 37 28 21 18 17 18 18 18 20
82 92 82 78 81 58 81 78 92 97 93 85 84 86 83 74 64 63 60 60 63 69 74 71 71 65 63 60 54 52 50 60 60 62 54 37 43 28 20 21 22 23 23 23 24
80 75 83 68 71 63 79 85 97 97 86 79 82 84 79 71 71 62 60 61 58 58 69 74 73 64 56 53 51 52 48 59 64 65 56 40 42 29 22 24 28 29 29 29 28
64 72 72 64 65 73 93 96 96 98 87 80 87 84 84 73 60 61 58 54 54 52 58 64 61 53 52 48 49 54 60 53 60 53 62 43 32 25 27 31 36 38 39 39 37
53 62 70 81 84 92 97 97 99 91 86 80 84 74 76 72 58 57 57 51 50 48 51 54 60 53 55 53 52 53 49 61 63 68 67 50 43 39 39 41 43 45 47 48 45
48 68 78 87 91 92 97 99 97 88 85 79 76 78 75 72 60 56 56 50 52 49 52 52 55 63 60 59 55 57 60 57 59 67 74 74 55 46 47 47 49 51 54 59 62
55 73 81 79 85 92 98 99 95 91 80 74 68 69 75 72 65 52 55 51 50 52 53 55 61 70 61 54 52 52 57 62 71 66 72 79 59 49 50 52 54 59 69 75 77
63 74 74 79 85 96 92 86 89 84 80 74 68 66 63 59 58 56 58 54 54 57 58 58 64 68 64 59 56 63 66 67 69 75 75 85 58 53 56 64 72 77 81 89 86
62 68 71 76 80 86 86 88 84 79 77 70 67 59 63 62 60 64 64 59 59 59 56 55 62 64 65 65 68 75 71 73 79 86 73 72 63 63 68 75 83 81 81 87 90
59 63 67 72 75 78 78 77 74 73 70 70 67 65 58 60 58 61 59 58 56 58 56 58 69 68 63 65 70 71 75 78 82 80 89 68 77 73 81 87 87 78 79 80 78
54 60 62 65 68 73 73 72 70 69 70 69 70 66 64 59 58 56 55 56 55 56 61 65 71 77 77 73 78 85 81 80 82 83 85 84 82 81 87 90 89 73 76 78 76
53 58 62 61 62 64 64 67 65 66 65 65 62 63 73 66 59 58 55 55 57 62 65 69 77 85 88 81 83 89 83 82 84 86 85 90 82 83 86 92 94 78 78 78 74

GFSSW_prec_cthk_024.txt.gz
RH
31 32 32 30 30 26 32 41 45 50 66 83 77 62 44 30 31 31 29 19 21 24 27 29 29 34 37 39 38 36 41 39 30 26 22 18 22 27 28 28 26 25 25 23 26
37 36 36 34 32 32 32 28 39 48 51 65 89 75 53 38 35 36 25 27 25 27 27 30 30 31 35 34 37 39 42 36 28 25 25 21 23 29 30 28 27 27 25 29 32
44 47 48 44 43 35 33 33 28 33 50 54 80 83 63 45 43 31 29 30 30 31 28 30 35 34 34 32 34 37 38 31 28 26 27 25 25 28 34 31 28 28 27 29 31
50 62 60 50 48 47 39 34 34 25 42 53 63 85 74 53 50 37 37 36 37 37 30 33 38 39 36 36 30 34 32 31 27 24 25 29 29 28 30 30 28 27 28 32 33
56 67 71 66 62 52 43 38 32 26 31 52 62 83 80 58 46 54 45 44 44 41 34 33 38 38 38 34 33 34 32 31 26 25 27 29 31 29 28 30 29 28 29 29 29
58 66 69 67 65 66 59 45 37 27 27 51 64 89 75 67 46 56 59 57 50 42 38 35 39 38 37 35 36 37 33 33 30 30 30 29 29 30 26 28 28 27 28 28 28
59 65 73 65 65 65 60 48 38 31 24 39 72 80 68 81 60 58 63 66 67 65 47 36 44 45 38 38 39 40 41 39 33 30 31 30 27 28 24 23 25 28 26 26 25
56 58 63 67 67 65 61 48 35 27 21 45 81 99 75 80 69 70 63 68 73 74 66 47 51 48 42 44 44 43 45 46 34 33 30 32 29 23 20 21 21 20 22 23 23
55 60 70 73 65 64 66 51 39 28 24 53 80 90 78 79 67 68 67 70 73 71 71 69 71 64 55 49 50 48 51 47 39 32 32 37 35 24 24 25 25 23 21 19 18
61 63 71 73 73 72 63 56 43 29 26 52 93 90 71 71 64 69 74 71 72 71 85 88 83 77 68 62 61 50 51 45 43 40 39 37 39 30 29 28 27 25 22 22 20
65 66 74 80 80 75 72 56 51 33 41 71 81 83 74 78 62 68 76 75 80 83 89 93 92 85 80 72 62 58 54 53 45 42 41 38 36 32 27 28 27 24 22 22 22
64 59 67 74 80 89 80 59 54 49 66 86 88 88 73 76 69 69 71 71 82 90 85 85 93 91 93 89 78 68 59 56 49 47 45 40 34 30 28 25 25 23 22 21 22
71 75 76 87 90 95 80 64 53 49 73 98 96 93 86 72 65 75 73 75 81 82 77 82 75 81 85 83 79 70 62 58 56 52 47 42 30 27 22 19 18 17 16 16 16
80 84 89 93 90 98 75 64 51 54 94 88 91 86 81 75 65 73 76 71 79 79 74 76 70 72 78 78 74 66 59 56 55 52 56 44 48 29 21 17 16 16 16 16 16
98 89 90 96 85 98 69 53 55 85 97 98 97 85 92 70 62 79 75 66 70 74 72 77 71 68 71 69 66 65 59 56 53 54 50 44 50 30 23 19 16 15 15 15 16
95 93 92 87 84 90 55 59 68 96 97 98 95 93 89 74 68 73 73 62 67 69 68 67 67 69 68 67 64 63 61 58 56 53 56 40 42 32 21 19 17 17 17 17 17
77 81 79 78 80 60 61 73 91 97 98 95 85 85 81 80 72 73 67 65 67 73 78 66 67 67 68 70 65 60 61 62 58 64 50 39 45 34 24 21 21 21 22 22 22
63 72 64 59 65 75 72 90 94 98 93 78 75 77 86 81 72 70 68 67 61 60 68 72 73 69 66 66 63 59 55 55 50 62 55 41 45 29 24 25 27 27 28 29 29
61 62 67 66 82 87 88 93 95 96 92 85 81 86 85 78 73 68 66 63 62 58 66 71 68 63 61 58 53 57 58 49 56 56 62 46 35 24 29 33 35 35 35 36 37
67 74 73 74 85 89 89 92 91 85 77 74 78 82 82 78 75 65 63 55 55 55 53 54 64 57 55 51 51 51 51 62 63 65 62 49 45 42 43 45 45 43 43 44 46
64 70 77 81 83 91 92 93 94 82 75 70 75 75 72 71 65 59 57 51 47 48 49 49 52 57 53 55 55 58 62 56 56 61 70 71 54 45 46 47 48 50 52 55 60
51 55 63 73 80 85 87 85 84 83 77 73 70 69 69 72 59 54 55 51 49 47 50 49 53 62 59 54 54 55 57 56 67 63 77 78 61 48 48 52 58 61 66 73 73
54 60 59 59 70 77 82 81 76 71 66 63 62 66 71 72 65 52 52 50 50 51 50 48 55 64 59 57 55 58 57 62 67 73 83 85 60 51 54 58 66 69 76 76 69
51 57 59 66 65 67 71 76 71 67 65 56 60 62 65 60 54 55 55 54 54 54 53 53 59 57 63 60 61 66 68 70 75 86 78 76 57 56 60 63 69 76 75 66 67
47 56 62 65 63 66 68 66 66 67 65 60 61 60 62 60 60 63 59 58 58 56 55 54 60 65 64 63 67 69 71 75 79 73 80 67 72 66 69 72 77 82 69 65 70
46 52 55 60 61 63 61 62 65 65 63 64 63 62 59 63 58 60 57 57 57 58 57 59 69 66 69 67 71 77 77 79 77 75 75 72 72 69 74 78 81 80 70 68 71
46 51 56 54 56 57 57 58 59 60 62 63 63 67 67 63 58 56 53 52 54 56 61 65 68 74 77 76 81 84 80 80 77 77 78 83 72 72 76 77 83 84 70 70 70

GFSSW_prec_cthk_027.txt.gz
RH
43 43 43 45 42 41 34 32 29 39 46 49 74 90 70 57 44 38 29 23 23 25 24 29 35 42 45 46 46 45 48 47 35 30 23 21 21 22 24 27 26 25 23 23 24
40 41 48 48 48 49 46 38 31 31 42 50 58 93 87 68 50 45 26 25 24 30 32 28 30 39 43 41 44 46 50 45 36 27 25 23 24 23 24 26 24 24 25 25 29
41 47 47 62 61 59 58 49 42 27 27 45 52 67 92 81 60 41 29 27 29 31 34 34 32 36 38 38 40 43 44 38 33 29 29 26 25 25 25 27 25 26 30 32 34
41 46 60 61 70 70 68 61 46 39 27 28 53 64 84 84 69 49 38 30 32 35 37 41 39 36 38 37 36 39 39 35 31 29 29 28 27 26 23 24 27 27 33 37 37
52 56 58 61 68 75 74 68 56 46 35 25 39 67 86 78 69 62 56 37 40 42 38 43 41 36 36 35 33 36 36 33 30 28 28 27 26 25 22 22 28 28 29 32 35
57 62 58 56 59 63 63 69 64 48 40 29 38 66 71 73 84 59 67 54 46 50 46 44 43 38 35 33 35 34 31 31 30 28 27 26 25 26 22 22 23 27 29 30 30
64 69 59 54 60 65 66 64 60 49 41 31 37 61 90 86 77 64 67 66 64 58 45 40 41 44 40 36 36 35 37 34 28 27 29 28 26 26 23 22 23 24 26 28 27
66 62 62 65 65 64 66 67 59 51 39 32 46 71 85 94 79 71 71 80 79 67 48 45 49 50 44 41 41 42 41 44 33 31 29 30 28 25 22 21 21 21 22 23 25
74 71 72 72 69 73 70 67 58 52 38 32 50 72 84 81 81 76 79 89 95 92 82 50 57 58 49 49 50 48 50 45 36 32 33 36 35 24 23 22 21 18 16 17 19
75 77 72 74 81 82 72 75 54 47 36 31 60 69 70 77 84 81 79 86 93 93 93 78 71 70 57 55 54 51 46 42 40 34 36 36 37 26 28 27 27 24 20 18 18
79 68 67 68 73 81 82 80 58 50 40 39 70 88 93 93 75 85 81 79 82 92 87 89 86 74 64 59 51 47 50 48 41 36 36 35 36 28 26 27 26 25 23 21 19
76 78 79 77 82 89 90 79 60 57 39 65 79 97 91 85 82 84 82 84 90 90 88 93 88 80 77 71 67 61 59 55 48 43 41 37 34 28 25 25 26 26 24 22 22
92 90 83 82 91 91 93 68 55 46 55 76 79 83 87 81 74 82 84 88 87 91 88 96 93 96 94 87 79 71 66 61 55 50 46 42 34 28 24 23 21 20 19 18 19
93 99 91 87 85 94 95 61 51 50 63 87 93 97 89 83 67 76 84 85 89 95 91 88 88 92 94 92 83 79 69 63 58 54 56 46 52 33 25 21 18 16 17 17 17
66 75 91 84 84 93 76 56 51 70 91 94 83 85 78 75 66 80 85 80 87 93 86 90 82 85 93 86 83 78 71 64 58 56 52 47 51 33 23 20 17 16 15 16 16
58 63 68 67 72 72 51 52 72 96 97 92 93 95 86 75 71 83 89 81 91 90 82 77 72 76 73 73 73 69 66 62 60 54 59 43 45 33 22 20 19 19 17 17 16
56 51 55 54 43 45 47 70 94 96 94 97 93 83 83 77 73 84 83 77 83 86 90 76 72 69 68 69 67 64 64 64 54 61 52 43 47 30 23 23 23 21 21 22 22
64 61 47 39 41 52 72 84 94 89 88 89 80 81 89 78 77 84 83 72 67 66 75 73 76 67 67 69 71 68 65 61 44 58 54 44 47 30 25 24 24 26 27 27 27
44 52 64 61 62 70 78 94 92 98 91 91 85 92 89 80 78 84 70 66 60 59 66 68 68 66 66 68 66 69 69 57 58 55 58 45 36 24 25 30 34 35 34 34 34
50 53 58 62 62 70 74 82 85 86 81 75 76 74 81 84 76 82 67 61 60 60 62 64 72 67 69 67 65 62 54 59 58 49 56 46 45 38 34 38 42 44 43 43 44
53 55 65 63 66 71 75 76 76 70 61 59 73 74 77 74 67 63 62 52 53 58 59 56 61 66 64 62 60 57 58 55 55 58 61 63 46 43 43 46 47 49 51 53 56
50 55 59 65 66 70 72 73 68 66 65 65 67 69 72 72 66 56 56 53 48 54 57 55 58 65 60 56 54 53 55 54 59 57 68 70 61 50 50 51 53 58 59 63 65
49 53 55 59 67 69 70 68 66 64 66 64 64 65 66 68 60 51 49 44 50 48 53 52 55 62 59 57 56 56 54 55 57 63 71 75 65 52 54 58 64 65 66 69 64
49 54 53 58 65 68 72 69 66 63 59 59 60 64 68 66 58 54 52 51 49 51 52 50 54 56 60 57 58 60 57 60 66 78 76 71 64 60 63 63 65 67 72 67 56
44 54 59 61 58 62 65 65 67 67 59 56 63 62 66 65 60 57 53 53 54 54 55 54 61 63 60 59 60 61 63 67 73 73 80 64 66 62 63 65 69 74 75 63 55
41 48 57 61 61 60 60 62 63 63 64 59 60 61 63 62 60 61 58 57 56 56 56 58 68 65 64 57 61 68 65 70 74 77 74 73 71 63 65 71 72 76 74 63 59
46 45 50 56 60 60 59 59 59 60 62 62 62 65 66 65 59 56 55 56 55 56 59 61 66 68 67 66 73 80 74 75 77 73 72 76 68 69 71 70 73 76 77 69 63

GFSSW_prec_cthk_030.txt.gz
RH
43 42 39 46 48 50 48 45 44 36 32 34 55 64 78 87 73 54 42 30 26 29 28 32 47 55 53 52 46 40 45 44 36 35 31 27 25 24 25 26 28 28 25 25 26
42 41 42 47 49 54 56 59 56 49 34 33 41 64 70 85 85 61 41 35 27 34 34 31 41 51 54 50 53 49 48 41 33 32 32 29 27 25 23 24 27 26 27 26 27
49 48 53 52 58 67 72 77 70 64 49 31 35 59 68 85 87 63 54 38 31 36 41 33 41 46 51 48 47 50 48 44 39 38 36 32 30 27 25 21 20 23 27 30 29
49 55 56 62 65 67 68 66 77 72 65 45 34 54 66 86 90 80 57 41 39 41 41 40 37 46 47 47 45 45 45 43 41 42 39 33 30 28 25 20 21 24 27 34 36
52 58 64 75 66 67 61 59 63 74 76 53 36 45 70 87 94 88 73 52 46 46 44 47 42 42 44 43 42 43 42 39 37 37 36 33 29 27 22 20 20 23 27 36 40
61 68 73 82 63 57 62 65 68 69 75 63 46 36 68 72 73 86 84 58 50 48 44 48 48 41 40 38 39 39 40 37 35 35 33 30 27 26 22 19 18 19 26 30 38
73 78 74 69 71 70 69 68 69 73 66 62 47 39 63 71 81 86 73 66 56 49 49 46 47 43 40 39 36 37 36 32 30 32 32 29 26 26 20 20 18 17 20 27 29
81 84 86 75 75 78 77 75 73 70 64 58 46 41 60 67 67 78 77 81 72 67 55 52 49 50 44 42 41 40 39 42 33 30 28 27 28 25 24 21 20 18 18 20 24
82 94 88 82 76 82 83 79 73 66 63 56 42 54 65 53 68 83 78 86 86 92 80 63 54 54 51 48 50 47 50 44 37 33 33 33 34 27 24 24 24 20 18 17 18
87 87 78 70 71 76 76 82 79 61 54 49 44 71 65 73 93 83 91 91 93 92 83 73 58 64 57 52 53 49 47 42 40 32 33 35 37 27 24 23 24 23 20 18 17
97 92 78 72 73 81 85 86 76 60 57 46 47 75 80 94 96 92 98 99 99 98 88 78 70 61 57 55 49 49 48 45 38 35 35 34 34 26 24 25 24 23 21 19 18
85 93 95 84 86 88 90 91 67 63 49 58 58 69 75 84 91 86 93 98 95 98 95 94 86 69 68 58 54 53 53 49 44 40 39 36 35 26 22 22 22 22 21 20 20
68 82 90 88 87 87 92 76 57 53 51 78 71 79 71 71 85 91 88 90 94 94 96 93 88 89 74 71 69 63 60 54 52 49 44 40 33 27 21 20 20 19 18 18 18
57 69 88 80 86 87 76 53 49 62 86 83 95 86 95 92 87 91 92 90 94 96 95 96 91 88 89 84 74 71 64 61 57 54 54 44 48 32 25 22 19 18 16 16 18
50 56 60 70 71 71 50 44 59 88 96 95 95 90 89 84 83 93 93 88 91 92 97 93 98 98 96 96 87 80 72 68 66 61 54 49 51 31 24 21 20 20 19 19 18
46 49 47 51 50 41 40 55 83 91 95 94 90 89 79 75 71 88 94 94 93 93 92 88 90 91 93 93 90 85 77 76 74 67 62 46 47 31 22 22 22 22 21 21 20
47 48 48 41 41 39 54 62 75 84 94 94 91 79 78 76 69 79 88 88 96 97 97 87 86 81 83 86 85 77 79 81 62 64 56 49 47 30 25 24 23 23 23 22 22
56 50 57 56 71 81 72 73 87 81 82 83 84 78 75 77 78 83 86 87 82 88 91 87 84 74 75 75 73 69 67 69 50 56 53 49 48 31 27 23 23 24 26 26 27
52 56 60 66 65 67 70 77 86 86 80 79 81 82 82 74 76 84 89 81 78 74 74 77 76 68 65 65 64 69 72 66 68 64 62 44 34 24 26 27 28 29 31 33 35
49 51 55 60 63 65 71 73 77 72 69 67 73 76 79 76 75 79 78 68 63 62 58 62 70 64 64 64 65 65 66 70 66 52 50 41 42 34 31 32 36 38 42 46 47
52 55 62 59 59 62 69 73 70 66 68 66 69 71 73 76 68 73 67 60 54 56 55 60 61 69 66 70 72 72 72 63 56 56 56 53 35 36 38 41 45 50 52 53 52
53 60 60 62 65 62 66 68 61 61 61 63 66 67 73 67 63 66 65 56 51 50 60 58 66 71 66 64 63 59 58 54 56 55 64 62 51 45 47 51 52 52 53 55 57
47 54 58 58 69 70 66 65 66 65 66 65 65 64 69 69 63 54 54 50 47 51 57 57 62 67 63 59 58 59 57 56 54 56 63 65 55 51 52 54 56 55 56 56 55
46 54 54 58 66 68 71 70 67 64 61 61 60 65 66 67 59 53 50 50 48 51 55 55 58 56 58 56 59 62 58 57 58 67 65 68 64 56 57 57 55 56 61 63 58
39 52 58 61 59 62 65 68 66 66 63 63 65 64 67 70 64 58 52 53 54 54 57 58 62 60 58 58 60 59 59 60 63 64 74 66 69 62 59 60 58 61 62 64 63
43 43 53 60 60 58 58 63 66 65 66 58 60 65 66 64 60 61 53 53 56 58 60 60 69 68 65 58 60 63 61 65 69 72 74 71 69 61 61 60 62 63 68 69 67
42 49 47 52 57 57 59 60 64 64 63 64 62 66 69 69 63 60 59 59 58 59 61 62 68 68 67 62 63 69 67 68 71 73 71 75 63 61 63 64 63 70 71 72 70

GFSSW_prec_cthk_033.txt.gz
RH
49 45 42 48 48 45 51 60 55 55 48 42 28 38 54 62 70 69 63 42 36 35 33 32 48 62 59 57 49 44 48 47 41 37 33 32 31 27 25 26 29 31 29 28 29
42 44 47 53 53 55 54 63 64 65 61 50 40 26 47 70 77 64 71 61 40 43 38 33 43 58 63 60 56 49 46 40 35 34 32 32 32 29 26 25 27 29 32 29 27
49 51 52 60 68 71 72 72 74 75 72 68 53 34 39 61 82 63 85 76 44 40 42 38 44 50 63 60 58 51 45 41 36 32 32 32 33 31 27 24 24 27 29 31 30
56 60 62 69 75 83 78 76 71 66 63 67 69 50 36 62 89 70 90 79 50 49 50 42 46 49 55 60 61 55 49 45 42 40 38 37 36 35 29 23 23 23 24 26 30
61 73 81 82 86 87 80 66 61 57 50 56 69 62 34 60 77 71 91 87 56 54 53 49 49 48 48 52 56 54 50 47 46 46 44 41 40 38 30 25 23 21 21 24 29
72 83 88 95 92 82 68 68 64 58 61 72 76 69 39 59 78 83 92 90 53 59 61 55 46 47 48 47 48 52 50 45 41 43 42 42 41 39 31 25 21 20 19 22 26
76 81 90 95 96 80 84 78 71 69 71 77 84 76 43 52 78 87 96 86 53 57 61 58 52 43 40 44 44 46 49 45 39 39 38 37 34 34 28 25 20 18 18 19 24
78 87 85 94 91 84 82 81 78 73 73 71 75 66 44 51 76 98 94 86 75 61 66 61 62 50 44 42 42 44 44 45 37 33 32 33 31 27 26 24 22 19 17 17 16
76 91 86 79 71 79 78 76 77 77 72 78 78 59 45 49 77 94 88 88 87 75 76 74 64 57 51 47 51 47 48 44 37 33 32 31 35 28 26 25 23 21 19 18 17
65 75 86 93 64 65 73 78 84 82 68 76 63 58 46 43 57 78 73 95 84 80 90 89 69 63 58 50 50 53 48 42 36 31 34 37 38 32 27 25 24 22 19 19 19
64 71 84 92 80 84 82 88 87 78 75 64 52 67 57 48 61 71 71 96 94 94 95 92 79 64 55 52 44 42 42 40 36 34 35 36 36 28 26 25 23 22 21 19 19
51 62 75 86 84 87 91 91 72 69 62 53 70 88 72 56 61 80 94 95 96 98 95 90 82 63 59 56 48 48 48 45 41 37 36 36 33 25 24 23 23 22 21 20 20
49 49 61 71 79 84 80 64 62 58 63 53 81 83 80 81 83 95 98 95 94 96 92 88 82 66 65 65 58 55 50 47 46 43 40 39 32 24 23 23 21 19 18 18 18
43 49 59 62 68 62 52 54 72 75 66 65 86 89 91 95 97 98 98 98 98 98 96 96 94 82 71 68 59 60 54 53 49 51 51 43 42 28 27 22 22 21 20 20 20
40 40 46 50 49 45 45 62 83 88 94 92 87 81 81 80 89 92 95 91 93 97 97 98 96 98 89 78 69 70 64 62 59 57 52 48 45 28 26 24 23 23 23 22 22
46 35 31 33 48 71 83 85 91 87 97 91 81 80 80 78 90 92 92 90 92 95 93 95 95 95 93 93 86 74 72 71 68 63 60 48 46 29 24 25 25 25 25 25 25
52 49 40 43 58 66 70 72 77 89 98 98 93 88 88 85 85 90 97 97 96 98 98 97 89 88 96 96 92 82 81 83 68 70 63 56 50 32 28 27 26 26 25 26 26
44 50 56 48 48 53 60 65 71 83 86 85 83 74 81 85 87 85 88 92 89 90 96 95 95 87 86 86 89 86 84 83 65 57 52 53 48 30 29 26 26 27 29 30 30
39 45 53 53 51 53 56 62 78 80 76 73 66 72 75 69 69 79 84 84 83 85 87 90 91 82 80 78 79 82 81 66 69 65 59 42 34 27 28 29 30 31 31 30 33
51 46 47 49 52 54 55 66 69 66 69 70 72 71 71 73 73 76 77 77 77 76 74 74 85 79 74 72 71 65 67 71 69 60 50 38 37 28 30 29 32 34 36 39 42
54 55 53 50 53 54 65 66 67 66 65 63 67 70 73 71 73 78 79 70 68 66 63 61 64 74 69 68 68 67 66 65 64 60 50 42 30 32 33 34 37 42 45 46 47
47 59 58 53 52 59 65 66 65 66 63 57 60 64 68 71 71 69 69 61 59 56 57 60 67 75 68 65 66 66 67 64 63 57 58 55 38 36 40 41 46 50 52 52 53
42 52 57 58 66 62 60 60 63 60 63 63 62 64 69 62 64 64 64 60 58 55 55 57 60 70 65 64 64 66 64 58 53 53 60 51 38 44 46 49 55 53 55 56 55
38 47 51 58 65 66 69 69 68 66 63 64 62 66 67 67 58 58 55 55 51 49 53 56 58 57 55 53 58 62 58 55 54 61 54 53 50 48 53 58 57 57 56 57 57
38 44 51 58 58 62 68 68 67 66 65 63 61 61 67 71 68 58 52 52 51 49 52 53 59 59 55 53 59 59 59 59 58 55 60 55 61 59 61 61 58 58 59 60 61
41 45 45 54 59 59 59 64 67 68 68 60 68 70 71 71 63 64 54 51 52 55 54 56 66 62 61 58 61 62 58 58 58 60 64 68 70 66 62 59 60 60 62 60 61
28 41 48 47 52 55 57 60 66 66 65 64 61 66 70 66 64 63 56 54 54 57 59 60 66 67 66 60 62 63 57 58 62 65 68 79 70 64 62 63 62 62 62 59 61

GFSSW_prec_cthk_036.txt.gz
RH
49 45 44 45 50 54 57 56 61 61 65 64 54 40 32 54 68 59 57 58 53 36 37 35 45 59 65 61 50 58 58 50 44 39 36 33 32 30 28 27 27 27 29 31 30
47 47 52 58 55 64 70 74 72 76 78 72 62 53 38 39 56 66 72 65 71 45 49 38 44 52 64 65 58 53 51 43 40 39 36 34 33 32 29 27 26 26 30 30 30
51 53 65 72 73 79 85 88 88 95 95 88 78 59 46 32 49 66 77 76 73 53 50 44 50 55 55 66 64 55 47 44 41 38 36 35 35 34 30 29 26 26 28 33 30
52 63 74 81 84 85 91 89 88 90 85 79 72 65 53 37 45 55 63 82 73 59 56 50 55 64 52 57 64 58 53 49 43 39 36 34 34 33 31 29 27 25 26 29 35
56 71 80 88 89 89 85 87 82 78 66 56 59 53 60 54 34 60 79 75 83 58 57 54 50 64 56 52 63 61 59 55 48 45 41 38 36 34 32 32 30 27 25 26 29
65 75 83 85 86 85 83 89 78 66 58 60 68 61 59 56 35 65 90 78 84 63 58 60 51 60 61 55 53 61 60 57 54 50 47 44 42 39 34 35 32 28 25 23 23
74 78 87 86 86 86 81 85 81 73 69 67 58 57 55 51 42 64 89 86 90 64 59 67 57 57 56 56 53 56 61 58 55 51 48 47 44 39 38 36 33 29 25 22 19
63 74 79 92 82 82 88 80 82 76 71 70 66 78 60 52 49 63 92 82 94 68 63 76 66 63 55 53 50 52 56 62 51 48 47 44 36 36 34 33 32 29 24 22 18
55 64 78 90 86 62 75 75 72 78 75 71 78 82 70 42 52 63 87 85 83 66 74 86 78 63 54 48 51 49 42 46 50 46 43 40 33 31 29 28 27 27 25 21 18
49 56 68 86 82 67 67 72 78 79 78 72 78 80 59 46 77 90 88 97 76 76 82 93 85 67 57 49 41 40 42 43 37 42 43 39 33 30 27 26 25 24 22 20 19
43 54 65 76 79 80 84 84 85 77 69 72 79 80 57 63 95 95 90 98 87 82 86 95 89 73 56 49 45 44 39 37 34 37 36 36 38 28 24 24 23 22 20 19 20
44 49 58 66 76 79 79 79 63 71 67 76 80 80 74 80 89 93 95 98 88 86 91 96 89 71 68 59 49 43 40 38 40 37 35 37 36 26 24 23 24 23 21 20 20
37 44 48 54 58 55 58 57 57 71 88 89 90 78 68 66 70 91 92 97 91 92 93 93 88 75 66 59 53 48 42 42 39 39 37 34 28 25 24 23 22 21 20 20 20
37 45 48 53 55 57 55 57 69 93 98 91 88 84 70 76 86 89 92 98 95 96 93 95 90 76 69 61 55 53 48 43 42 42 40 35 31 28 26 24 24 23 23 23 22
36 39 36 41 53 61 67 69 82 92 92 90 84 74 66 68 75 90 95 97 97 96 95 94 91 83 73 62 59 54 48 48 48 47 46 41 38 28 25 25 26 25 25 25 24
35 39 44 48 63 71 76 75 75 78 92 93 90 91 88 92 96 98 97 97 97 97 96 97 96 95 83 74 66 60 54 56 55 54 59 44 40 28 26 25 27 27 27 27 26
37 40 43 47 52 58 65 65 74 84 91 87 90 88 92 94 94 95 96 94 95 98 98 98 97 98 97 90 75 68 69 77 74 73 57 45 43 29 26 26 26 27 28 30 29
38 39 40 42 46 50 55 60 64 77 78 84 83 76 82 94 94 95 95 92 90 88 96 93 96 96 97 97 93 85 78 72 64 52 44 49 42 31 29 28 27 28 30 31 32
45 45 42 40 44 50 52 62 72 76 72 69 75 78 81 74 82 88 87 85 87 83 84 85 93 87 90 90 93 95 90 71 65 58 54 40 34 32 31 29 29 32 33 34 35
45 46 48 46 45 48 51 58 68 70 66 61 59 59 64 72 72 74 77 77 78 78 73 75 90 84 81 84 83 83 80 82 78 72 58 40 34 29 31 32 34 34 36 37 39
46 46 47 48 46 50 59 62 63 63 59 56 58 60 57 61 65 67 70 72 70 70 69 67 67 80 76 74 74 74 72 67 62 55 44 33 28 27 30 31 33 36 41 43 47
42 52 47 45 48 54 61 59 59 60 56 52 56 59 62 59 63 67 69 71 68 68 63 61 64 72 71 69 69 68 64 55 54 62 56 45 31 33 33 35 37 43 46 49 51
38 45 50 47 49 52 54 56 61 59 57 58 58 60 63 65 64 65 63 64 64 60 57 55 61 75 72 67 63 65 62 62 58 58 60 41 32 37 39 41 47 53 53 55 55
33 41 48 53 54 55 59 62 62 59 60 59 61 63 65 62 56 62 60 64 63 56 54 51 54 56 51 56 56 66 61 60 59 60 46 38 38 41 41 49 57 58 59 56 53
33 40 46 54 58 61 62 62 62 65 63 59 58 57 63 67 58 55 54 55 53 52 50 54 67 62 54 52 57 59 56 54 56 47 47 39 39 39 48 59 60 59 56 55 52
44 41 43 47 53 55 58 60 61 63 67 60 66 61 63 68 63 64 53 50 49 52 51 53 67 61 58 53 53 57 53 52 52 50 47 46 49 50 61 63 60 57 57 56 53
53 37 43 45 48 48 50 55 60 62 61 64 60 68 73 72 67 62 59 52 50 52 56 57 64 62 59 55 56 54 48 47 48 49 51 56 56 62 65 64 59 59 61 59 56

GFSSW_prec_cthk_039.txt.gz
RH
44 45 49 48 50 55 53 55 64 62 67 69 72 68 53 36 52 62 62 51 59 46 31 33 41 48 70 65 60 74 76 75 63 57 47 44 41 36 33 32 28 31 35 38 36
41 49 52 56 60 67 68 67 75 84 81 84 81 74 62 47 43 57 59 64 60 53 50 36 39 45 58 71 63 57 66 61 60 59 53 48 38 37 32 29 27 27 29 33 34
46 52 57 63 68 75 79 79 84 94 94 94 90 90 71 57 44 38 66 72 61 53 57 46 48 48 51 64 69 51 52 53 64 61 53 47 38 38 34 32 29 28 30 34 33
55 68 73 68 73 81 82 81 83 92 87 95 95 91 80 64 45 39 58 74 66 63 58 60 53 59 54 53 62 61 50 54 57 53 46 43 41 38 35 34 32 31 29 28 35
70 71 76 81 86 79 81 75 77 80 82 83 82 81 79 68 47 60 47 64 74 72 51 60 53 55 60 52 54 64 62 59 56 50 44 41 38 37 36 36 34 31 27 25 27
56 57 67 80 90 78 79 83 86 83 78 72 67 72 59 57 56 55 72 69 87 94 67 53 57 56 63 61 51 59 69 66 60 57 53 44 40 38 35 36 34 32 28 26 24
41 57 66 81 90 79 79 83 83 78 66 55 55 56 62 57 56 46 79 71 95 90 71 60 63 70 64 68 59 60 65 67 64 63 59 51 45 40 38 38 33 31 30 27 24
46 57 64 79 90 79 71 80 79 83 71 64 64 64 55 51 52 55 70 74 78 88 80 63 65 72 67 67 66 63 60 66 63 64 61 55 43 43 41 39 35 34 32 29 26
46 53 57 70 81 72 65 73 71 69 71 69 63 67 62 54 47 46 77 78 80 83 76 67 65 72 69 66 72 61 54 56 59 58 61 53 46 45 40 37 35 34 32 30 28
39 47 55 64 70 64 66 69 70 73 76 77 78 80 62 54 48 74 92 82 92 88 78 80 82 77 71 66 57 49 49 45 49 58 56 52 46 43 38 37 34 31 29 28 27
38 45 52 59 66 71 79 83 87 86 78 80 83 89 73 66 65 94 92 91 91 92 79 89 86 77 56 49 47 48 46 43 42 48 54 57 44 37 37 32 28 25 25 24 23
40 46 48 48 57 57 66 79 77 80 84 81 89 87 85 81 77 85 79 97 81 83 72 93 86 76 66 61 54 53 50 46 48 43 44 43 45 36 35 27 23 22 23 23 23
42 44 48 50 62 68 69 67 73 84 98 95 87 91 89 88 88 85 82 94 86 87 78 79 86 83 80 68 63 56 52 43 46 44 42 42 40 36 32 29 25 22 20 20 20
43 51 54 63 73 73 77 79 85 91 98 87 88 95 94 97 98 97 94 96 91 88 88 89 87 83 79 77 59 56 54 47 48 46 35 37 26 33 35 25 23 21 21 21 22
41 47 48 51 61 72 73 79 84 97 96 99 89 94 96 92 92 94 97 98 95 96 95 95 94 86 78 74 61 65 53 47 46 50 49 46 36 34 27 26 29 27 26 25 24
38 45 48 50 52 57 61 68 75 80 87 85 88 86 79 78 86 92 98 92 98 96 96 96 97 91 83 80 67 65 54 49 48 52 62 41 34 32 26 23 25 26 27 27 26
44 39 43 46 50 54 61 65 67 73 89 82 78 83 74 83 96 96 97 97 98 99 98 98 98 96 90 82 78 62 56 67 67 71 55 45 42 31 26 24 27 27 28 29 28
46 44 44 46 45 50 58 64 64 71 71 79 74 79 89 89 94 95 95 97 97 94 98 98 97 98 96 88 74 63 61 69 62 58 52 48 43 32 28 27 27 28 29 29 29
41 46 47 48 48 48 57 63 74 72 66 68 67 75 81 83 90 91 85 92 92 89 94 94 98 97 97 92 82 81 77 62 55 47 47 39 36 35 33 30 27 28 30 32 32
40 48 47 45 46 50 50 62 68 63 59 60 64 64 64 71 79 80 77 81 83 79 80 80 93 90 94 96 96 91 77 81 72 74 53 43 35 30 31 31 31 33 35 36 35
39 49 46 43 45 52 54 62 62 58 56 55 53 56 60 65 66 69 69 69 72 72 69 72 74 86 83 88 91 94 97 84 76 65 62 45 36 32 32 34 34 35 37 38 41
36 55 46 44 52 49 51 53 56 57 53 55 56 56 51 55 57 59 58 62 64 64 67 66 70 78 79 72 73 77 76 76 74 75 58 52 46 36 37 36 34 37 40 44 49
30 42 48 46 55 52 49 52 57 55 54 54 55 57 59 59 59 61 61 64 62 63 64 60 66 74 71 68 67 67 67 66 61 60 65 54 42 34 35 36 37 42 48 50 51
34 44 50 52 49 50 48 48 52 53 53 53 54 57 59 62 59 63 62 61 61 58 55 53 54 62 60 62 55 62 56 59 60 66 54 48 46 38 36 38 44 49 54 55 56
55 42 49 59 55 54 56 57 55 57 56 55 55 54 58 64 58 53 59 59 61 59 53 53 62 56 51 51 54 56 53 57 62 60 60 51 41 39 40 43 49 57 57 59 57
72 47 44 46 54 57 59 58 57 58 59 61 56 58 54 59 63 57 53 53 52 54 55 54 63 63 62 52 50 51 50 52 52 50 49 43 41 37 36 44 57 61 63 60 56
63 69 44 45 50 51 54 57 58 59 58 60 59 65 68 66 69 68 63 57 49 47 50 52 59 62 59 52 52 52 42 43 43 43 44 46 40 42 48 57 65 67 63 59 57

GFSSW_prec_cthk_042.txt.gz
RH
38 38 43 48 57 58 62 66 61 57 55 65 62 67 75 59 57 52 54 50 54 51 41 34 37 43 65 75 75 85 92 94 79 75 67 59 54 46 42 36 35 34 39 54 48
40 47 51 55 57 62 67 71 68 65 67 70 78 75 78 68 59 49 55 64 54 52 46 40 38 41 56 69 77 84 85 82 78 75 71 66 60 45 41 35 33 32 34 41 41
49 56 62 72 80 83 79 85 78 77 83 86 89 91 85 80 58 43 46 75 61 61 44 47 45 45 49 58 71 71 68 70 81 74 70 75 62 47 40 38 32 30 33 38 38
48 56 48 60 82 91 88 84 77 79 84 89 90 97 99 91 61 52 35 60 80 72 62 51 52 49 54 48 58 67 60 66 69 74 72 71 65 50 39 38 34 31 33 32 35
35 41 60 66 79 92 87 76 77 78 85 87 86 96 94 92 69 59 48 62 69 73 67 55 50 54 51 44 50 64 68 64 60 67 67 72 64 51 41 39 37 34 30 29 30
38 46 55 65 80 91 79 77 78 79 78 71 74 82 89 86 76 62 66 68 89 83 68 61 46 61 59 57 47 50 69 71 66 56 56 58 59 56 42 41 36 34 32 29 27
41 47 50 56 79 91 79 73 80 86 78 66 67 74 75 65 71 66 66 75 97 97 73 68 52 61 63 65 60 58 62 70 72 59 57 55 57 47 42 42 38 35 33 30 28
36 43 51 54 64 74 72 74 71 80 70 62 62 69 68 50 46 59 68 84 87 80 78 66 61 61 70 70 67 61 60 72 66 67 64 61 54 48 43 41 38 36 33 31 29
39 44 55 64 52 50 57 69 66 66 70 61 57 61 60 63 42 57 80 84 78 90 90 83 69 62 63 74 74 70 61 61 62 61 67 63 57 52 46 44 41 37 35 33 31
42 50 55 66 65 62 61 63 61 62 62 66 62 57 50 61 50 54 84 75 77 86 96 85 75 67 69 76 79 63 57 49 55 55 60 66 60 55 47 44 40 36 35 33 30
47 55 59 65 73 74 80 82 87 88 79 77 75 62 55 68 59 51 90 75 90 98 82 83 80 59 47 49 60 61 61 54 51 51 52 57 66 59 51 42 41 38 35 31 29
45 43 58 69 69 67 82 77 72 79 83 70 79 73 70 67 71 88 97 92 94 95 76 78 71 60 59 60 64 67 57 53 54 55 51 52 55 56 52 40 35 34 31 28 26
38 39 47 60 76 82 85 87 75 79 92 84 80 82 80 86 90 88 87 93 84 75 73 71 72 66 64 66 63 59 56 54 53 53 49 54 50 49 49 43 36 30 27 25 24
38 40 43 49 64 72 81 88 81 81 92 85 73 79 90 96 98 98 97 90 85 87 81 83 82 76 76 72 66 64 57 57 59 56 53 48 39 36 39 41 37 29 25 23 22
46 40 42 46 52 66 70 70 82 91 98 95 94 86 88 98 95 90 90 94 81 81 82 81 84 85 86 78 70 71 61 59 59 57 57 56 51 34 42 42 37 31 29 27 25
38 44 40 49 53 62 66 67 75 80 94 98 97 93 98 95 90 88 95 97 95 89 88 87 84 94 91 86 78 75 71 64 57 57 67 53 50 41 38 32 37 35 33 31 29
31 40 42 46 53 60 61 70 74 77 83 87 94 91 88 91 87 90 96 95 90 95 97 94 92 90 94 92 86 81 77 83 78 77 66 43 54 38 36 33 27 28 32 33 33
30 37 44 44 51 55 64 66 68 72 65 73 84 85 85 83 91 93 96 95 96 90 95 99 98 98 97 91 88 79 71 74 65 73 60 46 56 43 36 30 30 28 29 29 29
27 40 40 44 46 51 63 66 69 75 63 61 70 81 86 88 92 96 97 97 95 95 97 97 97 97 97 93 89 85 84 62 69 51 67 52 38 37 35 33 31 30 28 31 31
21 43 43 42 44 52 55 61 66 59 61 59 63 69 71 80 83 87 91 94 89 90 86 85 96 97 98 97 92 91 75 77 81 79 60 49 41 37 35 34 34 32 31 33 32
27 45 49 42 46 54 54 60 56 56 55 56 58 59 58 66 70 70 74 80 79 79 80 82 84 97 98 97 96 90 88 79 74 69 75 60 44 33 34 33 31 34 35 36 36
60 45 50 46 54 53 53 52 56 53 52 51 51 51 52 54 56 59 62 66 70 70 72 75 79 92 89 87 89 92 89 81 88 77 65 65 55 38 36 36 37 37 38 39 41
52 43 45 49 64 54 50 52 57 54 52 51 51 53 54 52 54 58 58 59 62 62 65 64 74 80 83 82 78 85 82 88 89 79 83 79 60 46 45 43 41 40 42 44 48
49 69 49 55 55 58 54 53 57 55 54 51 53 54 57 59 58 58 62 62 61 60 62 60 63 68 73 67 65 70 69 73 76 84 71 65 57 50 44 42 44 45 48 52 52
48 69 55 59 61 58 58 60 58 61 59 58 57 57 59 62 60 57 60 61 58 60 56 57 66 60 58 57 58 57 59 61 67 62 69 56 56 51 49 44 44 46 51 56 54
46 56 65 46 51 59 62 66 65 67 62 65 59 57 58 60 58 64 52 56 55 58 57 53 63 59 58 52 53 56 52 52 55 57 56 54 56 51 47 41 41 46 54 60 57
33 44 73 57 46 56 66 67 68 65 65 62 62 63 66 69 64 65 64 59 56 52 52 55 60 60 63 53 54 59 45 43 45 47 50 55 47 44 41 38 40 48 64 64 63

GFSSW_prec_cthk_045.txt.gz
RH
43 44 47 55 60 66 68 66 69 67 64 59 52 57 57 61 62 65 51 58 67 47 52 39 35 45 62 75 84 89 94 94 88 83 63 70 72 56 49 42 38 44 43 46 50
40 41 42 52 57 70 86 89 86 83 72 63 60 62 74 77 65 54 53 57 71 66 41 43 35 47 57 70 86 91 92 76 74 72 78 77 72 60 49 45 42 42 43 49 51
36 40 45 46 54 66 91 91 87 85 77 74 69 71 79 83 78 45 47 53 65 66 59 45 40 51 53 62 78 86 76 72 78 75 86 86 78 71 56 46 43 41 37 38 47
35 44 49 51 53 69 83 86 85 73 75 77 76 82 76 85 87 63 54 41 60 64 65 47 42 53 53 49 62 70 77 75 75 77 92 91 81 71 61 49 40 38 36 37 41
36 45 47 50 55 70 86 74 71 74 79 84 91 92 91 95 94 70 49 37 84 75 73 56 42 52 51 48 49 60 68 72 73 73 77 85 87 77 64 55 40 41 42 37 39
36 45 49 49 56 69 74 72 69 70 73 74 77 90 93 96 91 77 59 47 85 88 79 66 43 45 55 48 45 46 63 73 72 71 74 78 78 71 67 57 43 40 40 35 34
41 45 48 53 62 66 61 61 73 76 76 68 63 73 82 85 87 83 79 59 68 89 85 71 58 50 51 57 45 52 56 71 73 65 68 67 70 74 66 56 46 38 37 35 32
41 48 49 51 53 54 57 60 65 71 69 65 61 65 69 65 68 78 84 84 71 91 88 79 68 61 58 63 57 58 53 68 61 69 68 60 59 63 61 57 47 40 36 35 33
38 47 53 55 66 64 59 62 57 60 65 61 61 63 63 60 52 58 81 78 75 86 93 92 77 66 62 67 76 66 65 57 57 59 67 66 53 50 50 50 42 40 36 35 33
43 43 49 55 73 76 61 66 71 70 63 67 64 65 60 59 52 44 69 87 95 97 98 93 85 72 60 60 62 59 51 50 49 50 59 66 60 57 52 49 46 42 38 35 33
38 39 45 49 67 72 63 72 76 76 72 68 61 55 52 56 52 45 63 92 96 97 88 81 77 59 51 55 53 57 60 58 53 50 60 59 61 65 59 53 50 44 39 36 34
44 39 39 46 58 67 62 62 80 78 76 64 50 45 55 59 66 77 86 89 92 96 96 97 78 66 59 52 54 62 64 60 57 52 54 58 56 56 60 55 50 46 40 36 35
41 46 42 41 53 60 66 67 65 73 82 73 65 61 65 69 85 92 98 92 78 89 93 81 74 65 61 60 55 57 55 58 60 57 54 52 51 46 47 53 52 46 40 36 33
27 40 46 43 50 55 66 72 78 72 85 87 80 80 79 76 83 88 86 92 92 96 90 81 75 65 62 60 57 58 52 60 63 59 62 52 58 39 39 44 51 48 44 38 31
23 35 43 43 44 53 62 66 73 84 94 85 91 92 91 94 95 95 97 96 92 93 83 82 75 71 67 64 62 61 60 64 65 65 62 57 58 40 34 42 42 45 42 38 30
20 33 42 46 48 54 62 67 70 74 95 98 98 97 98 98 89 87 93 88 91 83 81 80 77 81 79 74 68 63 69 70 70 73 81 60 59 43 39 34 37 41 41 39 32
21 33 43 44 49 54 61 64 63 70 76 86 92 96 92 94 94 84 83 83 82 88 90 89 90 88 89 85 81 76 75 95 93 90 74 50 58 43 36 37 35 39 41 40 35
28 33 41 44 46 52 61 63 64 67 80 87 92 82 84 83 90 90 94 89 82 78 85 86 85 87 93 89 88 84 81 85 84 83 68 50 57 40 31 37 36 37 35 39 39
39 37 45 44 46 53 55 60 63 68 67 70 80 85 83 84 86 96 93 87 84 82 82 88 90 88 87 86 91 92 95 78 80 66 73 56 45 39 33 38 39 42 34 33 31
36 43 48 46 47 55 54 59 63 60 64 64 71 74 80 86 91 95 95 92 90 85 82 86 94 96 94 96 95 90 85 90 90 94 72 61 48 44 36 35 40 45 38 34 34
39 54 52 50 52 54 54 61 58 56 56 59 60 60 66 75 76 84 84 89 87 87 81 81 84 97 98 98 96 93 93 86 79 86 84 62 49 38 38 35 35 41 44 40 38
41 60 55 56 60 54 58 56 55 54 53 53 53 57 60 61 63 62 72 79 77 78 84 81 86 96 93 91 94 91 91 89 89 82 78 75 54 38 37 38 37 36 37 41 44
39 48 62 61 65 52 50 54 56 56 57 55 53 53 52 53 58 59 61 64 69 73 75 77 82 95 97 87 89 93 89 86 81 76 79 76 57 45 43 41 38 41 40 41 43
44 53 61 65 67 58 55 54 58 57 54 52 53 54 57 58 55 60 61 60 64 64 65 67 73 73 75 72 76 84 85 89 90 91 75 74 62 60 58 53 46 45 45 46 48
47 53 62 73 65 72 61 57 55 59 57 56 57 53 58 60 58 62 62 62 61 60 60 63 70 69 63 64 66 63 66 74 88 84 88 78 71 62 57 51 46 42 46 51 56
44 47 49 67 68 72 72 67 65 68 62 60 58 57 57 63 60 58 58 58 61 61 61 61 67 65 62 56 57 59 56 59 61 62 64 65 67 59 55 50 53 51 49 50 56
45 54 60 57 71 66 70 76 71 67 67 64 63 63 62 69 67 64 62 55 58 59 61 64 65 61 63 55 57 59 50 49 48 49 50 60 49 51 49 50 52 49 45 46 60

GFSSW_prec_cthk_048.txt.gz
RH
38 37 37 37 38 38 49 68 89 84 78 72 63 54 50 52 59 64 74 41 45 47 47 39 37 48 67 76 92 79 89 86 79 84 78 71 71 58 51 48 46 44 43 44 47
34 37 39 40 46 49 48 72 94 88 89 84 69 60 57 60 58 55 60 64 49 61 52 47 37 39 64 71 83 86 80 72 67 73 80 80 77 70 62 54 54 49 48 49 51
38 38 40 44 45 56 60 78 80 84 83 79 75 71 64 73 75 51 47 66 58 73 83 51 45 44 58 64 77 80 77 69 72 77 85 86 80 74 67 56 52 51 50 53 57
34 37 43 45 48 60 68 73 76 76 73 72 70 72 73 77 79 62 57 62 61 92 96 65 44 53 54 59 62 73 81 78 80 87 90 86 86 78 71 60 53 47 43 43 48
34 41 45 53 59 61 60 58 70 70 69 79 81 81 84 79 68 79 65 55 55 91 95 79 43 51 56 52 58 64 68 78 83 87 90 90 92 88 77 63 60 54 49 43 44
38 38 42 49 58 58 60 57 59 71 67 65 75 92 96 89 72 80 65 55 40 71 87 84 48 47 52 52 56 56 63 82 89 88 88 88 87 88 74 64 63 59 52 47 44
37 38 44 50 49 51 55 62 63 64 70 67 66 74 90 98 94 90 77 58 48 51 75 77 61 49 44 52 48 53 66 79 77 77 78 81 88 85 82 71 66 59 50 44 41
42 37 43 54 54 48 56 61 58 58 65 63 61 69 81 89 94 93 90 74 63 71 88 83 74 58 49 53 54 60 54 70 64 68 70 73 69 74 81 78 68 63 51 42 37
39 37 42 49 57 53 50 52 56 52 58 55 61 67 73 72 79 80 88 83 84 93 96 93 78 70 59 55 61 61 59 55 57 60 64 64 65 68 75 77 67 62 54 46 39
45 42 40 46 58 58 55 54 55 62 55 58 61 62 66 65 64 73 77 87 94 97 98 98 85 78 67 60 55 50 49 45 48 49 58 60 62 65 63 62 58 55 50 44 37
38 46 45 45 53 63 60 61 60 54 52 56 57 54 52 53 55 64 83 72 88 94 97 97 85 70 60 59 50 47 50 49 47 46 51 53 64 67 65 54 52 49 48 42 39
24 33 46 43 49 62 66 62 70 58 54 47 49 46 47 50 57 58 77 82 97 96 97 96 83 75 67 64 60 59 59 57 52 50 50 51 52 58 63 57 52 48 47 45 42
28 26 43 42 49 55 66 63 73 78 64 55 56 55 52 54 64 75 86 91 94 90 97 95 83 79 72 64 56 55 56 57 56 56 56 51 50 49 52 52 52 52 49 47 43
35 23 41 44 49 56 66 67 68 80 86 82 82 87 81 79 77 88 91 98 98 98 95 89 86 79 74 66 59 62 54 53 58 64 67 56 61 39 46 43 46 49 52 49 45
44 21 40 44 48 55 66 65 67 81 93 86 83 84 83 87 88 99 98 96 94 98 97 95 80 73 73 62 61 60 54 52 54 63 64 62 63 39 40 39 35 38 45 51 47
44 22 39 43 50 54 62 65 67 73 94 98 96 97 97 79 86 94 95 91 95 96 90 85 81 77 71 67 62 60 59 60 63 66 73 60 62 47 37 33 31 33 38 45 48
31 29 39 42 47 55 59 64 65 75 86 90 96 97 89 81 78 81 92 96 93 95 92 90 84 78 75 71 68 64 66 79 80 82 66 59 70 36 37 34 33 32 35 41 47
27 35 40 44 48 53 58 59 65 75 84 81 85 94 90 83 87 88 86 86 88 79 84 84 87 84 80 75 69 67 67 73 79 81 73 63 62 36 31 33 33 35 37 41 44
27 35 48 48 51 54 57 57 58 64 65 82 81 86 85 86 91 95 89 79 77 75 76 80 80 82 82 83 82 83 86 75 76 71 77 62 50 39 34 32 34 36 39 38 40
28 39 49 53 56 55 58 55 57 59 59 64 79 81 90 94 97 92 90 77 75 74 73 75 82 80 83 90 90 88 85 87 89 92 74 62 60 46 37 38 33 35 40 39 39
34 47 55 59 60 57 58 58 54 55 53 55 63 71 75 81 86 87 89 87 81 79 75 75 76 88 90 89 85 88 91 90 86 86 87 77 61 46 41 38 37 36 47 49 50
36 50 55 64 68 64 58 58 51 50 50 50 52 54 62 64 65 73 81 79 80 76 78 76 84 90 91 88 89 88 88 88 94 91 85 80 65 48 43 41 43 42 43 51 52
40 46 52 63 77 66 58 57 56 53 52 52 49 48 50 54 57 59 66 74 77 78 80 77 82 89 89 85 87 94 94 89 89 87 85 82 67 55 47 44 46 45 44 45 50
42 53 57 68 71 76 70 62 61 57 53 50 51 50 50 52 52 57 59 61 65 70 74 76 76 77 83 76 82 90 88 90 93 95 81 78 64 61 59 54 50 50 49 48 47
35 49 60 65 76 80 79 73 69 67 56 52 52 51 55 57 57 62 59 59 62 65 67 69 75 74 71 69 70 70 77 86 89 84 86 71 68 58 59 60 61 59 54 50 51
34 41 53 62 71 82 81 81 78 70 65 62 57 58 56 62 59 62 61 59 61 64 62 65 70 70 71 68 68 65 63 65 70 76 76 77 75 72 68 66 66 59 57 50 52
42 47 57 59 58 81 85 84 81 77 76 70 66 64 66 68 67 64 63 56 57 61 64 66 69 66 65 62 60 59 49 51 54 56 58 67 50 57 55 58 60 59 60 55 52

GFSSW_prec_cthk_051.txt.gz
RH
32 30 33 35 41 48 49 48 51 74 93 92 91 76 62 50 56 74 86 62 52 47 54 44 42 50 64 78 81 88 91 81 75 76 60 62 68 63 53 47 46 46 42 40 36
35 35 36 39 45 44 44 52 71 94 91 91 90 82 68 60 53 60 68 80 62 61 52 50 40 47 64 69 85 82 92 72 66 66 65 65 73 70 61 51 51 52 46 48 42
36 37 37 42 44 47 52 56 65 87 83 81 82 80 76 70 64 50 58 69 74 73 63 59 49 45 58 66 76 85 85 82 77 78 74 78 79 77 69 57 52 57 58 49 48
36 38 39 45 44 48 52 51 50 66 71 71 70 70 73 77 67 60 54 63 71 78 77 73 64 47 52 61 64 73 69 79 82 82 77 79 81 84 75 63 58 58 69 61 54
38 41 41 42 39 44 50 52 49 55 69 73 74 75 72 73 69 76 68 67 71 78 80 81 68 46 48 55 63 62 68 77 86 82 79 83 87 91 78 69 61 56 60 61 55
43 42 44 46 42 42 49 56 55 57 60 67 69 80 85 80 77 74 76 63 58 65 84 92 77 46 48 57 62 61 64 76 80 87 84 87 88 93 75 74 66 61 59 59 52
45 46 46 46 48 43 50 58 50 57 62 65 62 76 81 89 82 74 80 64 55 59 85 89 82 59 50 60 58 64 69 76 85 89 87 85 94 91 79 79 70 69 71 69 58
46 48 49 44 53 46 49 57 45 49 58 55 56 68 89 94 88 85 85 77 59 62 91 97 86 67 53 54 57 64 73 76 82 85 83 92 90 83 86 84 72 72 71 69 61
40 48 49 50 54 52 50 55 45 42 49 52 59 70 83 91 94 89 86 92 66 62 91 95 87 73 62 55 59 65 67 68 63 66 70 80 73 75 77 80 72 70 67 62 58
32 36 46 48 54 58 54 61 50 45 44 50 56 65 75 77 88 90 86 88 72 75 94 95 93 84 73 62 54 50 52 48 54 53 62 72 66 68 74 78 79 73 69 64 56
47 32 31 46 52 62 57 67 61 45 43 46 51 62 57 60 71 78 80 89 82 67 86 98 97 77 64 56 44 49 49 51 49 49 51 63 69 67 69 71 70 69 69 65 58
52 34 30 46 49 59 63 65 74 56 48 46 51 53 52 55 64 78 83 96 80 84 98 97 91 80 73 59 52 48 51 51 51 53 56 60 65 65 66 62 63 64 57 54 51
50 40 28 45 49 57 65 67 81 80 61 57 52 51 49 56 62 77 88 94 98 93 96 90 84 82 75 67 59 49 50 51 51 51 53 53 60 58 53 57 59 58 55 48 47
42 43 24 44 52 56 65 66 80 85 86 89 86 74 66 66 69 76 93 89 97 98 98 95 87 84 82 72 63 58 54 55 57 61 63 55 64 48 45 46 51 51 51 49 46
32 40 24 45 50 56 63 70 80 88 88 89 93 85 79 82 82 77 81 90 97 97 97 96 84 79 81 72 62 62 57 58 58 62 62 61 66 42 38 38 35 41 45 47 51
26 30 27 46 50 55 63 69 75 81 89 95 95 88 96 88 88 92 90 85 90 95 97 96 93 87 83 73 63 60 63 62 63 62 68 57 61 40 35 30 29 33 37 40 44
27 27 37 46 50 53 58 67 71 79 76 81 86 79 84 88 88 96 90 96 97 98 98 94 96 89 80 74 65 63 65 80 80 78 69 55 58 30 29 30 31 33 33 32 37
26 30 39 50 51 53 55 61 70 72 76 71 77 75 72 78 92 94 96 97 94 90 89 87 88 79 78 73 66 67 65 70 72 76 67 59 55 32 26 29 32 31 33 33 32
25 37 43 53 55 54 55 62 62 71 78 74 76 76 78 80 81 90 89 93 88 82 78 82 82 79 77 72 69 72 75 65 70 66 70 58 46 35 33 31 30 31 33 34 35
30 45 48 55 59 56 55 59 63 67 72 82 84 75 84 86 89 87 86 85 79 76 71 72 81 77 78 75 74 71 68 75 78 80 73 58 57 48 39 37 35 33 32 37 39
38 48 48 56 60 63 59 60 61 64 65 73 79 81 83 89 87 89 79 73 73 75 72 71 71 82 86 82 81 85 85 82 79 80 77 74 57 46 44 44 40 37 36 37 41
39 50 52 55 65 68 65 58 57 57 59 64 70 77 78 74 84 79 81 71 69 72 75 74 81 84 83 85 86 90 88 88 91 88 84 77 61 50 49 47 45 43 43 44 47
37 47 55 57 63 69 67 59 56 57 58 60 65 66 68 68 70 78 82 81 81 80 81 79 83 89 92 93 89 89 84 84 82 83 83 85 65 57 51 51 49 52 49 51 47
39 46 52 62 60 65 73 67 57 58 57 57 59 58 58 60 58 64 69 79 84 85 86 85 85 84 86 77 81 87 85 92 93 91 79 74 69 65 60 59 58 57 55 55 54
34 43 51 60 64 69 75 77 67 64 59 57 58 59 63 60 58 60 62 65 70 75 81 80 84 82 77 74 78 78 78 82 89 85 85 75 74 70 67 63 62 60 60 58 55
29 34 46 53 60 65 74 86 77 72 66 64 61 62 61 67 66 65 64 59 61 64 67 69 77 75 76 71 74 72 69 71 68 74 79 78 70 71 69 61 59 57 60 59 60
35 38 51 49 59 69 67 80 81 74 70 66 69 67 68 70 70 68 64 59 55 60 66 66 69 69 66 65 62 64 57 55 56 57 58 68 48 58 65 72 69 68 66 64 61

GFSSW_prec_cthk_054.txt.gz
RH
35 31 34 35 37 34 35 38 42 48 59 86 96 95 95 85 65 60 88 89 62 46 59 56 44 49 61 80 88 89 94 86 75 71 62 57 53 57 52 47 46 52 49 43 38
37 31 36 36 39 35 36 39 44 47 68 88 90 90 88 81 72 53 64 92 84 59 68 67 50 47 57 67 88 96 93 82 70 67 65 65 62 61 60 53 50 50 50 52 51
34 37 39 37 41 38 37 38 40 43 54 80 80 77 80 80 82 61 55 79 96 68 72 80 64 49 54 60 74 91 79 71 72 72 75 76 73 66 64 62 56 54 48 58 59
40 40 42 41 41 41 40 41 38 42 50 68 71 66 74 82 82 76 61 76 95 76 76 89 70 55 49 59 64 70 76 80 80 80 77 77 73 72 68 63 61 57 51 52 63
42 42 44 43 48 40 45 44 42 44 46 63 67 70 72 74 80 83 74 68 93 84 81 89 75 59 49 53 61 65 71 77 81 80 82 83 82 82 71 65 64 59 55 57 64
38 43 46 46 51 42 48 48 43 47 51 55 63 74 75 79 74 76 86 68 79 88 85 98 80 59 47 48 55 60 61 67 74 78 85 87 85 84 74 73 68 64 59 60 65
39 41 46 51 48 49 49 50 41 43 50 57 58 65 73 78 76 71 83 73 71 82 82 95 87 70 52 47 49 62 67 74 75 80 86 88 89 76 75 80 73 69 63 64 64
50 33 43 51 51 56 49 53 44 38 42 50 59 68 78 86 86 75 74 76 62 74 79 93 88 79 69 49 55 71 70 79 82 83 88 83 75 74 80 85 77 73 68 66 62
51 45 31 45 52 59 51 58 47 42 42 48 62 70 85 91 92 77 78 83 70 65 75 97 97 87 78 61 68 71 72 63 72 76 83 78 74 75 82 85 80 76 74 72 70
50 49 35 35 47 60 56 64 53 45 42 47 61 75 79 81 92 81 86 77 86 64 83 97 98 88 88 68 62 60 64 61 59 65 76 76 70 74 78 76 83 78 78 74 69
44 52 38 40 48 53 61 64 63 48 44 45 52 57 59 76 86 89 91 96 86 68 93 99 94 80 76 68 49 51 56 62 58 60 66 70 71 71 81 78 79 81 76 70 66
40 49 40 35 52 53 63 63 72 62 57 52 52 57 58 62 76 82 92 96 86 77 98 98 94 82 82 73 57 49 50 52 52 57 64 63 64 72 74 68 69 72 69 72 69
38 42 43 31 47 51 61 65 73 81 78 78 65 57 58 66 70 81 91 93 87 87 96 93 80 84 78 76 67 57 49 51 52 54 60 61 62 58 60 61 63 66 65 69 65
36 37 43 33 50 52 59 70 75 85 91 94 94 75 71 65 79 85 88 87 78 81 93 90 90 88 82 80 67 59 51 50 54 55 66 59 67 46 44 54 56 56 59 59 61
35 29 33 35 50 55 60 68 76 82 92 90 94 83 76 83 74 86 81 76 72 85 97 97 88 88 83 80 67 58 54 52 54 58 59 57 66 42 39 43 39 45 52 56 57
26 27 27 41 49 54 59 68 72 77 80 83 90 96 95 88 92 90 93 83 80 90 96 94 92 90 85 79 74 61 64 63 61 61 70 61 64 42 37 32 31 31 40 45 48
25 27 30 44 53 57 57 65 68 72 76 74 77 83 86 83 89 93 96 97 99 98 98 97 96 91 84 84 75 67 71 81 78 78 72 56 57 34 34 32 33 32 33 36 39
25 32 40 45 52 56 57 62 68 72 73 72 77 77 86 88 96 96 97 98 96 96 97 95 97 91 87 82 76 71 70 72 70 75 64 57 54 37 27 26 29 34 33 32 33
27 36 44 50 53 58 59 63 65 71 75 80 78 79 80 88 89 93 95 92 88 91 89 94 97 94 92 87 77 74 72 63 65 62 66 54 42 30 27 28 29 28 28 30 31
32 43 48 52 55 61 61 63 67 71 76 81 83 88 94 83 87 83 88 90 90 90 84 80 89 89 90 83 78 70 68 73 73 72 69 52 48 40 35 35 32 31 29 28 33
38 46 50 55 60 64 67 62 67 69 68 78 80 84 94 97 83 77 76 82 83 86 77 74 75 84 79 79 77 75 76 73 68 69 71 64 48 40 42 41 37 36 33 30 31
37 48 52 59 61 67 70 69 64 66 63 66 77 83 83 92 94 92 79 78 75 73 73 70 71 78 76 72 71 75 76 73 77 74 75 74 52 46 45 50 46 39 39 37 39
34 44 51 57 62 63 70 71 67 64 63 63 69 75 77 74 83 87 84 76 75 72 72 69 76 82 83 77 79 78 77 80 80 82 83 85 61 50 56 55 53 51 48 46 47
34 44 50 56 61 61 72 77 68 63 63 59 62 63 64 66 69 80 86 89 85 76 73 70 74 73 74 68 78 89 81 81 89 91 80 70 65 61 65 64 63 61 59 52 52
28 39 47 55 61 62 71 76 77 73 68 60 61 63 61 61 61 63 68 78 88 90 90 88 91 84 81 80 85 86 85 86 89 79 85 68 69 70 72 71 69 64 64 61 61
26 28 39 47 55 64 67 76 78 76 71 71 68 66 62 66 68 67 65 63 70 76 82 89 91 86 86 79 83 82 79 80 79 76 75 72 69 67 65 70 72 64 65 63 61
28 31 38 40 50 62 63 69 80 81 77 77 71 69 71 73 72 72 72 68 65 65 70 73 79 79 74 73 72 74 66 69 70 68 64 67 47 52 53 56 67 66 62 61 62

GFSSW_prec_cthk_057.txt.gz
RH
34 34 32 34 35 38 35 36 36 37 39 46 62 78 91 96 93 83 59 71 92 78 58 53 51 51 68 81 79 84 92 86 79 68 66 60 58 50 50 51 49 51 50 50 51
41 38 36 38 36 40 37 38 36 36 37 42 63 87 93 93 92 84 70 72 91 93 79 66 58 49 65 78 79 81 94 76 65 70 72 69 63 59 54 52 52 52 47 49 53
42 44 37 41 40 42 39 41 38 38 38 41 55 75 78 86 84 79 70 61 88 95 86 72 64 53 59 74 87 81 75 73 76 74 77 74 66 66 59 56 56 55 50 48 55
34 41 38 43 43 46 44 46 46 40 41 44 57 67 68 73 82 79 78 63 82 97 94 80 70 61 57 63 79 81 90 80 80 81 80 76 70 69 64 59 57 57 53 50 53
41 40 36 42 45 52 47 52 48 46 44 42 47 64 65 65 69 77 81 71 85 97 98 88 77 70 56 54 60 70 76 82 91 85 84 83 80 73 67 63 59 58 57 53 53
40 45 36 37 49 53 51 54 49 42 42 48 49 58 59 59 65 67 77 78 74 97 98 91 80 75 58 54 53 59 67 77 86 83 82 79 80 78 66 69 63 60 59 56 57
41 44 44 32 47 54 57 58 52 41 39 46 51 54 55 59 62 60 67 80 71 94 90 87 88 82 61 56 59 56 61 66 76 82 81 79 80 69 73 72 66 63 61 59 58
42 43 46 34 42 51 62 59 55 44 40 42 50 56 67 74 78 68 70 79 82 97 93 91 94 84 68 58 59 61 62 67 71 76 79 79 62 68 77 76 69 69 66 63 60
40 40 47 41 38 48 62 59 59 49 46 44 49 64 75 80 87 74 75 79 73 85 94 91 93 88 75 67 61 62 61 59 67 76 78 74 75 74 77 77 77 72 70 67 62
35 39 47 44 39 48 58 58 65 54 50 44 53 60 67 81 92 77 75 84 74 80 92 96 98 94 85 69 60 58 58 59 61 66 76 82 73 74 77 76 72 77 70 68 67
35 37 43 45 34 48 59 58 72 60 55 42 42 48 53 84 87 75 85 89 84 91 89 96 97 89 78 68 58 48 54 57 59 61 73 75 81 77 75 73 70 73 72 68 67
33 36 39 46 37 52 57 61 70 71 72 73 54 49 53 68 90 87 90 91 88 90 86 97 98 94 85 74 63 60 58 60 61 64 66 71 71 69 66 66 67 68 71 72 71
31 36 36 43 35 48 57 65 71 77 82 94 86 58 61 67 84 90 97 95 91 81 88 97 96 89 87 82 70 62 54 58 59 64 64 64 64 59 56 58 62 63 65 75 73
31 35 31 33 40 46 54 66 72 70 83 94 90 79 78 74 87 89 96 96 84 72 98 97 93 88 86 84 74 71 51 46 51 54 64 54 57 46 44 47 50 56 58 70 67
30 31 30 28 42 50 57 68 76 71 82 85 95 85 87 91 87 85 91 87 77 79 97 96 88 87 88 81 75 71 61 53 52 54 54 54 58 40 38 40 38 46 52 64 68
24 25 26 34 46 52 57 65 73 72 76 84 86 91 93 90 93 84 84 76 72 83 92 97 88 91 83 82 77 71 60 60 59 59 63 52 54 43 35 32 34 36 40 47 61
23 28 31 43 48 51 54 61 73 74 72 74 83 87 92 93 93 88 83 76 72 85 95 96 94 92 88 85 80 71 70 78 74 70 63 51 53 40 35 34 35 35 35 38 44
27 33 39 46 50 53 55 60 75 74 77 72 79 86 96 93 97 92 81 75 75 78 91 98 98 94 87 81 80 75 68 69 72 73 62 53 53 37 31 33 35 35 36 35 37
29 37 45 48 52 55 60 63 71 77 78 75 79 84 93 94 95 95 83 77 78 86 98 97 97 94 91 87 81 80 72 60 63 62 59 49 42 32 27 28 28 28 28 30 32
32 40 49 49 54 58 61 65 74 74 82 86 86 90 91 92 94 98 92 87 95 96 91 86 92 91 91 86 86 77 69 74 72 70 65 51 46 35 31 33 36 33 29 27 26
35 40 47 51 54 62 65 68 72 75 79 82 84 95 97 97 89 91 92 89 91 94 85 84 84 96 91 88 87 82 82 74 69 67 64 58 43 35 35 38 40 38 33 30 29
34 40 46 53 58 60 66 70 72 75 71 78 86 87 94 94 93 88 88 87 86 85 82 80 81 92 92 89 87 82 72 70 75 70 70 65 52 40 38 42 47 47 43 38 35
31 39 45 51 58 57 65 70 73 75 70 66 78 84 83 82 89 85 80 85 81 81 78 73 80 85 83 75 73 76 74 73 73 72 73 69 54 43 49 50 50 51 52 48 45
32 38 45 51 57 56 65 73 78 71 66 65 68 73 80 79 78 85 82 82 81 79 73 70 76 72 73 68 70 76 71 72 77 80 71 61 58 61 59 58 58 59 56 57 54
27 33 40 49 53 56 64 74 80 80 72 67 64 65 64 67 70 77 84 88 83 80 77 75 80 77 73 72 74 74 75 80 80 75 76 59 68 64 62 65 66 66 63 62 61
24 28 36 40 45 56 61 70 77 79 75 71 67 65 62 68 70 67 65 72 84 91 90 85 86 81 83 77 78 78 78 81 78 76 77 74 68 58 53 53 56 63 67 65 63
27 29 30 36 43 50 55 63 77 77 77 74 73 70 67 67 69 71 69 66 63 70 79 83 89 86 80 77 71 68 66 69 73 74 73 75 57 52 50 47 48 52 58 68 63

GFSSW_prec_cthk_060.txt.gz
RH
39 43 39 35 35 35 35 34 34 34 34 30 35 41 67 75 82 95 89 73 61 84 84 65 57 54 65 82 67 73 82 76 78 63 65 63 57 58 49 44 43 43 43 48 60
32 39 39 37 36 36 36 39 38 38 33 34 36 42 65 85 97 96 92 80 63 84 93 73 54 52 63 75 81 79 75 65 69 74 67 68 61 60 54 49 48 46 42 44 54
35 37 39 38 37 39 40 42 43 40 34 37 38 47 61 77 90 90 89 82 68 85 98 89 71 56 62 73 94 77 63 61 72 81 76 72 68 63 62 55 51 50 47 46 52
37 37 38 44 42 40 41 44 48 43 37 36 36 46 58 68 80 84 78 85 73 84 98 92 86 70 61 66 85 85 64 70 75 82 80 76 71 67 66 64 56 54 52 49 50
37 37 40 42 41 43 44 48 51 43 39 38 40 43 53 58 63 67 78 72 77 73 93 96 91 77 56 56 76 91 74 76 82 79 82 83 78 71 68 67 64 56 55 52 53
36 39 40 47 39 42 47 53 53 44 38 37 43 48 51 52 46 55 60 64 80 94 88 96 97 82 57 54 75 65 90 81 75 79 77 82 76 81 66 70 67 63 57 54 55
36 39 41 47 46 33 47 54 56 47 40 39 44 51 59 61 59 49 51 59 76 91 89 98 97 85 68 60 59 67 82 90 83 80 80 81 85 70 68 71 69 67 64 57 54
39 39 42 47 48 32 47 57 57 48 43 42 49 54 61 71 75 72 59 61 78 86 92 97 99 90 74 63 55 60 77 85 83 88 82 90 67 61 76 78 72 69 66 63 56
38 40 40 42 47 36 45 57 60 48 46 48 47 54 65 73 84 77 65 66 82 85 96 98 98 91 75 62 60 64 58 69 80 80 80 79 69 75 73 71 66 68 66 65 63
33 38 40 39 45 37 45 56 57 51 49 51 45 54 55 85 89 83 69 76 92 90 93 97 98 90 81 69 60 59 57 57 59 65 72 71 73 65 68 69 67 67 65 64 64
32 35 39 38 43 39 46 58 59 61 64 70 63 49 50 82 80 79 76 88 84 93 96 97 98 86 69 60 57 56 62 60 59 62 62 67 69 68 65 67 66 63 64 63 64
31 34 37 37 40 42 47 58 57 61 69 78 79 50 54 88 89 75 88 95 98 98 88 96 97 89 82 75 62 55 54 52 53 55 57 60 64 65 65 66 68 69 65 67 67
31 33 35 37 37 43 47 56 59 61 71 82 79 68 67 86 91 92 90 82 95 94 87 90 92 95 87 75 70 60 54 50 46 59 60 59 53 53 55 62 60 60 58 62 69
31 32 34 36 39 44 47 57 64 62 75 82 87 80 84 85 93 96 89 86 92 95 88 93 94 95 89 78 70 74 62 53 51 50 53 50 41 37 42 46 48 51 55 60 68
29 31 34 32 39 47 49 57 70 66 76 79 93 82 81 84 86 95 90 84 86 89 89 90 96 96 87 80 70 67 59 58 51 47 45 47 46 33 36 34 39 42 46 54 66
23 26 26 33 42 47 49 55 71 70 78 82 90 88 81 80 88 93 96 83 89 89 97 97 96 90 86 84 77 70 63 57 52 51 54 42 45 35 32 30 33 34 41 48 62
25 30 35 40 43 47 50 57 73 74 73 79 95 96 94 80 75 85 89 82 81 91 98 97 93 89 84 83 79 71 68 75 70 66 52 47 46 32 32 30 31 31 32 35 43
30 35 37 41 43 48 52 56 73 72 74 78 89 96 92 93 80 78 76 79 81 81 89 97 91 88 83 79 75 75 62 62 63 58 50 49 43 32 28 30 32 31 31 32 34
33 37 40 42 47 50 56 61 71 75 75 75 83 88 99 97 90 82 76 74 75 82 83 96 95 90 88 82 75 73 73 58 57 54 50 39 38 28 26 29 29 30 28 27 28
35 39 41 46 48 55 58 63 71 71 77 84 84 93 91 97 91 83 81 75 72 81 80 87 96 92 88 84 79 72 65 66 63 64 51 43 37 27 27 30 30 29 28 28 26
37 41 44 47 51 57 61 68 67 71 78 81 88 94 91 95 91 77 76 76 77 78 80 86 85 95 89 87 85 77 73 68 61 58 55 45 36 31 32 33 35 35 34 33 31
36 40 45 48 55 56 65 66 66 68 70 77 89 86 91 87 89 83 80 81 86 91 92 86 86 97 97 86 83 77 71 68 65 68 61 57 47 39 37 38 35 36 39 40 38
36 39 43 48 53 53 59 65 68 71 67 68 80 84 78 80 82 82 85 86 93 89 86 80 86 96 97 88 84 82 74 70 67 63 65 61 52 40 39 41 44 46 44 43 41
33 39 45 49 54 53 57 64 69 69 65 64 72 78 79 77 74 78 84 85 89 89 82 77 73 72 68 68 68 73 69 68 65 71 60 57 50 49 51 52 51 51 49 47 48
27 32 37 46 48 51 56 62 70 72 65 63 65 70 68 69 75 76 80 84 84 87 83 78 80 73 65 66 67 66 63 63 67 59 68 59 59 58 61 63 58 52 51 54 56
25 27 35 39 44 50 53 60 65 70 69 67 63 67 64 64 69 72 78 78 79 78 82 77 80 74 74 67 66 68 64 64 63 63 66 68 61 66 59 54 52 52 52 53 59
25 26 29 37 43 48 50 57 66 67 74 71 71 65 69 68 66 66 66 69 76 86 84 81 78 78 76 71 68 68 64 65 66 68 67 68 61 62 56 53 48 45 44 46 52

GFSSW_prec_cthk_063.txt.gz
RH
33 33 40 35 36 35 34 34 34 33 35 33 31 29 30 37 50 56 56 84 80 61 70 81 72 72 68 78 77 75 81 70 64 60 70 54 55 56 55 46 41 39 48 56 65
35 33 36 41 41 38 34 37 38 36 37 35 34 31 32 41 66 82 74 81 90 69 79 85 75 74 70 78 82 84 84 85 52 57 67 57 58 57 57 54 45 40 40 50 59
35 38 37 32 40 44 36 38 41 40 40 32 31 35 39 46 74 87 89 91 91 79 76 86 89 81 68 72 79 82 70 62 61 72 70 61 63 59 60 66 54 45 41 42 52
38 40 37 36 34 47 40 42 45 47 45 33 32 35 44 53 75 85 87 94 93 90 84 91 97 89 73 73 77 80 68 72 78 80 72 68 66 68 65 69 61 49 46 42 47
39 40 37 37 39 44 42 46 50 53 42 33 35 37 44 56 53 62 75 86 87 86 94 85 94 90 71 59 79 86 75 73 84 77 75 71 73 67 68 63 63 58 50 48 47
40 39 40 37 41 46 36 51 53 61 42 36 37 39 52 55 50 44 58 75 84 86 79 93 95 91 73 56 72 74 78 74 85 66 69 77 74 75 66 64 67 64 58 51 51
39 38 41 38 42 48 36 48 65 56 46 39 42 45 51 57 59 57 48 58 73 78 94 92 98 98 79 59 53 77 87 93 86 59 78 72 82 77 66 70 70 70 64 61 54
36 37 38 39 39 47 36 48 62 58 47 44 46 48 47 56 65 68 64 59 57 77 85 98 95 98 87 61 63 73 87 97 82 82 82 67 64 68 77 77 73 71 70 66 64
33 33 35 39 40 44 38 48 62 55 49 52 55 49 53 55 77 76 73 63 62 80 87 99 95 98 85 73 69 74 77 96 92 78 76 65 60 75 83 76 71 72 71 69 67
32 32 33 38 39 42 41 50 58 54 55 66 64 57 58 64 75 78 68 69 78 86 90 96 97 98 85 76 70 64 64 69 84 82 79 74 66 75 75 75 66 69 70 68 66
31 32 33 37 37 39 43 53 65 64 65 72 76 61 51 86 79 74 64 74 89 97 96 95 98 94 74 64 54 46 54 58 63 82 76 73 81 82 71 62 60 60 62 65 66
30 31 32 34 36 37 46 55 64 58 69 74 73 62 60 95 79 69 63 83 96 97 96 98 98 91 78 72 59 55 55 61 66 80 74 76 78 72 62 65 58 56 58 64 66
30 30 32 34 34 40 48 51 64 61 70 81 80 73 76 96 90 85 86 95 97 99 89 91 96 94 83 74 63 59 59 61 62 66 67 65 64 54 49 59 61 59 63 65 65
28 30 32 33 36 43 50 50 67 64 76 80 85 80 83 89 94 96 97 96 95 97 89 89 95 92 87 71 62 60 55 52 56 57 51 46 46 43 39 41 53 58 62 66 67
22 27 32 32 38 47 49 52 67 66 80 79 84 70 78 85 87 87 89 93 91 87 78 87 93 95 92 75 68 63 58 55 60 55 52 53 50 40 37 37 44 50 55 59 63
22 26 25 29 42 46 48 53 68 75 77 86 82 70 68 84 84 81 79 82 82 80 78 90 89 96 89 77 71 67 66 64 68 62 58 44 44 36 41 37 32 37 43 44 47
25 32 35 39 43 44 49 58 75 75 69 86 93 82 71 73 75 79 78 83 84 88 95 94 95 95 91 79 70 61 67 72 71 71 62 45 43 41 38 33 31 31 33 36 40
28 36 36 36 40 45 54 59 71 66 73 79 90 91 81 76 74 67 70 84 90 86 98 98 99 86 81 79 73 72 60 64 65 60 52 51 46 36 32 30 29 28 27 31 32
32 38 38 39 43 48 59 64 66 67 71 78 83 97 98 91 73 71 71 82 81 86 95 97 90 84 82 79 76 79 78 67 65 56 55 50 39 35 30 27 26 26 27 27 27
37 42 42 41 45 51 60 57 64 63 72 80 82 92 97 85 77 78 67 79 77 76 82 92 94 87 82 81 77 78 73 69 68 71 54 50 40 33 29 28 27 27 27 29 28
40 43 41 41 47 53 58 61 63 63 72 77 84 91 94 96 71 68 76 80 74 73 73 81 88 98 84 83 77 76 77 73 70 63 64 49 43 35 32 32 30 30 31 31 30
40 43 41 44 50 50 55 58 62 64 66 77 85 85 90 88 70 69 78 76 68 69 70 72 88 94 93 84 84 77 73 68 67 71 57 58 52 36 35 33 33 34 33 34 35
38 38 41 44 51 49 51 57 61 61 60 68 80 79 77 84 77 71 72 78 78 76 79 81 89 94 93 85 81 80 74 71 70 73 72 64 56 45 41 39 39 39 40 40 38
36 40 42 45 48 48 50 54 59 59 56 59 72 76 75 75 74 73 79 83 86 89 85 83 80 81 80 75 72 75 72 74 74 82 68 59 49 48 45 43 43 46 46 44 40
32 37 37 41 43 45 51 53 58 58 55 55 58 69 72 71 71 77 80 83 85 86 83 83 84 80 72 70 70 70 69 69 73 64 68 56 57 56 52 52 50 47 45 46 44
29 31 35 38 40 45 51 54 59 59 59 55 55 58 58 62 67 68 79 78 77 81 84 77 85 77 78 68 66 66 61 62 63 62 63 58 58 56 55 54 52 50 51 49 45
25 27 29 33 38 43 45 54 59 59 61 59 57 57 60 63 64 65 66 74 78 77 79 82 81 81 77 67 64 60 57 58 59 60 60 62 58 55 56 56 59 60 57 52 49

GFSSW_prec_cthk_066.txt.gz
RH
36 34 32 35 38 41 40 37 34 31 28 29 30 32 29 26 28 34 43 48 51 65 65 55 57 71 56 78 71 68 91 74 62 62 65 59 52 54 55 55 52 45 55 67 75
35 33 35 35 35 38 43 42 34 35 31 32 32 30 30 32 33 43 64 76 54 67 81 70 62 78 71 73 80 83 89 73 56 59 68 62 53 53 55 59 54 47 47 52 68
35 35 38 37 37 37 44 46 35 41 41 40 31 26 30 39 43 57 79 88 89 76 87 82 75 77 81 75 81 81 79 67 66 74 68 68 63 57 55 61 60 52 42 46 52
35 34 38 39 39 40 38 49 41 41 48 41 31 30 33 45 55 50 61 85 91 93 89 90 84 86 88 79 79 85 77 75 76 80 72 61 66 57 61 61 58 57 46 45 49
35 35 36 41 40 40 44 43 47 49 54 44 34 33 34 50 59 54 46 64 83 93 98 92 89 85 88 75 76 84 75 77 78 78 63 73 73 63 60 57 59 59 59 47 52
38 34 36 40 40 39 45 41 39 63 54 52 38 38 45 47 53 59 45 51 77 91 94 91 93 82 81 81 71 71 82 77 76 80 92 76 66 58 56 54 60 62 62 59 49
38 32 33 38 38 39 42 40 38 60 62 51 44 43 48 45 50 59 57 49 63 88 97 91 82 98 95 87 69 75 84 84 86 88 83 75 71 56 51 59 64 66 64 62 57
36 32 31 35 36 40 42 37 44 58 64 49 47 52 53 48 48 53 68 62 59 75 86 92 83 93 98 80 72 73 84 91 83 76 94 75 80 56 63 66 63 64 68 65 62
35 32 30 33 35 39 41 37 45 57 53 50 63 67 66 54 63 79 79 75 61 72 81 94 93 87 97 91 74 78 93 88 88 81 91 90 76 67 66 56 62 65 68 66 66
33 32 31 30 34 37 37 38 46 55 55 66 73 77 69 58 83 76 80 79 69 70 90 94 93 90 98 90 79 71 83 88 76 76 91 92 77 73 68 63 67 69 71 69 66
30 32 31 30 34 36 35 45 55 73 65 68 75 65 56 84 80 85 81 69 75 82 87 97 94 90 90 76 63 60 64 90 87 86 94 92 81 73 67 61 64 65 66 65 69
28 31 29 30 33 35 38 50 54 69 64 74 76 67 72 92 86 67 69 82 87 91 96 99 90 87 91 86 70 60 63 75 83 84 84 82 78 72 63 60 59 58 58 61 66
26 29 29 30 33 34 42 52 55 67 68 78 77 69 76 89 92 80 73 86 91 98 97 96 96 92 96 84 74 62 57 67 88 85 87 83 77 65 60 61 61 60 55 58 64
26 24 30 31 34 39 49 51 57 65 80 81 73 72 76 89 94 90 78 91 92 98 97 92 91 96 92 87 67 68 62 69 71 79 82 71 68 58 55 46 56 63 61 60 62
24 23 29 31 31 44 49 51 62 67 84 80 71 64 75 90 87 81 86 98 98 90 92 97 98 95 86 70 65 68 70 69 59 61 61 66 62 49 47 46 44 41 53 59 62
24 26 26 31 38 44 48 54 64 79 73 83 74 65 75 78 83 84 94 94 90 87 90 94 91 90 86 73 68 65 65 64 61 66 72 59 56 42 46 40 41 40 40 49 56
27 31 34 38 39 44 50 57 73 75 70 80 77 68 72 81 79 76 80 84 86 93 94 95 95 91 86 75 73 66 64 80 77 73 68 45 49 45 42 39 36 33 35 37 43
31 34 34 37 35 44 54 63 69 63 76 76 79 83 75 73 69 70 78 76 76 81 92 97 95 93 87 76 72 74 58 68 65 72 60 51 49 39 39 34 32 31 31 32 32
34 36 37 35 38 48 57 61 66 66 72 78 94 97 85 72 69 70 78 80 81 86 98 95 98 95 86 76 73 71 76 63 67 56 69 59 47 42 35 35 33 30 27 27 27
38 40 39 35 42 50 60 59 63 62 71 77 81 87 82 72 68 71 81 83 82 82 87 87 96 89 86 80 78 76 73 75 81 77 66 62 55 50 43 35 33 32 32 30 30
41 42 40 37 44 54 60 60 62 62 70 78 78 84 86 70 68 66 76 81 74 72 76 82 79 90 82 81 80 83 90 76 71 76 83 69 59 44 43 38 38 36 34 32 30
45 42 39 39 50 51 57 55 60 62 68 76 80 81 83 70 61 67 71 72 72 64 69 72 84 97 91 83 79 77 75 74 82 78 69 76 69 54 45 38 37 36 35 36 34
44 40 39 39 49 48 51 56 61 61 64 71 76 77 78 70 64 66 67 73 69 66 64 70 83 96 96 85 82 86 76 71 69 76 83 75 58 48 46 44 41 39 42 42 39
43 40 41 40 44 50 46 52 60 59 58 64 70 71 73 70 64 68 71 71 74 69 73 78 85 89 90 83 78 83 79 77 79 88 76 72 65 59 54 52 49 49 48 46 39
40 41 33 37 40 45 47 52 55 58 54 57 62 68 65 67 67 70 69 81 77 79 79 83 87 85 79 78 79 73 76 76 81 75 79 69 63 57 54 54 51 49 46 43 40
36 34 35 34 36 42 46 49 53 59 57 53 56 58 60 62 62 65 68 70 71 74 79 76 87 79 80 70 66 67 67 69 71 71 66 63 58 57 56 54 51 53 51 49 46
34 29 27 35 37 42 43 48 56 57 58 57 56 54 56 58 60 59 65 68 72 74 76 78 82 81 78 67 63 65 59 59 60 60 61 64 61 56 57 56 57 54 54 51 50

GFSSW_prec_cthk_069.txt.gz
RH
35 37 36 36 36 33 35 38 37 35 33 27 25 26 28 29 27 26 29 33 37 38 48 47 50 56 80 57 81 83 88 83 71 68 61 62 55 59 59 56 51 55 56 61 70
36 37 39 39 39 36 34 36 42 35 38 34 32 30 27 28 29 29 31 40 52 62 54 58 62 59 65 65 80 92 92 69 63 72 68 62 55 60 63 59 57 56 64 67 69
38 36 37 40 40 39 34 33 42 39 34 39 37 32 30 31 34 39 47 44 57 82 88 58 78 76 61 80 70 92 77 59 70 76 74 66 61 63 66 63 54 54 60 65 58
39 37 39 41 39 38 36 33 38 44 41 47 41 35 30 34 44 40 46 44 50 80 78 71 92 87 68 79 65 94 69 64 75 73 84 69 67 64 64 60 55 53 54 60 52
41 38 38 37 38 38 35 32 40 34 51 54 50 39 35 43 38 42 48 51 46 81 83 87 98 92 75 71 75 78 80 71 77 83 78 79 72 71 64 55 51 54 57 57 61
47 37 37 36 36 37 32 32 40 31 50 62 54 46 44 50 45 44 46 53 47 70 94 99 93 98 78 81 80 67 81 75 81 87 87 77 74 73 66 62 55 51 52 57 64
48 37 37 34 35 33 36 33 39 33 50 63 54 50 54 46 50 46 47 53 55 63 93 98 93 97 85 82 77 73 82 87 83 79 88 90 84 71 71 66 61 56 54 58 63
49 36 36 35 34 33 33 34 36 39 51 63 54 58 62 59 61 51 53 64 63 63 88 97 92 93 84 78 82 76 83 96 95 95 83 89 78 78 75 65 61 56 54 55 60
51 35 35 35 32 32 32 34 33 40 52 54 59 72 68 61 66 76 75 73 76 66 81 91 96 98 86 84 89 85 85 93 96 96 93 93 90 86 80 71 59 56 55 53 56
50 30 35 35 31 31 33 30 37 43 53 61 75 73 60 66 81 79 73 81 87 69 83 92 98 93 92 92 95 84 85 86 95 93 91 88 94 84 76 67 57 56 55 57 53
49 26 32 34 32 31 32 34 47 54 64 65 70 64 65 78 83 74 81 82 87 76 82 93 88 93 96 88 89 83 70 88 82 88 86 95 91 80 77 75 64 53 54 55 58
45 25 29 32 31 32 32 41 47 53 61 68 69 69 73 87 88 73 86 78 78 81 88 94 81 80 91 90 91 80 86 91 93 89 85 90 90 81 80 75 70 62 57 52 58
44 25 27 31 33 32 33 43 46 56 61 72 67 70 76 93 94 84 85 90 83 83 92 95 83 84 92 96 93 82 74 83 89 87 89 86 94 90 76 76 67 58 54 53 56
42 24 26 32 34 34 40 43 46 57 71 78 71 71 77 83 92 92 86 90 90 89 98 98 90 89 94 93 82 74 68 70 81 93 99 91 93 79 72 71 64 59 55 53 55
44 24 29 32 34 38 41 44 51 58 76 79 70 66 74 80 92 95 92 95 91 97 93 90 91 91 91 86 82 68 61 68 76 89 82 82 76 63 67 65 54 58 56 56 56
50 26 31 34 37 38 41 47 54 67 77 81 69 65 70 80 85 90 97 97 94 91 92 85 93 97 93 87 71 73 70 76 80 77 89 72 66 61 62 57 50 42 43 46 50
53 31 37 41 37 39 44 50 63 67 74 78 79 72 75 80 77 80 88 88 87 93 96 97 96 94 91 82 76 72 80 95 92 88 77 61 62 54 51 50 48 45 45 45 40
58 34 38 41 36 40 46 56 56 58 76 79 85 75 71 73 71 69 80 85 83 86 92 96 96 88 80 75 76 75 73 78 78 83 68 54 56 48 45 40 38 38 39 39 35
58 36 41 38 37 43 51 56 57 65 73 85 95 87 72 70 70 74 81 83 81 81 90 90 91 85 78 73 70 68 72 62 64 60 67 58 51 44 42 38 34 35 34 34 31
46 40 45 39 41 48 55 52 58 62 70 80 88 87 74 65 70 82 80 78 74 77 82 81 91 87 78 75 74 73 66 68 75 74 66 65 55 51 46 41 36 35 33 29 28
45 46 48 41 44 51 55 51 55 58 66 75 76 83 65 64 65 81 81 83 75 75 82 82 84 85 80 80 81 78 73 68 67 78 81 68 60 50 49 45 44 40 35 33 32
46 52 50 41 47 51 53 48 54 58 66 72 72 75 68 66 69 68 77 77 70 76 76 79 85 89 86 82 78 77 76 74 80 76 73 74 63 54 52 47 42 42 41 40 39
48 53 48 44 48 51 49 51 58 58 64 68 72 69 63 59 66 64 72 75 69 66 65 66 76 87 85 79 77 78 77 79 78 77 79 75 66 60 55 51 46 44 42 42 41
50 52 49 44 48 50 50 54 59 57 60 64 65 67 66 59 57 61 59 65 70 64 61 68 77 77 81 74 73 80 75 73 76 83 76 74 64 63 59 56 55 53 51 50 47
50 44 37 41 43 48 47 50 55 54 57 60 64 68 66 63 60 63 61 67 74 69 70 76 81 79 78 77 78 74 73 75 76 73 75 67 72 69 66 64 61 60 56 53 49
49 45 37 34 33 46 46 48 53 55 52 56 62 65 68 68 65 62 64 68 74 74 75 75 81 77 82 75 76 75 68 72 76 75 73 72 71 66 67 65 63 57 55 55 52
42 38 31 34 37 44 45 46 52 54 55 55 58 62 64 65 62 60 63 64 69 71 71 72 75 78 80 68 67 68 63 64 67 70 72 73 67 65 65 63 61 59 58 55 53

GFSSW_prec_cthk_072.txt.gz
RH
46 38 34 42 42 43 40 36 36 37 32 35 29 25 22 22 24 26 26 25 27 31 31 35 39 50 52 66 56 68 96 80 72 72 58 60 58 59 62 66 63 65 66 62 71
51 49 36 39 40 43 40 37 34 37 35 34 34 29 27 27 26 26 30 33 39 35 38 41 48 50 57 61 70 74 90 78 60 67 60 66 62 63 65 68 67 65 66 68 65
62 55 45 42 38 42 42 39 34 33 41 36 35 34 32 30 30 34 43 43 37 32 43 56 61 60 63 68 77 62 81 75 64 75 65 70 66 67 62 67 65 62 61 57 60
75 62 52 40 36 39 41 39 35 34 38 44 44 44 36 33 35 42 46 44 38 37 47 74 83 84 77 71 73 74 68 79 72 76 73 73 72 74 66 61 61 62 64 55 59
84 70 58 40 35 36 39 39 35 37 35 40 54 52 45 42 36 40 47 45 41 47 48 76 82 86 87 69 71 74 68 82 82 83 81 78 79 72 68 64 65 62 65 69 68
89 76 63 43 36 35 38 39 36 40 32 42 57 57 52 49 46 48 53 46 42 50 53 85 94 86 89 81 64 67 63 83 85 77 80 88 84 81 69 69 66 62 62 65 68
92 86 69 42 35 35 38 38 38 37 32 44 58 60 58 50 46 53 58 55 47 50 64 84 95 98 98 82 63 74 73 83 90 76 85 88 90 82 70 66 65 62 59 61 60
85 89 80 43 36 35 39 38 35 34 36 49 60 60 59 55 54 56 62 65 63 63 71 90 89 98 93 84 71 72 82 86 90 86 86 94 90 88 75 69 67 64 57 55 59
81 95 82 41 37 36 41 38 33 33 42 51 54 68 61 54 70 77 81 76 74 78 73 93 97 98 98 88 79 80 84 79 95 89 91 87 95 88 85 76 71 66 60 56 55
84 87 85 41 41 38 40 35 34 38 45 52 67 70 60 67 80 72 74 81 83 89 76 89 98 96 99 89 91 78 84 78 97 96 96 90 88 94 82 78 73 68 61 60 59
76 82 79 47 41 38 41 38 43 49 54 54 65 66 66 79 83 74 84 89 97 83 78 88 94 96 97 86 80 78 77 79 93 89 91 95 89 92 90 80 75 68 65 59 56
78 80 73 43 37 39 41 39 42 44 55 60 61 66 70 81 91 81 83 80 87 79 81 87 96 83 94 87 80 82 80 85 86 95 95 96 92 92 93 84 77 73 65 59 56
79 76 67 50 36 41 39 41 41 48 56 68 63 64 72 84 96 88 86 90 83 80 87 94 93 81 81 81 82 84 79 86 86 94 93 92 92 89 87 82 78 71 67 60 51
84 69 59 53 35 44 42 42 41 52 64 70 65 61 76 91 95 86 83 86 90 93 94 95 94 92 81 79 84 95 81 73 92 96 93 84 91 86 78 74 69 68 67 62 54
86 71 59 60 37 43 42 41 45 55 70 69 61 60 77 87 91 91 97 97 95 97 92 90 92 88 90 96 90 78 80 77 86 98 98 94 86 72 75 74 67 64 63 59 56
80 63 66 64 40 46 42 43 49 62 68 73 61 66 77 78 86 91 96 96 97 98 96 88 89 87 86 84 79 74 82 89 88 93 98 88 85 63 65 65 60 61 59 56 53
80 68 70 61 45 46 43 47 56 60 66 75 65 68 75 75 80 86 90 94 93 94 97 89 93 94 94 86 80 76 81 97 98 97 89 76 76 61 55 58 52 50 58 54 54
76 70 70 69 45 45 45 54 53 54 74 72 72 68 71 66 70 76 80 89 92 87 96 97 98 96 88 82 83 81 70 83 90 92 80 70 68 57 50 51 52 47 49 52 51
71 71 75 60 47 45 49 54 50 58 67 79 83 71 65 63 71 74 75 89 82 87 92 88 98 90 87 79 78 76 76 67 70 74 75 70 58 55 52 48 45 49 44 42 41
88 79 75 44 49 47 52 53 54 58 69 81 87 75 65 60 71 77 84 80 79 84 81 79 88 83 76 74 73 73 74 73 74 72 68 67 57 58 55 48 40 40 40 38 37
88 81 81 47 50 52 53 51 53 55 63 71 73 69 62 61 70 81 80 74 76 78 76 73 74 77 73 80 77 71 69 68 69 72 70 65 55 47 50 51 50 45 41 38 36
92 85 72 51 50 52 52 47 52 55 62 70 69 61 61 66 72 75 75 77 77 76 76 76 78 85 83 77 78 75 70 66 70 70 74 69 58 52 53 53 51 48 45 42 38
92 90 60 54 50 51 47 50 57 56 62 69 70 61 56 60 67 66 68 67 67 68 69 69 78 82 76 70 70 74 73 71 70 72 78 72 65 59 61 59 56 51 49 49 46
91 79 59 55 47 50 50 54 58 56 62 66 67 63 55 58 59 61 69 64 62 58 54 60 67 68 74 68 68 73 71 72 74 84 78 78 69 66 65 61 56 54 52 50 48
85 58 47 48 48 51 52 56 55 56 58 64 67 62 60 60 57 60 59 63 65 57 56 64 72 72 70 69 68 68 70 71 72 73 76 71 71 73 71 71 68 64 63 61 58
92 58 45 40 40 52 53 57 54 55 57 60 66 65 58 60 54 54 56 58 63 64 67 69 76 71 76 68 68 70 67 68 74 74 74 74 75 73 74 73 73 72 70 69 64
76 45 38 41 44 52 50 52 53 52 56 60 63 68 67 60 56 55 56 57 62 68 72 70 71 74 79 71 66 70 64 64 68 74 74 79 78 79 79 77 76 75 71 66 62

GFSSW_prec_cthk_075.txt.gz
RH
82 72 70 56 44 36 42 43 41 43 44 38 38 34 26 22 20 20 20 22 23 25 29 31 31 34 45 52 45 60 75 67 73 78 49 54 60 61 58 55 61 64 69 68 68
83 81 80 71 53 39 40 45 44 44 43 43 36 34 29 25 24 23 24 28 33 36 31 35 34 36 40 46 61 58 68 54 55 80 64 57 64 63 67 65 67 66 72 72 70
83 88 84 76 63 44 37 41 45 45 41 41 48 41 36 31 30 30 36 39 41 37 33 40 44 46 46 42 55 63 63 49 60 80 73 72 70 67 67 72 64 63 73 67 67
69 77 87 87 82 55 35 39 44 45 45 38 49 48 47 41 35 41 40 41 43 43 39 46 51 55 53 51 53 79 53 63 62 69 81 79 76 73 69 66 67 68 69 72 67
77 70 88 88 84 72 37 42 44 46 48 39 45 51 53 50 42 39 43 47 45 44 46 50 56 64 62 62 63 80 61 65 69 70 85 84 79 80 69 67 70 73 82 73 63
82 70 78 90 88 75 39 46 50 48 48 38 45 53 56 57 46 49 52 50 48 48 52 46 54 67 77 78 82 71 68 69 72 74 84 76 75 80 74 72 74 72 75 73 64
73 67 79 84 84 68 45 48 45 49 45 38 46 58 61 56 50 52 52 56 56 57 55 50 58 76 86 88 82 76 77 74 72 88 90 78 89 83 77 74 75 73 76 79 70
65 73 76 82 76 59 57 49 44 47 44 41 53 62 63 59 52 57 66 73 74 67 63 66 75 90 96 93 91 82 90 82 69 93 92 88 82 81 84 82 81 77 73 72 76
63 66 69 80 75 56 55 45 43 44 46 46 61 60 62 56 65 76 81 71 71 77 80 80 93 99 98 93 98 81 90 72 74 87 94 94 79 81 92 88 85 80 71 68 66
65 64 73 83 71 57 55 45 42 45 47 49 58 67 61 61 73 73 72 78 84 82 87 92 98 97 96 99 90 77 77 77 71 80 91 95 82 86 94 89 83 79 76 69 67
56 66 69 88 74 62 55 45 46 51 48 51 58 60 60 66 73 68 75 88 89 96 88 88 96 98 93 94 92 69 70 72 74 83 85 94 84 85 92 89 82 76 72 70 67
66 65 73 83 64 63 55 45 46 49 52 53 58 59 67 68 75 74 75 76 83 77 78 88 92 94 95 97 88 73 75 78 83 89 96 94 94 92 88 94 87 80 75 69 67
68 71 76 74 69 69 56 50 48 49 53 60 61 59 67 71 79 77 77 80 80 73 78 86 85 86 93 91 96 81 69 79 77 82 93 96 97 93 95 95 85 79 73 66 61
70 65 72 74 74 70 59 57 48 49 60 64 60 63 68 77 86 86 80 79 86 87 81 82 80 82 83 86 87 81 73 77 86 95 99 91 96 94 86 87 88 75 71 65 60
72 74 83 70 81 69 56 59 48 52 60 63 59 62 69 79 83 91 93 94 89 90 98 98 88 80 81 75 68 66 76 83 88 90 95 96 92 73 74 76 73 74 68 66 63
87 79 72 82 85 70 62 56 51 60 59 69 58 62 70 75 85 89 91 98 94 98 99 96 85 78 74 72 80 90 89 87 89 98 98 97 86 66 71 69 72 70 67 65 66
85 82 85 89 81 70 64 55 57 60 57 72 61 62 67 75 81 87 90 93 94 98 96 95 92 86 83 92 86 87 90 96 97 98 94 86 90 69 61 63 63 62 60 62 61
90 92 88 89 82 72 64 59 52 49 65 70 59 61 66 71 72 84 91 94 95 98 94 91 95 94 93 81 79 81 81 95 94 91 83 78 83 65 59 58 56 52 54 59 59
89 90 91 93 78 73 61 57 47 52 68 73 60 63 62 65 77 81 93 88 90 89 91 96 96 91 83 79 77 76 81 72 80 78 88 78 63 57 53 56 59 50 52 58 58
94 88 98 85 90 70 61 50 52 56 72 77 66 59 60 65 74 87 84 84 88 86 89 85 86 86 81 76 71 71 67 65 71 85 76 73 61 61 58 53 53 57 53 52 53
90 95 89 95 84 79 59 49 50 56 67 76 68 61 58 63 74 79 74 75 84 82 80 76 76 81 77 87 87 77 70 68 68 67 70 65 56 52 56 60 51 48 50 46 43
84 96 98 96 89 74 49 47 47 56 65 72 62 56 54 65 71 74 73 75 78 76 76 73 76 83 81 75 73 74 74 71 74 71 71 64 54 50 50 54 56 48 45 43 41
98 98 98 96 85 59 42 42 51 57 65 69 58 54 53 65 69 66 67 70 71 70 69 65 73 77 73 68 70 70 66 62 62 67 71 67 59 53 55 54 51 51 51 50 48
98 98 98 91 68 44 46 47 57 58 65 69 57 50 57 59 63 64 63 62 63 60 62 60 68 63 71 64 65 69 70 68 66 73 70 67 62 62 60 60 60 60 59 56 54
97 97 96 74 55 44 47 49 59 62 66 66 61 51 52 60 58 63 64 62 59 52 50 56 67 67 66 67 66 67 66 68 71 69 72 67 64 68 67 67 68 66 65 64 59
97 97 88 52 43 44 51 56 56 63 66 63 62 55 55 57 52 59 60 59 59 55 57 62 70 65 68 63 62 65 64 67 69 67 67 66 67 66 69 70 71 72 71 68 67
97 96 69 49 44 47 52 55 56 60 65 65 63 58 60 57 54 55 49 50 57 57 62 63 66 67 71 66 60 63 58 61 59 62 66 71 66 68 70 71 70 70 71 72 71

GFSSW_prec_cthk_078.txt.gz
RH
57 65 69 69 80 78 73 63 46 40 41 46 48 40 43 35 27 23 19 18 19 22 33 34 33 34 40 45 47 49 56 59 51 56 48 57 69 70 66 62 60 64 61 60 73
62 64 60 64 72 83 83 67 56 48 44 43 47 51 49 39 29 26 22 22 25 32 28 27 33 34 38 46 52 65 61 40 35 39 45 60 65 68 74 68 65 59 65 70 76
57 61 66 71 65 83 85 72 54 52 52 48 45 54 57 49 38 29 33 32 39 36 34 30 34 39 41 41 48 56 55 40 37 42 47 60 71 72 75 78 64 55 61 67 67
59 60 66 75 75 69 78 71 51 59 63 58 49 54 57 52 42 36 41 41 42 41 39 37 41 47 49 47 45 57 43 52 44 44 54 56 80 78 79 69 66 62 58 68 70
53 58 71 74 73 76 80 64 49 61 64 56 49 54 58 52 46 45 49 47 47 45 45 44 46 53 55 53 54 58 45 52 50 53 59 53 78 83 77 74 72 71 70 66 67
51 54 64 71 75 73 80 65 44 55 67 54 47 53 59 56 50 47 46 52 49 50 50 49 49 54 64 64 68 56 47 46 57 58 61 70 70 87 71 81 75 73 70 73 72
50 53 57 78 63 72 77 63 46 52 66 52 45 54 60 56 52 49 48 49 56 59 62 61 59 60 64 64 60 60 70 60 59 60 67 74 79 82 91 78 77 75 75 78 76
39 55 53 60 63 67 75 72 59 55 65 50 47 58 61 54 49 50 59 66 74 79 80 80 69 66 62 66 81 83 81 72 59 63 77 78 73 80 94 84 76 73 82 79 88
35 43 57 64 80 82 76 85 57 52 62 51 54 62 56 50 54 61 63 65 73 75 80 86 87 77 87 87 97 93 88 72 82 62 79 82 89 89 91 81 77 78 82 84 86
33 44 57 68 73 73 74 81 59 50 68 58 57 57 54 58 59 66 66 71 84 84 89 91 90 90 99 98 97 88 88 91 83 64 76 91 96 90 85 81 82 85 86 86 85
23 40 54 61 70 75 69 81 76 62 68 49 49 53 58 60 64 68 67 69 85 85 88 89 88 94 93 98 95 93 82 94 73 64 72 87 92 95 95 90 87 83 84 82 83
25 35 51 67 74 73 73 68 69 64 65 53 52 55 61 63 69 70 67 70 71 73 74 84 83 90 92 97 96 99 76 92 78 74 82 84 89 95 93 86 89 88 85 84 79
25 37 52 68 76 80 88 70 65 65 63 51 58 56 61 65 76 74 66 65 71 72 76 82 78 86 87 91 99 91 68 73 80 86 86 80 83 96 90 81 88 90 91 84 82
32 37 57 61 77 66 71 75 67 70 68 57 62 59 67 71 79 81 70 73 79 85 83 84 77 80 91 98 91 85 74 70 80 80 90 86 97 96 90 83 83 86 88 84 81
38 40 50 65 77 73 91 79 67 75 66 60 61 60 68 75 77 81 88 92 90 94 95 91 83 84 93 95 86 84 79 88 88 88 88 94 98 87 84 80 81 84 85 84 81
43 52 50 60 85 80 86 77 68 77 59 65 61 62 68 75 74 84 91 92 97 98 98 95 84 83 86 87 85 83 79 87 86 88 91 97 93 77 84 75 74 80 84 83 82
63 65 66 66 89 84 89 80 84 72 51 70 62 59 64 71 74 85 90 96 99 95 94 90 88 85 80 81 80 79 74 95 96 96 95 92 96 79 68 67 73 77 79 81 79
82 69 65 80 93 93 90 86 76 55 58 68 56 60 63 69 74 84 89 98 95 87 91 89 91 83 77 90 88 86 91 91 94 93 92 84 87 73 66 67 73 69 76 81 79
78 68 71 97 94 91 94 83 63 48 57 68 54 58 62 65 80 78 87 95 90 91 92 98 98 98 94 84 82 87 90 76 76 79 89 79 69 66 66 68 71 71 72 72 74
79 71 93 93 97 96 90 75 64 52 65 64 56 53 60 70 78 79 79 84 95 94 88 88 93 88 84 80 76 75 71 75 86 89 84 78 71 69 68 66 69 65 62 63 69
87 91 98 98 98 98 88 71 57 58 69 68 61 58 65 76 76 76 78 81 89 86 82 79 80 85 79 81 81 72 69 67 67 73 75 79 66 63 65 61 60 67 62 61 65
98 97 98 98 98 95 85 62 53 59 67 65 56 57 64 72 68 74 75 81 79 80 77 74 80 84 83 78 79 77 71 64 66 65 66 62 58 58 57 62 61 55 57 56 55
98 98 98 93 97 94 70 54 60 59 64 59 56 53 59 70 73 71 73 75 72 71 70 65 71 76 75 70 66 67 64 61 59 60 64 62 56 51 53 54 56 55 54 53 50
98 97 95 96 97 76 60 54 61 60 62 54 53 53 59 66 66 68 71 71 70 67 66 63 65 61 66 58 62 66 63 60 57 64 61 55 55 54 53 52 53 53 52 52 51
93 98 95 97 87 64 58 55 57 61 62 54 52 52 56 65 62 65 65 63 59 56 57 59 67 66 64 62 60 60 59 58 60 57 58 55 54 55 55 58 58 57 56 55 57
96 98 97 66 65 58 60 56 58 63 60 56 53 53 55 57 56 63 61 58 56 49 54 59 67 62 64 59 57 58 57 58 58 57 56 55 54 55 57 61 62 63 63 63 62
96 96 88 60 55 57 59 57 57 64 64 59 56 53 56 57 55 59 58 58 56 58 58 59 63 64 65 59 54 56 54 57 58 58 59 62 61 64 63 64 66 67 67 66 66

GFSSW_prec_cthk_081.txt.gz
RH
47 45 50 56 62 64 63 61 58 60 52 51 55 59 57 51 45 39 34 26 23 23 29 27 27 27 28 38 41 48 52 43 40 42 31 32 49 52 67 67 66 68 60 65 63
47 48 50 55 62 71 68 66 66 55 39 49 50 53 66 57 51 43 36 31 24 30 34 29 28 31 32 38 46 55 53 39 28 29 37 40 49 52 72 73 71 69 70 77 68
47 47 50 57 57 70 75 69 68 62 47 49 47 50 67 58 49 36 35 32 37 39 37 32 33 37 41 40 45 50 50 42 40 36 42 50 51 56 71 80 69 67 74 74 70
48 50 48 50 57 63 62 72 68 57 53 46 50 50 67 58 48 40 43 43 43 43 41 39 39 44 48 48 44 52 40 49 42 46 47 46 49 62 69 70 69 66 71 76 71
41 45 50 49 55 57 72 75 69 58 52 50 57 51 66 55 49 49 50 52 47 42 41 42 44 48 53 53 53 53 37 40 43 48 50 51 50 54 63 74 77 78 76 76 75
37 42 42 48 52 58 63 70 60 62 63 61 66 53 62 58 51 49 45 48 44 44 46 48 50 53 56 57 61 55 52 47 43 42 50 53 44 58 50 71 81 75 74 80 72
29 31 45 43 53 61 60 61 68 78 64 64 64 55 66 54 51 45 42 41 46 50 55 59 63 67 65 62 63 62 63 58 52 43 50 52 52 52 47 65 81 77 76 79 77
30 27 38 41 52 58 56 64 69 77 73 67 60 64 69 57 45 42 46 55 58 58 63 70 76 81 75 65 60 65 73 68 42 45 40 61 52 39 50 66 79 80 83 89 86
30 24 29 43 48 61 62 60 67 68 60 58 64 68 67 48 45 47 54 55 57 65 71 79 84 87 88 72 70 64 65 67 50 47 44 58 53 49 58 65 81 82 88 88 88
32 29 25 42 49 67 59 67 71 82 72 67 68 73 59 49 48 55 59 53 59 73 74 81 87 89 85 92 94 85 88 83 70 46 50 58 64 69 61 74 75 85 87 90 92
33 31 32 37 47 60 68 64 62 66 82 68 58 66 60 57 54 61 59 54 59 70 75 81 91 93 90 94 94 95 96 84 67 56 52 62 76 79 73 77 79 86 84 86 87
36 33 38 53 52 59 69 64 70 84 79 70 69 63 60 61 61 65 62 59 63 69 75 81 84 83 90 98 98 90 95 95 94 67 74 71 84 89 92 95 96 97 90 84 81
37 39 39 58 59 57 78 73 78 77 75 64 65 61 60 62 65 73 66 64 68 72 73 80 73 84 91 98 98 97 95 91 98 88 75 76 86 88 85 87 92 93 93 87 82
43 42 39 53 60 52 78 67 72 69 76 74 68 61 64 64 71 75 77 72 84 82 81 86 81 84 85 96 96 90 79 86 85 83 98 91 93 86 86 84 89 84 86 85 84
56 52 44 56 59 50 65 84 85 82 91 72 73 60 63 68 71 76 80 90 92 96 93 76 85 83 94 98 93 81 71 84 89 89 88 90 78 79 82 87 83 82 81 84 87
63 63 62 51 60 54 70 85 87 79 88 80 67 61 65 70 73 80 89 97 98 96 92 77 81 95 89 88 88 90 87 90 89 87 92 91 78 78 87 83 78 78 73 79 89
92 71 73 74 71 63 82 94 91 93 71 76 63 57 60 69 76 86 94 99 94 90 85 81 85 88 83 86 83 86 81 94 95 89 89 91 91 79 75 77 72 76 74 80 90
85 65 74 73 75 68 83 97 93 73 68 65 57 55 60 66 77 81 94 93 88 88 88 89 81 83 80 82 80 77 79 84 89 92 95 93 94 80 77 76 74 73 76 82 86
98 70 69 72 68 78 92 96 79 70 63 66 52 52 57 67 78 87 94 94 90 93 97 92 84 83 81 82 83 94 87 74 81 82 83 81 78 77 77 75 77 77 79 81 87
80 77 71 71 79 83 98 90 78 69 63 54 49 49 56 72 78 82 92 98 98 93 95 97 95 85 86 91 85 87 80 79 84 84 94 82 72 76 74 72 71 74 80 85 84
85 78 85 81 83 97 93 88 81 64 65 54 52 57 63 71 76 83 92 91 93 88 86 81 81 91 83 86 85 73 74 66 65 70 75 76 69 68 67 67 71 70 73 75 77
88 89 87 95 98 97 96 80 63 69 70 60 53 62 66 70 75 82 87 90 83 82 81 76 82 89 84 80 77 76 67 58 57 57 59 58 58 59 67 72 68 70 69 69 69
84 90 98 98 98 97 84 66 67 70 66 61 59 59 61 69 72 75 81 79 77 74 73 71 76 84 82 74 75 73 68 61 55 54 57 55 55 54 58 61 63 60 62 64 63
85 94 98 98 97 90 74 62 69 69 66 59 60 56 62 67 66 71 72 71 70 70 67 63 68 63 68 65 68 67 65 59 55 59 57 52 55 54 55 56 57 59 60 57 56
91 96 95 98 97 73 63 65 67 70 65 58 56 56 61 64 64 68 65 63 61 62 60 61 67 65 64 64 63 63 63 60 58 56 55 50 52 55 56 59 60 60 60 59 58
90 92 91 97 86 61 59 63 67 68 64 59 55 54 55 57 57 59 56 52 53 50 57 56 66 62 63 59 58 60 60 60 58 58 58 57 57 60 64 67 70 68 65 63 63
89 90 74 62 63 53 61 65 64 65 64 58 55 51 54 55 54 55 55 52 53 53 53 55 59 60 62 55 53 55 55 58 60 59 57 58 58 62 63 67 68 70 71 70 69

GFSSW_prec_cthk_084.txt.gz
RH
47 48 48 49 46 51 53 57 58 57 49 47 35 37 38 41 44 53 49 41 35 32 34 34 31 28 27 37 40 40 46 40 34 30 31 30 35 34 38 46 61 63 64 62 65
44 49 51 52 52 54 53 58 58 57 53 45 42 34 37 38 43 47 46 42 36 37 37 34 33 30 31 34 42 44 42 38 27 31 35 34 39 35 43 48 52 69 68 65 60
44 41 49 54 55 58 55 61 57 61 55 54 44 39 41 41 47 44 43 40 41 42 42 35 34 35 34 39 41 43 45 39 39 40 41 40 39 42 46 47 50 68 69 65 66
42 43 42 46 52 56 56 56 60 59 50 51 49 53 46 45 54 49 58 55 50 43 38 38 40 42 43 42 41 42 40 38 40 49 49 41 45 45 50 48 56 71 78 73 74
35 36 37 41 46 53 58 58 59 54 49 53 56 50 50 53 51 58 59 55 48 41 39 38 40 43 46 48 50 46 39 42 42 45 43 46 44 42 44 46 56 65 75 69 74
42 36 33 33 41 47 55 60 63 64 53 58 58 54 56 51 53 56 50 49 43 37 36 39 43 46 48 50 51 50 53 50 50 44 41 42 41 51 34 44 62 64 66 68 66
37 36 34 33 43 50 59 65 65 61 59 62 54 45 49 55 52 54 47 37 41 41 42 47 52 54 56 56 55 56 52 47 48 46 51 39 38 36 35 41 56 65 74 76 71
42 33 31 29 44 52 57 65 71 62 59 60 58 58 57 56 52 53 44 45 47 41 47 55 62 65 67 69 67 67 61 64 36 42 44 51 34 26 35 42 46 58 68 75 77
44 36 32 30 38 50 68 63 66 71 62 64 58 56 55 60 55 53 50 51 49 47 55 58 65 74 79 82 80 69 56 55 50 49 46 56 33 30 39 42 43 53 64 71 72
38 39 33 33 30 57 49 56 77 65 82 59 54 64 70 62 56 51 53 54 50 54 63 65 74 76 78 84 80 75 83 69 56 52 56 57 34 39 50 50 49 56 64 75 73
32 32 29 44 44 60 58 61 88 75 62 61 63 67 65 59 57 57 59 59 57 57 63 67 75 75 82 89 87 87 91 93 87 70 65 52 40 40 63 63 62 59 64 77 77
38 32 28 49 79 84 62 60 61 74 77 84 67 66 62 61 61 64 64 59 58 59 60 69 68 65 77 84 91 96 96 81 81 76 66 57 49 49 72 70 61 61 67 84 87
59 47 37 40 60 88 66 72 77 73 69 62 64 63 64 62 64 69 75 67 67 70 70 75 64 68 83 90 98 98 97 91 89 82 71 60 59 73 72 74 63 61 72 88 91
72 66 55 43 68 73 77 70 77 67 66 64 69 72 67 63 68 74 79 74 80 78 73 75 70 75 87 93 97 98 95 95 94 88 77 69 74 76 70 69 59 69 74 83 95
71 69 67 58 66 67 67 63 79 82 86 70 78 73 62 68 73 79 82 88 91 85 85 67 77 90 97 93 93 85 89 95 91 89 74 73 75 75 76 66 68 69 74 91 98
87 87 81 68 54 57 65 67 76 84 73 81 81 64 66 71 76 85 91 92 91 86 80 76 80 88 89 80 75 80 88 96 91 83 95 88 89 81 75 75 75 82 89 94 95
96 95 85 84 70 62 65 76 83 85 78 88 70 60 64 75 82 88 87 85 83 82 79 79 83 83 87 92 91 93 91 91 92 85 89 92 81 79 68 73 78 74 79 88 93
96 86 73 73 76 70 81 88 91 89 79 75 61 60 66 73 78 87 86 88 87 89 88 90 80 81 84 87 94 87 90 88 82 89 94 83 80 74 79 76 71 71 77 80 82
95 88 72 67 69 78 82 94 91 81 66 68 58 65 68 76 84 85 89 90 91 89 90 85 81 77 79 82 87 84 91 78 82 78 75 81 81 76 80 82 74 78 80 80 83
88 64 70 66 69 79 83 97 89 65 69 56 54 56 67 71 81 82 96 97 98 91 86 85 91 88 97 94 95 93 83 83 79 83 88 71 71 73 75 82 85 83 82 85 87
66 65 72 74 74 81 95 92 78 75 60 56 56 58 63 72 76 80 91 93 92 91 83 78 79 92 87 89 87 77 73 69 66 66 65 61 63 65 69 73 82 81 83 85 85
74 75 87 84 83 96 98 90 81 80 69 63 58 62 64 69 74 77 84 86 85 87 82 77 75 84 80 75 74 75 61 56 56 55 54 51 59 65 65 67 72 79 80 81 82
78 78 90 94 97 98 86 73 87 80 68 64 61 61 64 67 69 74 77 77 76 76 76 72 73 80 75 69 65 63 59 51 48 47 52 49 59 63 64 65 67 70 71 73 76
76 84 95 97 97 82 68 86 83 75 67 61 60 61 62 62 63 71 71 71 70 69 67 65 66 65 62 66 65 60 58 52 47 52 45 48 56 62 65 65 63 64 60 62 64
85 90 90 96 72 63 73 82 71 69 61 56 56 57 57 57 60 64 64 62 60 62 62 61 69 67 60 58 60 59 59 55 53 49 48 49 51 56 59 60 63 63 61 58 56
70 81 92 78 54 60 67 75 68 65 57 53 52 54 52 53 55 58 55 53 51 50 56 55 65 59 60 49 51 54 54 53 51 50 49 49 50 51 54 58 60 60 59 58 59
72 47 47 56 50 54 66 67 64 60 57 52 49 49 51 55 54 54 49 47 48 48 48 50 53 57 57 49 45 46 48 50 51 51 50 49 52 53 55 58 59 58 58 59 61

GFSSW_prec_cthk_087.txt.gz
RH
44 46 42 47 50 53 58 53 54 51 52 46 46 43 34 26 31 36 41 38 33 30 33 46 42 39 35 41 43 49 48 43 38 43 37 32 32 38 40 41 43 48 54 52 63
45 50 47 46 49 51 54 62 59 57 55 52 47 41 39 30 39 40 35 31 34 39 42 43 44 43 38 37 43 48 44 41 37 38 37 38 37 36 35 39 39 41 51 59 65
45 45 46 47 46 52 52 55 65 61 63 55 50 45 44 32 38 39 34 30 32 41 46 43 40 38 40 41 42 41 43 41 42 45 46 46 45 41 42 42 41 44 40 62 70
46 43 42 45 44 47 55 58 62 63 62 55 51 49 42 37 41 41 37 41 46 45 45 44 49 47 42 42 43 41 38 38 40 44 52 51 44 37 43 47 53 53 57 57 71
50 48 46 40 37 39 50 62 60 67 64 57 54 51 48 45 41 36 41 46 46 42 43 40 39 39 41 40 44 44 43 39 39 39 41 48 46 41 35 39 51 59 60 55 65
53 50 46 47 38 44 41 58 61 69 65 60 55 54 51 41 44 43 42 43 48 45 44 39 39 41 40 39 42 43 48 51 51 44 47 44 38 38 29 37 37 42 50 53 61
57 55 49 40 41 50 47 61 63 68 66 67 59 54 58 47 46 45 41 45 47 43 44 43 43 44 44 45 45 44 47 47 43 44 47 50 45 38 27 32 34 33 41 55 58
64 54 53 43 39 47 53 71 71 73 79 76 56 63 56 46 45 50 49 48 44 44 42 46 52 54 54 54 52 52 52 51 37 41 43 56 52 37 30 29 32 34 40 55 57
48 43 43 38 36 37 57 67 71 64 79 72 68 70 53 46 54 56 51 50 45 47 46 50 57 59 63 67 68 67 64 57 48 54 52 61 59 36 34 32 29 33 36 52 61
45 37 37 34 39 37 69 58 88 91 76 77 77 68 57 58 52 51 51 53 48 50 54 56 64 64 67 78 72 65 68 64 56 60 64 60 58 40 49 35 39 36 41 52 63
52 40 30 38 52 61 65 69 83 77 76 83 74 61 64 55 50 55 56 54 50 54 56 57 68 67 65 70 74 73 71 67 65 71 76 67 43 48 46 62 48 48 57 55 63
74 61 38 32 56 78 67 80 83 78 91 81 78 82 62 58 57 61 62 59 56 57 60 66 73 66 65 72 79 85 89 81 74 71 77 79 50 51 51 54 63 55 56 60 64
70 62 60 42 45 94 84 88 81 69 75 79 83 65 58 59 62 67 62 66 64 62 65 69 63 63 70 81 87 90 96 91 90 80 78 74 64 52 56 56 72 66 63 67 62
68 58 55 57 54 83 96 77 85 89 91 78 66 65 63 67 65 63 71 72 75 76 72 66 64 70 82 92 96 96 85 82 88 94 83 66 69 48 65 61 71 67 55 62 61
75 77 60 62 61 71 99 95 86 92 84 77 73 73 71 71 66 71 75 85 89 84 78 64 68 79 82 87 97 88 88 80 81 85 95 75 69 53 58 64 70 62 56 61 60
90 90 68 68 47 70 82 67 86 89 89 81 77 75 69 62 67 81 86 87 85 83 73 71 68 78 75 80 89 95 98 90 90 96 95 90 90 78 71 71 63 63 58 65 68
94 95 69 72 52 57 61 65 90 92 79 82 77 70 58 65 77 82 85 83 83 80 76 68 68 75 82 96 89 95 98 95 98 98 79 77 97 76 75 74 65 58 70 74 77
95 74 70 68 58 56 64 91 95 82 91 83 70 58 61 68 80 87 91 89 81 82 80 77 78 75 80 85 86 88 90 97 89 86 88 91 98 96 83 75 71 79 88 90 85
79 71 66 61 62 70 92 97 95 90 85 69 56 59 67 75 85 85 84 85 85 82 88 84 84 74 82 83 88 87 98 91 96 84 90 96 89 84 93 85 88 92 95 97 93
57 61 63 68 90 98 98 97 93 84 68 56 55 59 73 80 88 84 86 91 86 81 81 80 90 87 89 85 88 93 87 85 83 90 83 74 77 87 94 91 90 93 91 88 96
50 62 83 90 92 96 98 98 86 74 61 60 58 63 73 80 81 81 88 91 90 82 82 84 87 92 96 92 87 83 75 70 69 70 81 64 79 79 86 94 93 91 89 91 96
51 61 75 86 86 95 98 88 77 67 57 60 61 66 72 78 81 80 83 81 79 78 76 73 72 78 76 73 71 75 67 64 67 63 61 58 77 79 80 90 89 89 95 95 96
57 64 76 82 88 96 88 88 77 66 65 66 64 68 73 74 76 76 74 70 69 74 72 66 64 72 67 66 65 64 59 53 55 57 55 62 71 72 75 80 83 85 87 90 88
82 87 89 89 90 85 82 85 74 66 64 62 64 66 67 66 67 68 65 63 62 62 62 61 60 64 66 69 66 66 60 50 50 55 47 50 62 68 68 70 70 70 71 73 74
70 77 73 76 66 66 73 73 65 65 59 57 59 61 60 61 61 59 57 53 52 55 55 56 62 60 53 53 56 53 53 49 49 42 43 43 46 51 54 58 59 59 58 58 58
50 54 52 52 53 60 64 60 58 57 58 55 54 53 51 55 54 51 48 45 44 48 48 48 55 51 53 44 46 45 44 45 46 44 40 42 44 45 47 51 54 55 57 58 56
33 45 39 43 48 52 58 57 56 56 53 50 50 50 51 51 50 47 44 42 43 42 41 43 46 50 49 41 41 44 41 42 44 44 46 45 46 45 48 50 52 52 53 54 55

GFSSW_prec_cthk_090.txt.gz
RH
47 51 56 57 55 60 62 59 69 56 51 48 47 43 40 34 25 31 38 35 30 25 22 28 29 31 29 32 45 53 56 53 48 49 46 40 36 33 33 38 38 43 43 44 50
50 51 50 55 56 54 59 59 63 66 62 56 54 46 40 37 30 38 35 30 26 26 29 31 32 36 36 34 39 49 54 49 41 44 46 41 39 37 35 35 40 38 42 42 52
57 57 50 50 54 56 57 62 61 68 61 68 58 50 45 40 39 38 30 24 23 26 34 31 28 29 32 38 42 43 50 46 45 45 46 46 42 46 45 41 39 40 39 35 45
69 59 57 52 51 49 52 57 63 69 77 68 63 55 48 46 48 44 28 30 35 37 33 35 33 36 39 38 40 44 46 47 47 44 47 48 49 46 47 39 44 50 57 46 42
75 74 65 66 52 52 44 52 58 67 74 69 68 60 54 50 46 40 35 38 39 36 36 34 33 34 37 37 40 42 43 46 46 45 40 45 45 42 39 40 44 48 56 52 49
72 81 75 64 58 47 48 51 56 63 84 80 84 60 58 54 50 42 42 43 43 38 37 34 37 36 34 32 34 36 40 42 40 45 46 42 38 40 33 32 35 35 49 53 45
64 61 71 67 60 49 48 53 52 68 75 77 74 63 65 57 53 44 39 45 47 42 39 40 37 37 38 37 39 39 41 40 40 37 37 40 41 38 37 30 26 25 27 33 42
59 46 53 57 57 57 43 65 65 70 80 79 83 73 66 60 53 43 45 45 47 43 39 38 40 38 40 41 41 44 44 46 36 38 38 47 37 36 42 38 29 24 24 26 35
63 51 39 42 57 45 44 73 85 86 88 92 84 87 65 60 49 50 52 49 48 45 39 40 41 40 44 52 57 57 58 50 44 49 49 51 44 41 37 40 35 30 22 26 33
77 60 43 33 49 64 53 72 88 98 84 80 85 92 71 57 55 55 49 52 53 48 47 45 46 46 52 68 75 66 67 66 61 58 56 61 49 40 34 40 45 35 30 27 33
88 80 50 31 50 69 74 82 83 96 99 92 83 72 67 59 55 53 52 54 56 54 45 45 51 56 57 63 69 74 80 73 67 62 64 62 60 58 56 55 57 42 42 38 44
76 74 71 38 58 58 78 99 82 93 98 91 81 78 70 69 58 58 58 61 64 61 54 53 58 54 57 65 72 78 85 86 76 77 79 73 62 63 57 53 59 68 51 63 59
73 67 64 57 46 74 75 85 88 82 91 92 87 86 80 64 60 63 66 64 65 60 57 58 53 53 63 72 81 83 88 84 81 85 81 80 78 70 51 49 59 68 73 62 58
63 59 55 61 48 92 87 98 96 85 84 91 86 81 71 63 65 66 65 69 68 70 64 60 55 62 67 80 86 88 81 83 81 86 86 75 85 63 46 51 55 56 58 51 53
81 72 60 61 59 84 95 98 97 82 87 85 78 75 68 70 73 74 75 78 76 75 73 60 60 70 74 80 89 89 88 85 84 92 95 88 86 44 60 72 59 69 68 57 60
91 90 69 67 63 88 98 94 93 93 87 86 77 77 73 75 69 76 79 76 73 75 66 64 62 69 70 81 90 97 94 83 83 94 97 90 91 56 54 60 67 66 63 64 60
98 87 65 69 59 95 91 87 95 92 87 85 81 74 69 66 77 81 78 72 75 74 72 65 67 69 79 87 87 95 99 98 97 97 98 96 97 98 75 68 69 75 69 65 66
78 70 64 57 48 76 76 88 97 98 94 82 70 73 74 73 80 80 80 73 73 75 78 75 79 73 80 82 87 90 96 98 96 97 96 95 98 97 85 75 70 66 68 75 79
56 51 49 50 45 54 64 97 98 98 84 75 70 69 73 77 77 77 77 72 74 76 83 83 85 76 81 83 85 89 97 96 98 95 98 99 99 96 96 92 92 98 88 88 89
45 45 49 51 58 73 90 95 97 93 73 65 59 62 71 72 77 81 80 80 74 79 82 82 90 82 84 87 88 95 87 88 93 97 95 97 94 98 98 98 98 96 96 93 94
49 60 71 85 89 91 97 97 95 77 70 72 59 66 68 69 76 78 79 80 78 80 86 91 95 88 88 87 85 85 79 78 77 77 95 80 97 97 98 99 96 97 97 96 93
66 73 82 86 88 91 89 83 72 68 64 60 65 65 67 71 72 73 72 73 74 74 76 77 82 88 79 73 73 73 68 65 79 77 71 80 97 95 94 95 98 98 96 92 94
64 71 77 86 86 84 79 69 69 66 66 64 65 67 68 67 69 70 70 66 68 71 69 68 69 79 73 71 62 61 54 54 55 60 67 72 85 82 90 89 94 97 97 96 94
75 83 81 81 79 69 68 68 63 60 61 63 62 62 61 62 61 65 64 61 60 60 58 60 59 64 72 62 59 57 50 47 50 62 60 65 70 71 71 72 74 77 78 77 76
55 62 65 66 58 57 56 58 57 57 54 54 56 57 56 58 57 55 54 52 53 55 56 54 58 56 51 49 51 48 49 45 46 44 53 57 58 60 59 58 57 58 60 62 62
47 50 48 48 49 50 50 53 51 51 53 52 52 52 51 55 56 52 48 46 44 47 45 45 54 49 52 41 43 43 41 43 45 46 46 52 56 55 54 55 54 54 54 54 55
38 39 40 40 45 46 49 49 48 47 48 49 49 47 48 51 48 44 41 41 38 36 36 39 46 50 53 40 40 50 42 42 43 43 48 56 53 53 56 55 55 54 54 54 53

GFSSW_prec_cthk_093.txt.gz
RH
61 55 54 55 61 63 60 65 65 74 77 68 55 52 44 35 29 29 28 30 27 25 18 23 21 21 21 22 28 35 44 50 47 51 47 40 43 40 36 36 39 46 43 44 45
68 63 62 56 54 58 61 62 66 65 78 85 73 59 46 36 31 34 33 29 26 24 24 28 26 27 24 24 25 35 42 40 36 37 45 48 46 44 42 38 36 43 46 48 45
77 72 71 64 60 56 57 58 61 66 76 85 79 65 52 41 41 38 32 27 22 24 29 28 26 27 28 28 28 29 37 34 34 37 41 46 46 45 45 43 41 39 45 47 52
79 81 80 76 70 62 59 54 60 68 72 81 83 69 58 47 45 41 34 29 29 29 30 28 28 29 30 29 27 30 31 34 35 35 40 42 44 41 44 43 45 44 40 47 50
63 66 70 82 75 68 60 54 55 61 75 78 95 82 63 51 47 44 37 34 35 35 35 31 31 32 30 30 30 33 33 35 37 39 38 42 42 43 39 39 37 40 42 38 45
67 58 56 53 75 69 58 52 55 62 68 78 73 83 74 59 53 48 42 39 38 34 33 32 32 30 29 29 28 28 29 29 31 32 34 37 38 43 40 34 38 38 41 44 39
74 69 63 45 41 67 60 52 50 55 74 72 93 89 83 73 54 51 48 46 46 40 37 34 33 31 32 32 33 34 35 34 29 31 35 40 34 34 39 41 36 34 39 43 42
79 73 65 42 40 52 60 45 55 60 77 78 95 91 80 67 63 54 46 49 48 40 39 36 33 33 35 35 36 40 41 45 33 36 39 46 36 31 29 31 31 30 27 36 33
87 81 72 45 41 48 57 52 69 68 76 86 87 79 85 74 65 56 48 49 45 43 39 36 36 38 38 41 46 47 54 53 48 45 48 48 40 33 33 34 34 29 30 25 24
93 90 81 51 47 57 79 91 96 82 96 93 93 95 87 79 66 56 53 49 47 47 44 42 41 43 43 49 54 52 58 57 61 55 60 56 47 44 50 44 38 36 31 30 25
87 85 85 53 50 74 96 91 99 98 96 96 95 82 85 78 66 57 52 53 54 52 47 47 48 49 45 50 55 63 71 77 71 74 76 67 54 53 51 54 46 41 37 34 28
73 77 78 50 51 92 93 94 93 98 97 87 82 78 76 70 65 59 55 55 56 56 52 52 51 44 48 53 62 66 73 72 64 77 76 77 68 62 58 53 48 42 43 41 36
67 67 63 52 51 92 95 99 96 99 98 98 93 88 83 74 67 61 59 61 60 59 55 55 47 44 52 61 70 74 81 80 81 75 79 84 74 66 56 52 48 58 53 58 48
63 57 54 50 47 77 96 97 93 93 97 98 96 89 84 78 65 66 63 64 62 61 62 58 48 52 58 67 75 80 79 81 90 92 84 74 74 58 58 52 43 55 63 67 69
75 57 55 50 55 79 89 97 98 79 93 96 92 94 80 71 70 73 68 70 68 68 68 60 54 58 64 68 78 88 91 96 97 90 89 74 86 64 44 44 42 58 68 77 79
88 61 51 54 69 80 93 93 94 84 89 91 87 77 73 75 74 71 73 68 64 67 69 61 61 61 63 66 73 78 92 98 96 94 96 79 79 62 61 62 49 54 71 73 71
69 46 51 66 75 80 86 87 88 90 89 83 84 74 72 71 72 74 72 68 73 69 67 63 66 59 64 71 70 84 96 97 96 97 94 95 90 74 71 77 77 76 71 70 63
48 52 57 64 71 81 92 94 86 92 89 81 78 73 75 72 76 76 77 70 70 71 68 71 67 65 66 75 85 92 98 98 97 97 97 98 98 96 89 87 88 84 76 73 66
46 55 61 62 64 82 83 88 90 94 79 74 77 74 77 75 74 75 73 67 72 74 78 82 75 70 78 84 89 90 98 95 98 99 93 97 99 95 93 93 89 79 76 81 80
38 42 45 55 69 77 84 87 91 80 71 69 65 69 75 72 74 79 73 76 77 82 81 85 91 76 77 84 83 92 88 88 93 96 97 97 96 98 99 98 97 94 92 92 94
56 58 60 65 74 78 83 90 86 72 63 65 62 65 68 73 78 77 73 75 78 84 86 90 95 79 83 82 78 80 81 82 79 83 92 90 98 98 98 98 98 98 98 98 98
76 72 75 75 72 77 75 68 68 66 62 63 64 66 69 69 66 66 68 72 73 74 78 80 82 86 78 70 67 66 68 65 77 78 80 85 98 97 98 98 98 98 99 99 98
69 59 55 58 64 62 62 62 65 64 63 62 65 67 65 63 64 61 60 60 64 69 69 67 66 72 60 61 58 59 55 53 55 65 74 84 94 96 95 95 98 99 99 98 96
55 55 53 54 54 57 62 67 66 61 62 63 62 60 60 58 57 60 55 51 54 58 58 59 58 57 63 60 56 58 52 47 48 61 66 72 78 82 82 82 83 85 84 83 83
53 53 54 56 52 53 56 56 55 56 54 53 54 56 55 55 52 50 48 48 48 51 52 53 53 51 47 44 46 46 49 48 49 46 53 60 63 62 62 64 67 69 70 71 72
46 47 50 49 47 50 49 48 47 48 48 50 53 53 53 56 55 50 47 43 39 40 40 42 47 44 51 39 41 43 43 45 47 47 49 49 52 53 55 54 53 54 55 56 57
39 43 45 42 44 45 46 42 42 41 43 44 46 45 46 48 45 41 41 40 37 35 36 36 43 45 48 41 38 48 38 42 45 49 51 52 48 48 50 49 49 48 49 49 49

GFSSW_prec_cthk_096.txt.gz
RH
79 82 76 68 66 67 66 65 68 72 78 78 71 57 47 39 32 28 28 26 24 20 17 19 18 18 19 24 26 28 37 40 35 31 29 24 31 37 41 40 43 44 42 46 46
88 89 85 83 77 66 69 69 68 71 77 81 84 73 63 43 37 32 32 27 25 25 19 21 21 21 20 20 26 33 40 37 31 30 29 25 29 33 37 41 45 45 45 45 51
83 85 85 94 88 75 66 65 70 70 74 77 89 77 70 56 44 38 29 27 24 24 24 24 23 25 24 24 23 29 37 31 30 29 28 27 23 28 34 39 42 48 45 48 50
80 77 77 78 92 93 75 67 62 69 76 75 90 89 76 66 51 38 30 29 27 26 28 28 26 27 26 26 26 29 27 27 26 25 26 26 26 25 27 30 41 43 48 48 52
85 78 82 70 70 75 87 74 60 66 73 82 83 90 74 68 58 45 40 37 31 31 33 31 29 28 29 29 27 27 25 24 24 23 23 24 26 29 25 28 35 43 43 49 52
89 83 77 74 63 60 70 74 61 63 72 80 78 86 83 82 65 52 44 36 36 36 36 31 31 28 27 28 28 28 29 26 26 25 25 26 21 30 26 30 32 36 44 43 49
90 89 80 67 54 44 56 71 65 61 73 92 91 84 92 83 75 58 50 43 42 41 36 33 31 28 28 29 31 29 29 29 27 26 28 26 26 25 21 26 29 33 38 43 40
88 91 82 67 51 35 43 63 53 55 74 90 95 89 82 75 78 70 58 50 48 41 40 39 32 28 30 32 32 33 34 38 28 33 35 39 33 28 28 32 25 26 28 35 39
77 88 90 70 47 37 41 49 50 67 79 85 87 88 90 87 80 65 55 52 48 44 43 38 32 34 35 38 38 41 43 44 42 44 46 49 47 39 36 34 35 30 26 28 29
80 86 85 71 47 52 63 60 75 87 95 94 93 95 90 90 78 67 57 51 50 48 43 41 39 41 41 42 43 42 49 50 53 54 59 65 56 49 49 45 39 36 30 27 30
67 73 75 68 50 64 82 96 98 98 89 95 93 90 94 87 74 64 61 61 53 47 48 49 47 46 43 45 44 51 60 62 55 58 67 67 60 55 57 53 45 43 36 31 29
64 66 67 61 59 86 94 97 99 95 96 96 92 87 90 84 76 67 62 57 53 53 50 50 49 44 46 46 54 60 65 67 63 65 74 70 58 58 62 57 50 39 40 34 30
60 58 64 55 66 93 95 98 97 97 98 98 94 88 84 79 72 66 59 58 54 52 50 49 47 47 44 48 56 61 71 73 78 74 81 78 58 56 53 57 51 44 41 41 38
60 61 53 54 70 93 97 98 99 97 97 99 94 89 85 82 76 65 62 61 56 55 56 56 50 46 49 55 57 66 66 73 80 91 91 84 72 59 45 59 54 49 46 47 47
59 58 47 60 69 84 93 98 96 95 94 98 94 86 83 80 70 69 63 63 64 62 63 58 52 50 56 56 57 60 64 73 88 96 95 87 81 58 48 43 51 52 57 63 61
52 46 50 62 80 88 93 96 89 84 96 97 92 87 89 72 73 67 70 62 61 61 60 59 56 56 55 51 54 59 73 86 92 96 96 87 76 61 68 83 72 67 74 76 82
41 49 57 66 74 84 87 85 82 85 93 92 87 78 73 74 71 71 64 64 63 61 62 57 57 57 54 60 65 77 89 91 89 95 95 97 83 67 79 82 85 76 81 85 83
52 58 66 69 73 77 76 74 78 83 85 82 71 73 69 74 73 70 66 65 64 64 63 65 59 57 61 70 82 88 98 98 96 97 95 96 96 91 84 89 88 80 82 82 82
49 56 62 66 68 64 68 75 82 78 72 73 73 76 78 72 72 70 66 65 68 73 72 71 66 59 67 76 83 89 98 95 97 99 96 95 95 97 88 88 92 88 80 86 82
43 50 60 66 73 70 67 72 79 74 70 67 69 67 73 71 72 76 74 72 70 72 74 74 79 71 75 80 81 89 90 94 95 96 96 98 96 97 94 93 93 94 90 90 93
52 56 66 72 70 69 69 73 71 63 62 68 63 65 67 70 71 74 72 73 71 74 81 83 86 75 79 76 73 78 81 85 88 87 96 95 97 98 98 98 98 97 99 98 98
64 63 64 61 60 64 67 63 60 65 65 63 60 59 62 63 66 65 65 68 69 72 80 79 80 80 70 64 61 62 65 69 79 77 85 89 98 98 97 97 98 98 98 99 98
48 54 56 53 57 59 60 60 62 63 59 57 58 56 55 55 57 56 58 55 62 66 67 64 66 67 53 53 50 53 52 56 61 68 82 89 96 90 94 97 98 99 98 98 97
43 48 48 50 58 60 61 61 58 56 56 54 52 51 51 53 55 54 51 53 55 56 56 56 58 56 62 55 53 53 47 47 49 63 69 77 82 80 82 87 89 92 91 86 81
39 44 47 54 53 57 56 54 54 53 49 49 50 52 49 50 48 51 49 48 49 50 49 48 51 48 46 46 44 44 41 45 49 48 53 59 63 64 65 65 68 71 72 72 70
38 41 44 46 46 48 48 49 50 48 46 47 49 47 47 48 44 42 42 38 37 36 38 42 47 43 46 38 39 41 38 41 44 45 47 49 50 51 52 53 53 54 55 55 55
32 36 39 39 42 44 45 42 43 43 43 43 43 42 41 41 38 36 36 36 38 37 37 38 42 44 41 39 39 43 35 39 40 43 45 47 45 45 46 47 48 48 48 48 48

GFSSW_prec_cthk_099.txt.gz
RH
80 85 90 84 77 76 70 68 75 77 85 84 72 60 51 47 39 32 27 23 21 18 16 16 15 16 18 23 23 25 31 37 31 30 26 22 23 25 24 26 29 37 40 39 44
89 80 88 88 93 89 76 70 73 78 88 77 89 83 68 49 42 37 34 28 24 20 17 18 18 16 17 20 23 27 34 31 28 28 28 24 22 20 22 23 26 29 37 42 45
94 92 86 85 86 96 89 73 73 76 81 80 99 88 80 65 55 45 36 29 24 22 20 21 21 20 19 20 23 28 33 29 28 27 26 22 20 19 19 20 25 27 31 38 46
89 93 89 86 77 85 92 88 72 73 77 88 83 95 91 75 66 50 34 32 27 25 25 24 24 24 24 23 23 24 23 24 23 21 21 20 19 18 16 17 19 26 30 35 43
89 91 93 83 85 75 80 85 83 67 75 88 91 98 93 83 73 54 48 40 32 29 28 26 26 26 26 26 25 25 24 23 22 21 21 20 20 20 17 18 18 20 28 34 41
84 92 94 91 77 74 75 76 89 66 72 85 99 95 94 87 81 67 56 45 38 33 32 30 30 28 28 27 25 27 26 24 21 20 21 21 19 20 16 16 15 17 20 29 39
73 81 92 88 76 71 64 76 84 74 69 89 97 96 95 96 83 73 58 44 38 36 34 34 31 29 28 27 28 27 28 24 21 21 23 23 22 22 19 20 18 16 16 20 28
64 68 89 83 74 61 49 64 78 70 77 88 94 92 91 96 89 80 64 52 45 42 39 37 34 31 29 29 29 30 30 33 23 27 30 33 27 26 29 33 27 24 21 20 22
68 71 87 83 68 51 47 53 65 61 83 97 95 95 89 95 87 81 75 59 51 45 41 40 36 33 32 34 32 34 38 37 37 37 38 43 39 35 42 42 35 33 27 23 22
62 80 84 80 58 56 56 48 53 78 97 98 97 96 90 87 83 79 73 62 52 47 45 43 40 38 38 37 37 36 43 46 51 47 47 52 48 52 57 52 43 41 37 28 24
62 68 72 67 51 78 67 82 83 92 96 94 91 90 92 93 83 78 69 61 52 49 52 48 46 44 37 39 38 42 52 58 58 57 59 60 56 60 59 51 45 45 46 36 27
61 60 67 61 62 78 77 81 92 95 93 95 93 96 94 89 84 74 64 60 55 55 52 49 50 40 41 42 44 52 61 62 56 56 63 65 63 68 52 47 46 49 52 44 33
59 60 64 59 74 96 98 94 98 93 96 98 95 95 90 79 75 69 66 62 56 52 50 50 44 42 44 44 49 57 63 61 62 57 61 72 68 54 42 39 52 54 55 47 37
57 52 57 73 88 95 99 98 96 87 94 98 95 92 87 81 76 67 62 59 54 54 53 50 46 45 45 48 55 62 52 57 63 74 84 82 82 56 50 52 56 55 46 45 44
46 64 76 79 92 96 98 97 91 88 92 97 95 89 84 83 74 67 60 59 59 58 54 53 51 52 53 53 55 54 55 66 72 83 86 87 93 60 69 76 69 60 58 57 59
55 67 80 84 90 95 95 92 88 77 90 96 89 87 83 77 70 64 62 57 55 54 54 55 53 54 54 55 57 56 66 73 77 83 86 91 86 62 78 92 92 84 74 79 89
55 61 68 80 85 86 88 81 79 87 92 92 87 83 76 68 67 64 58 59 56 58 57 53 55 55 62 64 63 70 78 81 76 81 86 94 93 77 85 90 98 98 85 85 93
55 62 64 69 73 73 74 70 76 82 85 79 76 71 70 66 61 60 58 60 60 61 65 65 61 63 62 67 74 79 88 94 90 92 95 96 94 88 85 85 91 98 94 93 97
50 52 57 59 60 62 58 69 77 74 66 65 65 64 68 64 65 61 64 66 70 73 76 74 68 58 66 72 76 80 90 93 94 92 98 95 96 96 90 87 89 89 88 89 92
54 54 56 54 53 53 54 63 68 64 57 61 62 63 59 64 71 73 74 72 72 74 71 75 78 68 71 74 73 77 81 90 95 94 93 95 97 98 95 93 93 96 97 93 90
54 56 53 50 48 51 61 63 61 59 59 60 59 64 66 72 73 76 72 72 75 75 76 77 81 68 66 65 66 69 74 84 90 91 97 95 98 98 98 98 96 96 99 98 99
48 53 52 48 49 53 59 62 61 61 60 61 59 58 64 66 71 72 70 70 69 71 74 71 68 67 55 52 53 56 62 72 83 79 89 90 97 97 97 98 98 98 98 98 98
42 45 45 42 52 55 56 58 59 57 56 54 54 53 56 59 62 59 60 58 60 60 59 58 57 58 42 42 43 48 51 56 63 68 84 90 88 89 94 96 98 98 98 98 98
37 45 44 46 51 53 57 56 54 52 51 52 53 51 52 54 53 52 51 52 53 53 51 51 54 49 51 43 45 46 44 44 51 62 64 69 69 74 81 87 90 92 90 88 85
30 41 46 51 49 50 53 53 52 53 50 50 50 52 50 47 46 47 47 45 44 44 46 45 48 44 41 41 42 42 42 40 48 48 51 52 58 56 60 66 70 73 72 72 71
28 37 41 42 44 45 45 48 50 48 47 46 48 48 46 44 44 40 40 37 36 36 39 41 45 42 40 35 38 39 38 38 43 43 46 50 49 48 51 52 53 54 55 55 56
28 30 33 37 39 39 42 41 41 43 42 44 44 43 39 40 38 37 36 36 37 38 37 40 43 45 41 38 39 41 33 34 37 39 39 45 41 42 45 45 46 47 48 49 50

GFSSW_prec_cthk_102.txt.gz
RH
74 74 71 64 70 79 83 72 69 90 99 97 95 71 54 47 41 37 32 26 20 16 17 15 14 16 21 21 21 21 27 31 28 30 24 22 22 20 21 21 21 24 27 29 37
79 88 85 78 68 80 90 84 71 77 91 98 94 84 66 50 43 39 37 32 26 19 18 17 15 15 17 21 22 24 27 26 26 26 26 23 22 19 18 17 18 19 24 26 28
87 83 95 93 86 75 92 92 80 73 78 86 98 99 86 59 49 46 41 34 28 22 22 20 17 16 17 20 21 26 27 26 25 25 23 21 19 17 17 17 15 16 18 23 25
88 85 93 97 94 82 77 92 87 73 81 84 97 99 93 86 72 51 39 34 28 26 24 23 22 20 20 21 21 21 22 22 21 20 20 19 17 17 16 16 12 12 13 15 22
68 75 97 98 97 91 78 79 82 77 79 83 97 94 94 90 81 62 49 37 33 29 27 25 24 24 25 24 24 24 24 22 21 20 19 18 18 18 18 14 14 13 12 12 14
59 72 88 97 97 90 79 73 78 80 71 88 96 96 96 95 87 68 58 49 39 33 30 29 27 26 27 28 26 27 25 23 19 18 18 19 18 18 15 15 15 15 14 12 11
59 62 83 96 92 82 70 67 75 85 68 86 95 94 91 98 91 82 67 53 44 39 36 33 31 28 27 27 27 27 24 22 21 21 21 22 21 21 20 22 20 20 19 18 16
60 59 66 86 85 76 61 60 70 84 73 96 90 96 97 98 91 82 75 59 49 43 38 35 32 30 30 29 27 28 28 27 21 24 26 27 24 22 28 31 28 29 30 27 21
59 71 73 83 79 66 58 61 75 82 84 97 92 97 99 96 89 85 78 64 51 44 40 37 34 35 33 32 30 32 33 34 31 33 36 36 29 29 39 43 39 38 38 38 34
65 78 92 83 68 68 57 65 82 81 96 97 97 95 96 94 91 86 78 71 56 48 44 41 40 42 40 35 34 33 38 40 43 41 40 43 36 37 45 48 46 41 35 34 34
66 68 77 70 60 69 80 76 85 98 96 96 93 96 93 89 88 82 73 66 60 52 51 48 47 43 37 39 37 39 44 48 44 45 46 48 45 50 49 50 45 37 37 31 33
52 56 64 56 59 69 80 87 98 98 98 99 97 94 91 85 82 79 74 65 58 56 51 50 51 43 44 44 43 45 50 48 45 46 51 53 55 59 57 50 50 45 41 38 40
52 44 53 64 71 82 94 87 96 96 96 98 98 95 88 82 81 78 71 62 57 56 54 53 47 45 44 45 46 47 51 49 52 52 57 65 65 68 59 54 51 49 45 47 56
74 61 65 69 70 84 92 97 93 88 93 98 97 94 85 78 78 71 67 64 59 58 57 52 47 45 45 45 45 53 46 52 60 70 75 76 79 71 57 56 58 58 55 49 47
79 83 85 82 82 94 96 93 91 84 90 97 95 87 84 81 72 68 63 59 58 55 53 50 48 49 50 48 48 51 54 62 67 76 80 78 87 65 57 61 72 88 72 73 68
82 82 85 84 87 91 91 91 84 75 93 95 91 88 82 80 72 64 63 56 53 52 50 50 48 49 48 51 56 57 65 69 73 74 81 80 88 72 76 79 80 95 89 86 84
78 81 84 86 85 83 80 78 76 84 90 90 89 83 75 71 66 64 57 53 52 51 52 47 48 49 55 64 65 71 76 77 73 78 79 87 91 82 86 85 87 97 93 93 94
69 72 73 77 69 68 69 67 75 78 79 79 80 74 65 65 57 55 55 56 51 50 56 59 53 56 63 68 75 77 80 88 87 86 85 89 92 92 95 87 89 94 95 97 97
57 62 63 66 64 61 58 70 76 73 71 70 67 64 65 61 57 52 56 59 61 60 66 68 66 61 68 70 74 77 82 82 87 83 90 86 92 95 95 95 95 94 98 96 95
48 52 52 50 50 53 59 63 63 59 55 56 57 55 53 56 56 61 65 64 67 69 70 75 81 67 68 73 72 72 74 82 83 90 87 85 93 96 96 98 97 97 98 96 95
41 43 47 44 44 46 56 60 57 56 56 56 54 56 56 59 60 69 70 67 69 72 72 75 76 61 60 61 57 62 64 71 79 86 93 93 94 96 98 96 95 98 98 98 98
35 42 38 36 37 46 54 57 58 57 56 57 56 55 58 59 65 69 69 66 65 65 67 65 62 60 50 46 46 51 54 58 70 69 79 90 89 88 96 96 97 96 98 98 98
31 34 33 32 47 50 51 51 53 52 52 52 54 56 57 60 61 63 59 55 56 59 58 58 58 56 36 36 40 43 47 49 55 61 65 75 71 75 85 92 93 96 97 97 97
28 34 34 37 43 46 48 49 49 50 50 51 52 51 51 53 55 54 51 50 52 52 52 51 51 48 45 34 38 42 43 45 52 59 55 59 53 57 64 73 81 84 85 83 80
24 34 37 42 42 44 46 47 48 49 49 48 49 53 54 51 49 47 45 42 43 44 47 48 48 45 41 37 38 37 37 41 47 48 50 42 50 47 50 54 57 60 59 59 59
24 28 31 35 37 39 43 46 46 46 46 46 48 48 47 47 45 43 40 39 38 37 40 44 46 44 41 34 38 39 36 36 39 42 46 46 47 43 45 46 48 49 50 51 51
24 27 27 29 32 34 36 36 39 42 42 43 43 43 41 39 38 37 36 35 36 38 38 42 46 47 44 36 37 38 32 32 33 37 40 46 40 42 43 45 45 45 46 48 48

GFSSW_prec_cthk_105.txt.gz
RH
77 81 78 78 71 60 63 76 67 78 86 89 95 80 62 47 43 37 32 27 21 18 15 14 16 19 18 20 21 19 19 23 24 26 21 21 21 20 19 18 18 19 20 21 22
86 96 93 92 85 72 64 69 74 74 87 87 89 96 81 54 41 40 36 32 24 19 17 15 15 18 17 20 19 19 19 20 22 23 22 21 19 17 16 16 14 13 13 15 20
64 76 86 95 98 85 71 68 81 73 79 96 98 99 94 70 48 47 42 38 29 22 20 17 16 15 17 19 20 23 21 22 22 23 20 19 17 16 16 15 11 10 10 11 13
55 57 77 91 96 96 82 66 79 89 73 91 98 96 97 83 64 53 44 36 28 25 22 22 19 18 20 21 20 19 22 22 20 19 18 18 17 16 16 12 10 10 10 10 9
48 53 59 82 94 97 92 73 74 89 81 86 99 96 97 90 78 56 43 35 31 27 25 24 22 22 23 23 22 22 22 21 19 18 18 18 17 17 14 12 12 11 12 12 11
52 57 53 72 92 98 94 79 69 82 88 77 98 97 96 97 89 66 48 38 33 30 28 26 25 24 24 26 24 25 24 21 18 18 18 19 19 19 14 15 16 17 16 16 15
56 57 60 84 96 97 89 79 68 91 88 91 98 93 93 95 88 77 60 48 39 34 31 29 28 26 26 27 26 25 22 21 20 21 22 22 24 22 19 22 22 23 24 24 22
60 56 60 82 91 86 84 70 65 95 82 93 98 93 98 97 89 81 68 56 47 39 35 33 30 28 29 28 26 27 25 23 22 25 26 26 25 22 27 27 27 27 28 28 26
65 79 64 81 79 73 70 59 79 89 82 95 98 94 96 91 90 83 74 62 52 43 39 36 33 32 31 29 29 31 28 31 28 29 31 31 30 29 31 32 29 30 27 24 21
72 84 73 69 66 71 56 74 85 89 98 94 91 92 95 96 89 81 77 68 57 49 42 37 35 37 37 35 33 31 35 36 36 32 34 36 32 31 36 37 35 33 31 31 31
68 79 56 55 71 87 92 95 98 97 95 98 94 90 96 93 84 76 69 64 57 51 49 44 43 42 40 38 35 38 42 44 36 37 40 38 37 34 41 43 42 44 45 43 39
54 56 50 58 75 89 93 93 97 97 98 98 92 94 94 87 83 74 66 62 59 60 55 50 50 44 44 43 43 45 47 46 39 39 44 42 42 43 46 46 48 48 51 48 37
56 68 68 72 83 86 92 98 98 95 96 99 97 96 90 84 82 76 69 65 62 58 53 50 47 44 45 46 46 46 49 47 47 48 48 54 51 48 46 51 53 54 61 60 56
71 61 70 81 90 89 95 97 91 88 92 98 96 88 83 78 78 74 70 66 59 58 54 51 48 46 46 46 45 51 44 50 55 61 63 60 65 57 54 60 64 68 73 66 57
83 80 82 88 88 91 91 92 90 81 85 96 93 83 81 74 70 68 63 58 57 55 50 48 49 49 51 49 48 47 50 58 60 68 70 70 76 60 64 72 74 71 78 68 74
75 80 83 84 84 84 90 84 75 71 90 94 88 84 79 73 68 60 58 52 51 49 48 49 49 49 48 50 52 55 63 65 68 70 73 70 77 67 78 82 81 76 78 78 89
66 71 74 78 78 76 81 72 70 80 90 88 84 75 66 67 60 57 54 49 50 47 50 47 48 50 52 58 64 68 69 72 68 73 69 75 82 74 84 90 90 82 84 88 96
60 61 63 64 67 67 64 60 72 82 82 80 73 64 65 62 54 52 51 52 46 47 51 54 48 51 58 63 68 69 71 80 81 79 76 79 86 79 91 92 94 94 92 96 93
47 51 53 53 55 54 50 66 72 73 73 73 68 64 62 51 50 54 57 57 55 53 56 56 59 57 65 67 65 69 71 75 82 78 82 76 79 87 89 93 95 97 95 98 91
39 42 46 47 48 48 51 62 66 61 57 57 56 51 53 54 58 60 62 60 63 65 66 73 74 63 63 64 63 65 67 69 72 77 82 73 80 84 87 91 92 95 97 98 98
31 33 39 42 41 43 49 54 52 51 52 52 50 51 50 56 60 67 67 68 68 66 63 65 63 54 52 59 55 60 59 61 64 70 77 77 70 76 86 88 91 90 94 97 97
25 31 34 33 38 47 56 56 54 54 55 56 55 55 58 61 64 66 66 60 57 57 58 57 60 56 49 47 48 49 50 50 58 58 64 69 60 63 70 84 86 91 92 91 95
25 27 30 31 42 45 46 49 51 52 53 53 55 56 56 59 58 57 54 52 52 53 54 55 56 56 33 38 42 45 47 47 51 56 59 63 48 53 56 63 74 78 83 86 92
23 28 28 31 35 37 39 44 44 45 47 49 50 49 50 52 52 51 49 46 48 48 49 50 51 48 45 32 35 39 42 46 50 56 51 52 45 50 53 54 57 59 62 62 62
22 29 30 33 34 35 36 38 40 41 41 41 43 46 48 46 45 44 40 39 40 43 46 48 49 47 44 40 40 39 38 41 46 44 50 39 45 43 45 47 48 50 52 50 50
23 26 27 30 31 32 33 35 35 36 35 35 37 38 39 40 38 38 38 38 36 38 42 46 50 47 45 36 38 41 38 39 40 39 43 43 39 36 39 41 45 44 45 45 47
21 23 24 28 30 30 31 31 31 33 32 33 33 34 34 31 31 30 30 31 32 36 39 43 48 50 48 38 38 33 30 34 33 34 35 42 35 38 41 42 42 43 43 44 45

GFSSW_prec_cthk_108.txt.gz
RH
84 76 76 74 74 69 69 73 71 81 90 86 93 83 66 45 40 35 32 28 25 20 18 18 22 20 19 22 21 16 14 15 18 18 19 20 19 18 16 15 14 14 15 15 17
68 63 74 91 91 78 73 76 76 69 64 85 95 99 86 57 40 39 34 30 24 20 17 18 20 21 20 22 21 17 15 15 17 17 18 19 18 16 14 13 12 11 10 10 11
51 55 66 90 97 98 81 68 66 79 66 76 94 98 94 75 49 45 39 33 26 21 17 15 18 18 18 18 19 18 17 17 19 20 18 16 14 15 13 11 10 10 10 10 9
47 45 50 64 95 95 95 76 67 71 75 79 96 97 95 85 69 51 41 34 26 22 18 16 16 15 18 17 17 16 19 18 17 16 15 15 15 14 12 10 10 11 11 11 10
40 39 45 55 85 97 96 83 67 68 81 81 93 98 94 91 85 59 41 32 27 23 19 17 17 17 18 18 18 18 18 17 17 17 15 14 16 15 12 12 12 13 14 15 15
44 42 51 50 66 88 95 82 66 62 80 93 88 96 97 96 89 64 41 34 29 26 23 20 20 20 20 22 21 21 20 18 17 17 17 18 18 18 14 14 17 18 19 19 19
51 47 50 62 80 98 87 72 63 65 79 96 90 98 96 96 85 67 47 37 31 28 25 24 22 22 22 23 23 21 20 20 21 21 21 22 20 20 17 19 21 23 23 22 22
53 51 62 84 94 92 79 67 65 72 92 97 93 99 98 92 83 71 53 41 35 31 28 26 24 22 25 24 23 22 22 20 21 23 25 25 21 20 20 23 24 25 24 22 20
73 67 81 85 78 72 67 60 74 78 96 97 95 98 98 95 89 80 64 49 41 35 31 29 27 28 27 26 26 24 22 23 23 26 28 28 26 23 23 25 25 25 24 24 24
67 68 64 69 80 71 67 69 93 93 99 95 98 96 98 94 90 82 68 57 48 42 37 34 34 34 31 31 34 24 25 27 27 29 30 30 28 24 27 27 29 28 30 28 29
57 54 56 74 86 75 79 99 98 98 94 96 98 92 96 95 88 80 70 61 53 47 45 41 43 40 36 32 32 33 35 35 29 32 34 30 29 27 30 33 34 36 34 36 39
63 61 73 90 93 95 98 94 97 92 98 96 96 94 94 86 82 71 64 59 54 51 46 43 46 43 43 43 40 38 39 34 32 34 36 31 32 34 36 40 42 44 48 50 51
74 83 87 88 87 93 92 94 97 91 89 95 92 92 87 77 70 64 59 56 54 52 50 49 51 50 46 44 42 39 42 38 42 38 34 40 38 40 42 44 47 55 60 62 56
76 81 88 81 88 94 96 91 90 84 86 97 90 84 77 72 68 64 61 61 56 57 55 52 50 45 42 41 41 45 39 42 46 50 52 48 54 47 48 50 59 63 67 65 64
70 76 83 81 89 93 88 86 79 71 80 92 84 77 75 70 70 66 63 60 57 53 48 50 46 45 46 46 42 44 45 47 52 61 62 58 67 47 52 58 67 67 74 69 71
72 70 76 77 78 82 78 73 63 69 87 91 83 79 72 69 67 63 60 54 52 49 46 46 45 45 44 47 46 47 52 57 62 64 69 60 65 53 57 68 75 74 77 75 76
67 70 75 76 77 75 72 63 73 77 89 85 80 75 70 66 62 57 53 49 49 52 53 43 43 47 48 50 53 58 62 68 71 74 62 62 74 61 61 74 75 77 81 82 81
53 56 61 64 66 64 61 62 72 80 79 76 67 66 62 59 53 50 46 44 42 41 44 47 45 42 49 53 57 60 60 72 78 68 62 67 74 61 66 72 76 81 85 87 86
44 45 46 48 49 50 52 67 75 69 66 63 60 56 54 48 44 46 47 46 45 42 48 52 54 45 59 64 62 62 67 71 76 68 69 59 64 62 64 71 75 78 83 91 92
34 36 36 36 37 39 47 60 61 58 55 54 47 42 42 46 48 51 55 55 56 56 60 66 74 60 60 59 59 59 59 62 66 66 59 46 51 60 59 72 74 77 81 85 88
26 29 31 30 30 31 42 45 46 48 47 43 41 42 45 50 55 60 62 62 61 59 56 55 55 49 48 49 50 59 57 54 51 51 56 46 41 50 50 57 65 68 71 78 87
24 30 29 29 33 39 45 42 41 40 43 43 44 48 52 56 58 57 54 52 50 50 49 48 47 48 41 44 46 45 42 43 43 50 51 52 43 47 49 53 56 60 62 67 75
23 26 26 27 36 40 41 42 44 43 43 45 47 48 48 47 47 47 45 44 45 42 42 42 43 46 28 35 39 39 39 40 41 46 48 49 35 43 48 51 54 57 59 60 63
19 27 26 27 32 33 36 39 40 41 41 42 42 42 42 43 43 41 39 36 37 37 38 39 38 37 29 25 29 34 35 40 40 46 36 36 29 36 42 47 50 52 53 52 53
20 25 26 31 31 32 33 34 36 36 37 38 38 39 38 37 36 34 31 31 34 36 41 42 43 39 36 33 35 36 35 37 44 35 39 26 32 30 35 41 44 45 48 49 48
20 23 24 27 29 29 30 32 33 34 34 34 36 36 36 34 32 30 32 32 30 38 44 45 47 43 42 31 34 37 33 34 34 34 36 34 30 29 32 36 42 45 46 45 44
23 20 21 26 26 26 27 28 29 30 31 32 32 32 32 32 32 32 33 34 36 37 40 43 47 49 42 35 35 30 26 29 31 29 31 36 27 29 34 37 39 42 44 44 44

GFSSW_prec_cthk_111.txt.gz
RH
78 88 92 80 74 66 64 64 63 61 72 87 93 96 69 47 40 33 32 25 24 20 19 23 23 23 23 23 22 17 16 16 17 15 19 17 17 15 14 12 12 13 13 13 14
88 95 95 86 80 75 67 69 67 64 73 91 97 99 86 59 46 47 35 28 23 21 23 27 24 22 21 21 19 17 16 16 17 18 17 19 15 16 12 12 12 11 11 11 10
76 78 62 60 76 86 80 64 67 63 72 86 95 94 88 71 54 51 42 33 25 24 24 26 23 21 19 19 18 17 19 18 18 18 16 14 13 13 11 10 10 10 10 10 10
46 49 48 51 71 90 93 76 64 67 67 88 98 99 94 85 65 55 43 36 27 24 22 19 21 18 19 17 17 19 18 17 17 16 14 12 12 11 10 10 10 10 10 10 11
38 36 39 48 51 69 91 86 61 66 72 90 96 98 95 95 81 55 42 35 29 24 21 19 17 16 18 17 15 16 14 15 15 13 13 12 13 12 12 11 11 12 12 13 14
42 44 41 42 41 50 85 88 63 66 70 91 94 96 96 96 87 57 40 33 29 25 20 20 17 16 16 15 16 15 15 14 15 15 15 16 15 15 14 14 15 16 17 18 18
51 45 45 42 45 54 83 76 66 66 72 83 73 88 97 97 83 67 45 34 29 26 22 19 18 17 16 16 16 17 16 17 17 18 18 20 19 19 17 16 18 18 19 19 19
52 45 49 64 67 80 78 64 71 73 83 86 87 89 95 92 80 68 57 40 31 27 24 22 20 18 19 17 18 19 18 20 23 21 23 24 19 22 19 19 20 20 21 22 23
62 62 81 89 88 79 61 64 80 82 95 88 93 95 97 86 80 72 61 45 35 29 25 22 21 22 21 23 22 21 23 22 27 26 26 27 23 20 23 24 25 25 25 24 25
60 66 69 70 67 61 55 85 84 98 98 96 95 94 96 91 81 69 58 46 37 32 28 27 26 27 27 32 42 27 23 25 24 30 30 28 26 24 25 25 26 26 26 28 31
54 62 90 79 58 54 83 93 97 97 95 96 97 96 97 92 84 75 62 52 43 39 37 32 39 42 34 31 30 29 29 28 28 32 32 29 28 24 24 26 26 31 32 34 39
69 88 94 91 77 83 93 88 97 90 96 98 97 96 95 91 83 76 64 56 50 47 40 40 45 39 37 36 37 38 35 34 33 36 37 31 27 25 28 30 32 35 41 44 48
83 86 94 96 91 91 95 93 95 94 96 98 97 95 91 84 78 73 67 61 56 53 46 47 44 41 41 41 42 40 43 41 44 38 34 34 28 29 31 36 40 44 49 54 57
79 81 84 90 97 96 93 91 90 88 89 94 92 89 82 74 68 65 62 59 54 53 50 49 46 46 47 46 45 49 41 42 43 45 44 37 41 33 37 41 46 53 57 63 68
78 80 82 88 88 89 81 80 72 72 82 83 83 80 79 74 69 62 59 57 55 53 53 55 52 50 48 48 43 45 44 45 43 48 49 45 54 39 42 48 52 59 65 68 73
71 74 76 80 81 77 74 68 66 80 88 84 80 75 69 68 64 61 58 53 52 49 47 47 45 43 43 44 45 46 48 48 48 50 61 54 53 42 49 54 57 64 68 71 74
64 67 68 66 70 69 63 61 72 75 81 78 72 66 61 59 58 57 54 51 50 57 57 42 42 44 47 49 50 50 50 61 63 66 61 56 62 52 50 57 63 66 66 71 74
51 56 59 62 62 60 57 62 70 72 69 65 62 58 57 55 51 47 43 46 42 40 45 53 53 44 47 48 47 49 51 60 70 66 58 60 67 56 52 57 62 61 63 70 74
36 40 45 47 50 49 57 66 69 60 56 56 54 52 48 43 42 42 44 43 39 37 46 52 52 38 42 49 56 58 60 56 65 56 62 51 52 44 43 43 48 52 52 57 69
31 31 34 34 38 44 47 49 47 45 44 42 37 35 36 37 42 42 45 43 43 43 44 45 57 50 57 54 52 53 49 53 61 59 54 41 42 44 41 44 40 43 47 50 58
26 32 28 28 28 30 44 40 38 37 37 36 34 37 41 46 48 50 49 48 48 47 46 44 46 45 41 42 43 48 46 45 41 43 49 40 36 41 40 38 39 42 44 49 50
24 31 26 28 34 36 40 35 36 37 39 40 40 42 45 44 45 44 42 39 38 39 39 36 36 40 34 32 34 37 37 39 41 39 44 42 37 34 35 35 38 39 42 45 47
23 25 24 25 34 34 37 38 39 40 40 41 41 40 38 38 39 36 36 35 36 37 38 35 38 39 32 29 33 36 32 35 38 41 36 36 28 38 36 35 37 39 41 43 45
21 27 24 25 29 29 32 33 35 36 36 36 36 35 35 35 35 34 33 33 33 34 35 37 36 37 34 28 33 35 36 41 43 47 36 32 29 29 35 37 36 39 40 41 44
20 23 24 28 26 27 28 29 30 32 33 34 33 33 33 34 31 29 28 29 31 34 36 38 39 38 33 30 30 31 35 35 38 40 48 29 28 24 28 32 34 38 40 41 43
22 24 24 25 25 26 26 26 28 29 29 30 31 31 31 32 30 30 29 29 28 35 40 40 42 39 41 29 30 31 31 32 34 34 34 33 31 29 26 28 30 33 40 40 42
18 20 22 23 24 24 24 25 25 26 27 28 28 28 27 27 28 28 28 28 29 30 36 40 42 46 41 30 34 31 23 25 26 26 27 32 26 27 29 32 33 36 41 40 42

GFSSW_prec_cthk_114.txt.gz
RH
85 87 88 98 95 87 65 52 52 50 60 71 88 88 74 56 38 30 30 27 24 22 25 27 30 35 36 35 32 29 31 29 28 25 26 19 17 15 12 12 11 11 12 14 14
87 94 91 83 97 79 68 57 53 54 52 64 89 98 87 62 53 42 32 23 20 20 24 28 28 28 27 26 22 24 27 28 24 20 19 17 14 13 11 11 11 11 10 10 9
77 77 82 83 97 85 71 63 59 56 55 60 81 97 90 72 60 55 35 24 20 21 25 30 25 26 24 20 19 20 26 21 19 17 17 14 12 12 10 10 10 10 10 9 8
55 71 75 76 87 80 69 64 55 59 62 70 87 98 94 83 63 57 37 26 24 22 25 27 24 22 21 18 17 19 19 16 17 14 12 12 11 10 10 9 9 9 9 9 10
41 47 44 56 55 62 68 69 56 62 61 80 93 97 97 86 69 54 42 31 28 26 25 24 22 20 21 18 14 15 15 13 13 12 11 10 10 11 10 10 11 11 12 14 15
48 41 39 41 38 38 60 71 60 63 58 94 97 96 97 90 74 53 44 35 31 28 26 23 20 19 18 16 16 15 14 13 12 11 11 12 12 14 13 13 13 14 15 16 16
55 53 40 34 40 41 45 69 65 67 72 93 95 95 93 91 75 57 47 37 31 28 23 21 19 18 16 16 15 13 14 13 13 13 15 16 17 18 16 16 16 16 17 19 19
52 51 59 56 53 46 47 69 69 72 77 89 89 92 96 88 77 65 48 38 30 26 22 19 18 17 18 14 13 14 12 17 18 19 21 20 21 21 20 20 19 20 22 23 22
74 85 87 67 52 58 71 72 79 86 92 81 88 86 96 91 83 70 50 37 30 25 22 18 17 17 16 17 18 15 19 19 26 25 24 24 24 21 21 22 23 25 26 26 26
69 79 86 85 74 59 74 89 88 84 95 94 89 87 97 92 81 72 59 44 34 28 24 22 21 21 19 29 41 28 21 22 23 29 28 28 26 23 24 25 26 26 26 27 30
91 86 59 63 53 76 84 88 91 92 89 83 82 85 85 82 78 70 61 53 41 34 29 26 35 37 26 26 29 29 27 27 27 33 32 30 30 26 26 27 27 27 29 32 35
95 89 58 53 72 87 83 88 93 85 94 89 87 78 80 79 75 66 58 50 44 37 29 33 39 32 31 31 32 32 34 37 36 35 39 35 34 30 28 27 28 31 36 41 43
80 79 66 70 92 94 90 93 93 91 91 98 94 93 90 84 75 65 58 52 46 40 40 43 40 35 36 36 39 39 42 43 46 42 40 41 36 30 28 29 32 37 42 45 47
71 79 72 78 90 95 95 93 93 89 92 97 95 90 85 77 68 62 57 55 51 50 48 47 42 42 42 45 42 49 44 46 49 52 55 40 49 31 32 34 37 43 46 48 50
73 70 73 75 79 83 81 80 77 83 86 91 86 76 73 70 63 59 56 53 52 49 49 50 46 47 49 52 46 50 47 48 47 48 50 43 53 37 35 39 46 47 48 50 51
71 72 68 66 66 62 58 56 68 74 82 79 74 68 66 61 57 54 52 48 48 48 47 46 44 44 45 45 46 45 48 50 48 49 56 54 52 43 42 45 45 48 48 46 45
66 67 71 70 65 61 56 57 66 69 66 67 65 60 56 54 52 51 48 48 50 57 58 47 44 44 43 46 46 49 56 60 64 66 66 54 62 48 43 46 42 44 42 40 39
50 57 56 55 58 59 61 64 70 69 65 60 59 54 52 49 49 47 50 50 41 41 49 54 49 40 41 45 46 45 45 57 63 69 65 55 58 49 42 39 34 33 35 37 40
36 41 46 46 49 56 61 62 64 57 53 53 54 51 48 42 42 41 40 39 36 33 43 51 49 33 36 40 46 51 49 45 58 54 60 53 47 40 38 35 31 30 34 37 40
30 34 37 40 43 45 45 50 51 46 43 43 37 36 38 39 42 44 43 39 39 39 42 40 55 43 50 50 49 52 46 53 55 62 60 43 41 46 41 37 33 31 33 36 39
26 30 25 29 32 31 41 37 34 32 35 36 32 34 38 42 44 44 43 42 43 42 41 42 45 48 41 43 47 49 47 43 40 40 59 50 39 38 38 36 32 29 32 35 37
24 30 24 27 30 29 36 31 30 32 34 35 35 36 39 38 38 38 38 36 34 35 39 34 37 43 34 32 34 38 41 40 50 38 45 46 44 27 31 33 33 30 32 36 38
22 24 23 28 36 35 34 35 35 35 35 35 35 36 34 35 37 33 32 31 29 30 33 32 37 43 37 34 35 36 32 35 37 40 45 52 32 32 34 35 35 36 34 36 39
21 28 24 25 27 28 31 32 34 34 34 34 33 32 32 32 31 32 29 30 27 28 30 31 33 35 38 28 33 35 33 34 40 52 42 37 30 26 31 38 40 39 35 36 39
21 22 24 31 26 25 27 27 29 31 30 30 30 31 31 31 28 29 27 28 29 31 32 35 39 36 35 32 33 33 32 32 36 36 47 28 33 25 27 28 31 34 35 35 38
21 25 22 23 24 28 27 26 27 27 27 28 30 29 29 30 29 31 28 28 28 34 36 38 43 39 39 30 32 36 29 30 31 30 34 33 29 26 27 29 29 28 31 35 37
25 20 21 23 23 23 26 27 28 27 27 28 28 28 27 28 27 26 26 25 27 30 36 39 45 46 48 38 39 40 27 27 28 28 29 34 25 27 29 30 30 31 31 35 35

GFSSW_prec_cthk_117.txt.gz
RH
88 90 97 90 95 92 79 59 54 60 83 87 90 80 69 47 38 32 30 30 24 23 23 25 27 30 29 30 30 29 31 33 33 33 35 32 27 23 20 18 15 12 14 15 13
92 90 97 98 93 90 81 77 54 56 83 89 91 98 68 50 46 36 33 26 24 24 25 27 30 29 28 30 29 32 36 34 34 32 31 24 16 13 11 10 10 10 10 10 10
78 84 91 89 97 96 89 84 66 54 73 83 93 93 72 59 50 48 33 23 22 26 27 27 28 28 28 27 28 29 31 29 29 26 22 14 11 11 10 10 10 10 9 9 8
63 77 85 92 89 93 86 73 69 55 62 76 89 94 83 74 61 48 35 24 22 26 27 27 27 25 25 23 21 23 24 24 24 15 11 11 10 10 9 8 9 9 9 8 11
52 80 88 89 86 87 83 70 63 62 63 75 83 93 94 80 60 47 36 28 23 26 26 24 23 22 22 19 16 18 18 16 13 11 10 10 9 10 8 8 9 10 11 14 15
40 48 58 61 53 55 63 65 64 67 64 75 84 92 94 82 62 49 36 33 27 24 23 23 22 21 20 17 16 16 14 14 12 11 10 11 10 11 10 12 12 13 15 16 17
51 41 34 36 38 44 55 66 65 80 73 72 75 90 93 86 64 52 39 34 30 26 25 23 23 21 18 17 16 13 13 13 13 12 12 11 12 15 14 16 16 16 17 19 20
55 61 45 38 41 42 52 73 69 79 74 81 89 94 96 83 65 51 40 36 33 28 25 22 21 18 17 15 13 14 12 16 15 14 16 14 14 17 19 20 20 20 22 23 24
83 83 57 49 42 48 63 80 74 86 92 89 93 94 91 81 71 57 43 37 32 27 23 19 17 16 16 16 19 15 17 17 18 18 19 21 21 21 21 21 22 24 26 27 28
80 74 58 48 50 70 78 93 89 90 92 91 91 92 90 78 71 59 45 38 31 27 23 20 19 22 22 28 32 23 17 16 19 23 25 26 26 21 20 23 25 27 28 28 29
60 66 59 58 75 77 78 90 97 97 87 90 89 89 89 76 65 57 47 39 36 31 25 26 27 29 24 22 21 21 21 23 27 28 32 30 29 25 26 29 30 30 28 29 30
50 52 64 91 85 94 96 82 83 83 83 82 85 84 88 76 67 62 51 44 39 33 29 31 34 26 22 22 23 25 28 37 33 33 35 33 33 30 30 31 29 28 30 32 34
58 70 86 81 81 80 84 86 85 78 80 87 82 74 72 70 71 64 58 51 42 38 34 35 31 27 27 29 34 35 36 38 40 40 39 39 40 35 31 28 27 31 34 37 39
69 83 84 85 91 92 95 94 86 80 80 86 78 75 71 66 61 58 54 49 46 44 40 38 32 32 33 35 38 41 40 42 47 49 52 44 48 34 29 30 30 35 39 41 40
64 77 82 85 86 89 85 79 74 78 83 91 84 71 69 64 55 53 52 48 47 44 44 44 40 41 43 41 40 46 44 47 50 52 54 46 53 36 31 33 36 39 41 41 39
65 64 60 63 66 66 63 66 69 64 83 76 72 68 65 61 58 54 53 48 49 48 48 46 43 43 43 43 44 45 49 51 50 49 57 48 53 38 36 35 42 40 39 35 30
59 59 57 54 57 53 52 54 52 66 64 64 63 59 56 54 54 52 50 50 52 46 54 49 44 44 43 46 46 47 52 59 60 65 60 52 56 41 36 39 42 37 30 27 27
47 50 50 49 49 51 51 49 58 62 64 56 55 55 54 54 52 51 52 51 42 44 53 51 39 40 39 44 44 47 46 53 43 62 58 51 52 36 36 39 35 30 26 26 26
38 40 43 48 49 50 49 56 59 57 52 52 49 46 43 40 39 38 37 38 34 34 40 46 44 34 37 37 40 50 52 45 52 54 59 49 40 34 35 35 35 31 27 26 28
29 33 33 35 37 39 42 49 46 41 41 40 37 33 36 37 40 40 40 34 35 34 37 36 46 36 39 45 46 49 48 51 54 54 56 44 38 36 36 36 35 32 30 29 28
24 25 26 29 29 24 35 37 35 33 34 35 35 36 39 42 43 45 44 40 41 39 39 40 44 45 41 41 42 46 48 45 44 47 52 53 38 31 32 35 32 32 32 31 31
22 25 25 26 27 30 34 31 29 31 35 38 38 38 39 38 37 37 36 34 30 31 33 31 38 41 34 31 34 38 40 40 47 38 45 47 43 25 28 29 30 30 33 34 34
19 22 25 26 31 34 33 33 33 35 36 36 36 35 34 34 34 32 31 31 28 29 33 34 37 43 38 36 35 37 35 38 41 45 48 51 31 26 27 29 29 30 31 31 33
19 23 21 23 25 29 31 32 34 33 33 34 32 31 32 32 31 32 31 31 28 29 31 32 36 33 26 26 33 38 35 35 40 51 39 36 27 23 27 29 29 30 30 30 30
20 21 24 28 24 25 27 28 29 31 30 30 31 32 33 33 31 31 28 30 29 30 32 33 41 37 34 33 34 34 34 34 37 33 44 25 31 23 26 27 27 28 28 28 29
23 22 21 22 23 24 25 27 27 29 28 29 30 30 28 29 30 30 28 28 28 35 36 38 41 41 43 34 36 37 33 33 33 33 34 31 29 22 24 26 27 27 28 28 30
42 30 21 23 23 23 26 26 25 25 25 25 27 27 26 26 26 26 26 26 28 33 38 40 46 45 46 38 37 37 26 26 27 26 28 35 23 22 23 26 26 24 24 26 28